     2.11           OBSERVATION DATA    G (GPS)             RINEX VERSION / TYPE
teqc 2010Oct21 OPUS Account 20111026 21:23:55UTC            PGM / RUN BY / DATE
R 1523                                                      MARKER NAME
1196                                                        MARKER NUMBER
CSMIDDLETON NGS                                             OBSERVER / AGENCY
4624K01583 TRIMBLE NETR5 4.41                               REC # / TYPE / VERS
60154430 TRM41249.00 NONE                                   ANT # / TYPE
  -752258.9499 -5516156.6053  3102092.4665                  APPROX POSITION XYZ
        2.0000        0.0000        0.0000                  ANTENNA: DELTA H/E/N
     1     1                                                WAVELENGTH FACT L1/2
     5    L1    L2    C1    P1    P2                        # / TYPES OF OBSERV
    15                                                      LEAP SECONDS
  2011     8    12     0     0    0.0000000     GPS         TIME OF FIRST OBS
                                                            END OF HEADER
 11  8 12  0  0  0.0000000  0  9G10G28G17G12G09G05G04G27G02
 113413200.585 7  88374034.33445  21581798.547                    21581807.750
 123015235.444 7  95856099.81843  23409027.727                    23409037.578
 116698032.615 8  90933622.226 7  22206885.227                    22206893.277
 120674045.871 7  94031776.207 7  22963510.266                    22963518.551
 117675440.804 7  91695213.24545  22392898.039                    22392907.609
 126599367.567 6  98648828.780 6  24091035.852                    24091048.418
 106945123.052 8  83333998.19646  20350964.430                    20350972.227
 119778833.115 7  93334243.45045  22793167.297                    22793176.621
 110194660.272 8  85866055.77346  20969328.594                    20969334.590
 11  8 12  0  0 30.0000000  0  9G10G28G17G12G09G05G04G27G02
 113351113.397 7  88325654.75145  21569983.734                    21569992.352
 123105824.557 7  95926688.60044  23426265.953                    23426275.887
 116738287.688 8  90964989.781 7  22214544.969                    22214553.422
 120583330.938 7  93961089.310 6  22946247.281                    22946255.867
 117719140.598 7  91729264.97045  22401213.625                    22401223.539
 126493545.084 6  98566369.975 6  24070898.945                    24070911.480
 106993369.334 8  83371592.69346  20360145.172                    20360153.305
 119820541.743 7  93366743.64744  22801103.602                    22801113.773
 110157437.763 8  85837051.24346  20962245.266                    20962251.387
 11  8 12  0  1  0.0000000  0  9G10G28G17G12G09G05G04G27G02
 113289472.406 7  88277622.85945  21558253.547                    21558262.086
 123196693.107 6  95997495.11543  23443557.773                    23443567.219
 116778641.865 7  90996434.565 7  22222224.766                    22222232.434
 120492785.516 7  93890534.493 7  22929017.117                    22929025.707
 117763341.107 7  91763706.87144  22409624.773                    22409634.680
 126387710.130 7  98483901.414 6  24050758.336                    24050771.055
 107042003.116 8  83409489.14046  20369399.891                    20369408.059
 119862593.744 7  93399511.37644  22809105.969                    22809116.195
 110120583.376 8  85808333.56946  20955232.172                    20955238.016
 11  8 12  0  1 30.0000000  0  9G10G28G17G12G09G05G04G27G02
 113228280.312 7  88229940.77045  21546609.336                    21546618.398
 123287839.354 6  96068517.95643  23460902.586                    23460912.094
 116819095.113 7  91027956.538 7  22229922.844                    22229930.879
 120402411.976 7  93820113.607 7  22911819.656                    22911827.914
 117808039.715 7  91798536.87845  22418130.672                    22418140.867
 126281865.549 7  98401425.349 6  24030617.227                    24030628.922
 107091021.967 8  83447685.65246  20378727.898                    20378735.734
 119904986.486 7  93432544.62045  22817173.516                    22817183.785
 110084097.124 8  85779902.74946  20948289.227                    20948294.988
 11  8 12  0  2  0.0000000  0  9G10G28G17G12G09G05G04G27G02
 113167540.331 7  88182610.96745  21535050.586                    21535059.457
 123379261.833 7  96139756.11643  23478300.375                    23478309.488
 116859648.199 7  91059556.313 7  22237639.633                    22237647.895
 120312212.713 7  93749828.510 7  22894654.828                    22894663.508
 117853234.112 7  91833753.22245  22426731.344                    22426740.848
 126176014.158 7  98318943.989 6  24010473.586                    24010486.008
 107140423.856 8  83486180.62046  20388128.828                    20388136.695
 119947718.129 7  93465841.99544  22825304.789                    22825314.422
 110047979.092 8  85751758.85346  20941416.125                    20941421.684
 11  8 12  0  2 30.0000000  0  9G10G28G17G12G09G05G04G27G02
 113107254.264 7  88135634.86145  21523578.414                    21523587.301
 123470958.120 6  96211207.60343  23495749.281                    23495758.801
 116900300.876 7  91091233.706 7  22245375.867                    22245384.000
 120222189.743 7  93679680.798 7  22877524.391                    22877533.020
 117898920.498 7  91869352.96845  22435424.852                    22435434.758
 126070157.861 7  98236458.831 6  23990329.703                    23990342.441
 107190205.606 8  83524971.57646  20397601.914                    20397609.887
 119990785.485 7  93499400.91044  22833500.102                    22833510.336
 110012227.419 8  85723900.43346  20934613.172                    20934619.000
 11  8 12  0  3  0.0000000  0  9G10G28G17G12G09G05G04G27G02
 113047425.506 8  88089015.09645  21512193.414                    21512202.477
 123562927.465 6  96282871.87043  23513250.781                    23513260.496
 116941054.253 8  91122989.550 7  22253130.938                    22253138.969
 120132345.897 7  93609672.644 7  22860427.195                    22860436.512
 117945097.171 7  91905334.73445  22444212.320                    22444221.203
 125964300.265 7  98153972.643 6  23970185.539                    23970198.004
 107240365.631 8  83564057.30446  20407146.969                    20407155.004
 120034187.034 7  93533220.26944  22841759.313                    22841769.465
 109976843.548 8  85696328.61246  20927879.398                    20927885.551
 11  8 12  0  3 30.0000000  0  9G10G28G17G12G09G05G04G27G02
 112988057.147 8  88042754.07945  21500895.656                    21500904.797
 123655168.044 6  96354747.45243  23530803.352                    23530813.234
 116981909.099 7  91154824.482 7  22260904.922                    22260913.438
 120042683.962 7  93539806.250 6  22843365.430                    22843374.176
 117991761.392 7  91941696.41144  22453091.781                    22453101.355
 125858444.202 7  98071487.668 6  23950041.711                    23950054.387
 107290901.628 8  83603435.99546  20416763.875                    20416772.266
 120077920.495 7  93567298.26244  22850081.828                    22850091.309
 109941827.536 8  85669043.44546  20921216.164                    20921221.949
 11  8 12  0  4  0.0000000  0  9G10G28G17G12G09G05G04G27G02
 112929151.481 7  87996853.60245  21489686.906                    21489695.414
 123747677.934 6  96426832.91843  23548407.367                    23548417.535
 117022865.275 7  91186738.361 7  22268698.914                    22268707.383
 119953206.013 7  93470083.197 6  22826338.273                    22826346.855
 118038910.020 7  91978435.54744  22462064.039                    22462073.922
 125752592.109 7  97989005.779 6  23929899.008                    23929910.910
 107341810.905 8  83643105.55146  20426451.281                    20426459.641
 120121983.203 7  93601632.77044  22858466.773                    22858476.586
 109907178.248 8  85642044.03046  20914622.367                    20914628.570
 11  8 12  0  4 30.0000000  0  9G10G28G17G12G09G05G04G27G02
 112870711.611 7  87951316.08745  21478565.961                    21478574.613
 123840455.477 7  96499126.91643  23566063.133                    23566072.664
 117063923.511 8  91218731.782 7  22276512.102                    22276520.258
 119863914.751 7  93400505.628 6  22809346.602                    22809355.340
 118086540.454 7  92015550.10944  22471128.289                    22471137.488
 125646746.871 6  97906529.223 6  23909756.680                    23909769.324
 107393091.453 8  83683064.41146  20436210.227                    20436218.297
 120166373.191 7  93636222.34544  22866913.711                    22866923.863
 109872895.805 8  85615330.46546  20908098.594                    20908104.887
 11  8 12  0  5  0.0000000  0  9G10G28G17G12G09G05G04G27G02
 112812739.759 7  87906143.26245  21467533.883                    21467542.816
 123933498.969 6  96571628.20643  23583768.758                    23583778.156
 117105084.131 7  91250804.965 7  22284344.578                    22284353.008
 119774812.366 7  93331075.236 6  22792391.156                    22792399.066
 118134649.646 7  92053037.73645  22480282.711                    22480292.398
 125540911.147 6  97824060.055 6  23889615.680                    23889628.891
 107444740.602 8  83723310.49646  20446038.305                    20446046.734
 120211087.746 7  93671064.81044  22875422.445                    22875432.344
 109838979.558 8  85588902.25346  20901644.555                    20901650.574
 11  8 12  0  5 30.0000000  0  9G10G28G17G12G09G05G04G27G02
 112755238.603 7  87861337.20245  21456592.148                    21456600.922
 124026806.611 6  96644335.27843  23601524.602                    23601534.500
 117146347.309 7  91282958.087 7  22292196.578                    22292205.156
 119685900.928 7  93261793.624 6  22775472.156                    22775479.941
 118183234.924 7  92090896.34144  22489528.984                    22489538.086
 125435087.473 6  97741600.308 7  23869478.656                    23869491.387
 107496755.879 8  83763841.87246  20455936.789                    20455944.609
 120256124.230 7  93706158.10044  22883993.055                    22884002.793
 109805428.740 8  85562758.79146  20895259.781                    20895265.953
 11  8 12  0  6  0.0000000  0  9G10G28G17G12G09G05G04G27G02
 112698211.523 7  87816900.56945  21445739.750                    21445748.523
 124120376.974 6  96717247.07643  23619330.391                    23619340.750
 117187714.127 7  91315191.966 7  22300068.531                    22300076.961
 119597183.599 7  93192663.276 7  22758589.281                    22758597.891
 118232293.938 7  92129124.09645  22498864.102                    22498874.020
 125329279.056 7  97659152.405 6  23849343.766                    23849356.477
 107549135.543 8  83804657.18946  20465904.219                    20465912.250
 120301481.102 7  93741501.08244  22892624.586                    22892633.992
 109772244.135 8  85536900.68546  20888945.078                    20888951.172
 11  8 12  0  6 30.0000000  0  9G10G28G17G12G09G05G04G27G02
 112641661.061 7  87772835.31545  21434979.031                    21434987.371
 124214208.309 6  96790362.25443  23637185.883                    23637196.727
 117229185.069 7  91347506.998 7  22307960.375                    22307968.773
 119508662.944 7  93123686.191 6  22741744.469                    22741753.191
 118281823.994 7  92167718.90945  22508289.391                    22508299.047
 125223488.842 7  97576718.679 6  23829212.461                    23829224.445
 107601877.018 8  83845754.43846  20475940.430                    20475948.660
 120347156.025 7  93777091.85544  22901315.711                    22901325.594
 109739425.582 8  85511327.81946  20882699.953                    20882706.207
 11  8 12  0  7  0.0000000  0  9G10G28G17G12G09G05G04G27G02
 112585590.065 8  87729143.66445  21424308.703                    21424317.773
 124308299.156 6  96863679.65543  23655091.781                    23655101.320
 117270761.120 8  91379903.920 7  22315871.719                    22315880.113
 119420341.647 7  93054864.431 7  22724937.539                    22724945.770
 118331822.407 7  92206678.68044  22517803.781                    22517813.410
 125117719.934 7  97494301.541 6  23809085.055                    23809097.621
 107654978.541 8  83887132.23946  20486045.250                    20486053.586
 120393146.839 7  93812928.77944  22910067.031                    22910077.699
 109706973.163 8  85486040.25446  20876524.438                    20876530.676
 11  8 12  0  7 30.0000000  0  9G10G28G17G12G09G05G04G27G02
 112530000.647 8  87685827.28045  21413730.500                    21413739.113
 124402647.204 6  96937197.46243  23673044.766                    23673055.664
 117312441.737 7  91412382.333 7  22323803.344                    22323811.484
 119332221.669 7  92986199.553 7  22708168.984                    22708177.211
 118382285.679 7  92246000.66044  22527406.250                    22527416.477
 125011974.549 7  97411902.733 6  23788962.375                    23788974.543
 107708436.903 8  83928788.09946  20496217.945                    20496226.324
 120439450.430 7  93849009.45844  22918878.875                    22918889.027
 109674885.474 8  85461036.89346  20870418.305                    20870424.207
 11  8 12  0  8  0.0000000  0  9G10G28G17G12G09G05G04G27G02
 112474895.480 8  87642888.21645  21403244.469                    21403252.695
 124497251.013 7  97010914.55443  23691047.383                    23691057.246
 117354227.578 7  91444942.709 7  22331754.789                    22331763.398
 119244305.493 7  92917693.474 7  22691438.758                    22691447.602
 118433210.798 7  92285682.53544  22537097.805                    22537106.805
 124906255.137 7  97329524.172 6  23768845.188                    23768856.707
 107762249.659 8  83970720.11446  20506458.383                    20506466.633
 120486064.283 7  93885331.85144  22927749.195                    22927759.813
 109643161.978 8  85436317.31146  20864381.781                    20864387.555
 11  8 12  0  8 30.0000000  0  9G10G28G17G12G09G05G04G27G02
 112420277.249 8  87600328.59645  21392850.664                    21392859.359
 124592108.142 6  97084829.06843  23709098.641                    23709108.855
 117396119.056 8  91477585.431 7  22339726.852                    22339734.957
 119156596.062 7  92849348.509 7  22674748.602                    22674756.738
 118484594.893 7  92325722.04944  22546875.711                    22546885.188
 124800564.957 7  97247168.399 6  23748732.758                    23748744.125
 107816414.480 8  84012926.45346  20516765.453                    20516773.766
 120532986.112 7  93921894.24944  22936678.641                    22936688.738
 109611802.722 8  85411881.54546  20858414.188                    20858419.965
 11  8 12  0  9  0.0000000  0  9G10G28G17G12G09G05G04G27G02
 112366149.255 8  87558150.97445  21382550.672                    21382559.383
 124687217.794 6  97158940.32943  23727197.516                    23727207.750
 117438117.879 8  91510311.779 7  22347719.094                    22347726.988
 119069095.681 7  92781166.420 7  22658097.563                    22658105.875
 118536436.037 7  92366117.71945  22556740.438                    22556750.352
 124694907.309 7  97164837.967 6  23728626.094                    23728637.699
 107870929.742 8  84055405.87846  20527139.484                    20527147.742
 120580214.132 7  93958695.21244  22945665.367                    22945675.891
 109580807.966 8  85387729.80946  20852515.633                    20852522.117
 11  8 12  0  9 30.0000000  0  9G10G28G17G12G09G05G04G27G02
 112312513.650 8  87516357.03845  21372344.000                    21372352.621
 124782578.124 6  97233246.92343  23745343.141                    23745353.910
 117480223.807 7  91543121.575 7  22355731.445                    22355739.953
 118981806.865 7  92713149.200 7  22641486.883                    22641495.234
 118588731.104 7  92406867.07244  22566691.938                    22566701.848
 124589284.828 7  97082534.935 6  23708526.453                    23708537.945
 107925793.232 8  84098156.64746  20537579.711                    20537587.523
 120627745.819 7  93995732.80444  22954710.695                    22954720.879
 109550177.271 8  85363861.76546  20846687.227                    20846693.109
 11  8 12  0 10  0.0000000  0  9G10G28G17G12G09G05G04G27G02
 112259373.058 8  87474948.82145  21362231.742                    21362240.441
 124878187.056 6  97307747.23243  23763537.820                    23763548.180
 117522437.093 8  91576015.030 7  22363765.102                    22363772.633
 118894732.200 7  92645298.834 7  22624917.555                    22624925.566
 118641476.739 7  92447967.53745  22576729.453                    22576739.008
 124483700.033 7  97000261.273 6  23688434.031                    23688445.824
 107981002.088 8  84141176.52746  20548085.445                    20548093.715
 120675578.489 7  94033004.93744  22963812.117                    22963823.488
 109519910.026 8  85340276.91346  20840927.594                    20840933.738
 11  8 12  0 10 30.0000000  0  9G10G28G17G12G09G05G04G27G02
 112206730.216 8  87433928.46745  21352214.047                    21352222.734
 124974042.793 6  97382439.81943  23781778.969                    23781789.117
 117564758.529 8  91608992.747 7  22371817.938                    22371825.813
 118807874.247 7  92577617.337 7  22608389.094                    22608397.125
 118694670.120 7  92489416.88245  22586851.820                    22586861.363
 124378156.124 7  96918019.465 6  23668350.188                    23668361.527
 108036554.009 8  84184463.74446  20558656.820                    20558665.105
 120723709.743 7  94070509.71744  22972971.313                    22972982.875
 109490005.943 8  85316975.05346  20835236.656                    20835243.180
 11  8 12  0 11  0.0000000  0  9G10G28G17G12G09G05G04G27G02
 112154587.416 8  87393297.75745  21342291.648                    21342300.211
 125070143.550 6  97457323.39543  23800066.414                    23800076.727
 117607188.693 8  91642055.193 7  22379892.125                    22379900.441
 118721235.664 7  92510106.789 7  22591901.922                    22591910.203
 118748308.286 7  92531212.82244  22597058.180                    22597068.195
 124272655.841 7  96835811.668 6  23648273.531                    23648285.121
 108092446.666 8  84228016.46646  20569292.773                    20569301.137
 120772137.237 7  94108245.33744  22982186.922                    22982198.184
 109460464.700 8  85293955.91746  20829615.102                    20829621.168
 11  8 12  0 11 30.0000000  0  9G10G28G17G12G09G05G04G27G02
 112102947.013 8  87353058.51345  21332464.734                    21332473.391
 125166487.488 6  97532396.47543  23818399.750                    23818410.703
 117649727.765 7  91675202.497 7  22387987.367                    22387995.266
 118634818.647 7  92442768.882 7  22575457.406                    22575465.504
 118802388.343 7  92573353.08544  22607349.602                    22607359.453
 124167202.022 7  96753640.053 6  23628206.531                    23628217.641
 108148677.357 8  84271832.59346  20579993.109                    20580001.359
 120820858.175 7  94146209.61744  22991458.688                    22991469.145
 109431285.611 8  85271218.98446  20824062.727                    20824068.770
 11  8 12  0 12  0.0000000  0  9G10G28G17G12G09G05G04G27G02
 112051811.781 8  87313212.90445  21322734.070                    21322742.637
 125263072.747 6  97607657.56343  23836780.055                    23836790.227
 117692376.517 7  91708435.268 7  22396103.094                    22396110.656
 118548625.857 7  92375605.704 6  22559055.961                    22559063.148
 118856907.604 7  92615835.56444  22617724.734                    22617734.746
 124061797.643 7  96671506.934 6  23608148.109                    23608159.309
 108205244.285 8  84315910.72446  20590757.469                    20590765.727
 120869870.386 7  94184400.88044  23000784.930                    23000796.184
 109402468.476 8  85248764.08946  20818579.094                    20818584.840
 11  8 12  0 12 30.0000000  0  9G10G28G17G12G09G05G04G27G02
 112001184.177 8  87273762.85746  21313099.984                    21313108.609
 125359897.516 6  97683105.24743  23855204.359                    23855215.480
 117735135.597 7  91741754.003 7  22404239.797                    22404247.902
 118462659.902 7  92308619.293 7  22542696.219                    22542704.652
 118911862.704 7  92658657.66144  22628181.977                    22628192.156
 123956445.406 7  96589414.509 6  23588099.898                    23588112.141
 108262144.759 8  84360248.76446  20601585.156                    20601593.336
 120919171.373 7  94222817.16144  23010167.648                    23010177.988
 109374012.777 8  85226590.82446  20813163.828                    20813169.824
 11  8 12  0 13  0.0000000  0  9G10G28G17G12G09G05G04G27G02
 111951066.538 8  87234710.19245  21303562.797                    21303571.457
 125456959.736 6  97758737.99243  23873674.266                    23873685.777
 117778005.309 7  91775158.935 7  22412398.172                    22412405.871
 118376923.305 7  92241811.615 7  22526381.180                    22526389.383
 118967250.756 7  92701817.13244  22638721.859                    22638732.199
 123851148.017 7  96507364.796 6  23568062.656                    23568074.125
 108319376.299 8  84404844.77646  20612475.805                    20612484.031
 120968758.536 7  94261456.43244  23019603.508                    23019614.227
 109345917.948 8  85204698.75546  20807817.586                    20807823.582
 11  8 12  0 13 30.0000000  0  9G10G28G17G12G09G05G04G27G02
 111901461.995 8  87196057.33545  21294123.391                    21294132.031
 125554258.118 6  97834554.74643  23892189.914                    23892201.453
 117820986.500 7  91808650.730 7  22420576.375                    22420584.844
 118291418.852 7  92175184.833 7  22510109.953                    22510118.172
 119023068.789 7  92745311.65245  22649343.625                    22649354.180
 123745908.706 7  96425360.324 6  23548035.938                    23548047.020
 108376936.854 8  84449697.15846  20623429.391                    20623437.469
 121018629.788 7  94300317.07944  23029093.070                    23029104.590
 109318184.043 8  85183087.94046  20802540.219                    20802545.863
 11  8 12  0 14  0.0000000  0  9G10G28G17G12G09G05G04G27G02
 111852372.570 8  87157805.86546  21284781.727                    21284790.113
 125651790.765 6  97910554.02243  23910750.633                    23910761.301
 117864079.939 7  91842230.013 7  22428777.063                    22428785.707
 118206148.894 7  92108740.792 7  22493883.914                    22493891.848
 119079313.675 7  92789138.77544  22660047.445                    22660057.371
 123640730.657 7  96343403.585 6  23528021.359                    23528033.184
 108434824.159 8  84494804.15146  20634445.008                    20634453.328
 121068782.543 7  94339397.05644  23038637.609                    23038648.402
 109290810.627 8  85161758.02246  20797330.742                    20797336.945
 11  8 12  0 14 30.0000000  0  9G10G28G17G12G09G05G04G27G02
 111803800.398 8  87119957.45845  21275538.773                    21275547.121
 125749555.353 6  97986734.06143  23929354.844                    23929365.422
 117907285.826 7  91875896.910 7  22436998.484                    22437007.277
 118121116.080 7  92042481.523 7  22477702.227                    22477710.672
 119135982.319 7  92833296.08845  22670831.148                    22670840.645
 123535615.922 7  96261496.201 6  23508018.336                    23508029.512
 108493035.537 8  84540163.67346  20645522.375                    20645530.305
 121119213.904 7  94378694.13744  23048234.188                    23048245.004
 109263796.764 8  85140708.26246  20792190.383                    20792196.504
 11  8 12  0 15  0.0000000  0  9G10G28G17G12G09G05G04G27G02
 111755747.903 8  87082513.98246  21266394.797                    21266403.164
 125847550.084 6  98063093.44643  23948002.680                    23948013.539
 117950604.434 7  91909651.656 7  22445242.563                    22445250.949
 118036322.600 7  91976408.740 7  22461566.523                    22461574.730
 119193071.616 7  92877781.19145  22681694.891                    22681704.477
 123430567.829 7  96179640.724 6  23488028.266                    23488039.641
 108551568.556 8  84585773.81846  20656660.703                    20656669.070
 121169921.459 7  94418206.45844  23057883.867                    23057894.262
 109237141.826 8  85119938.20446  20787118.148                    20787124.059
 11  8 12  0 15 30.0000000  0  9G10G28G17G12G09G05G04G27G02
 111708217.609 8  87045477.41845  21257350.516                    21257358.785
 125945773.209 6  98139630.78443  23966693.477                    23966704.844
 117994036.414 7  91943494.724 7  22453506.898                    22453515.348
 117951771.204 7  91910524.598 7  22445477.359                    22445485.387
 119250578.748 7  92922591.89544  22692638.133                    22692647.957
 123325589.178 7  96097839.370 6  23468051.352                    23468062.855
 108610421.037 8  84631632.88946  20667859.938                    20667867.969
 121220902.854 7  94457932.16444  23067585.375                    23067595.684
 109210845.710 8  85099447.74046  20782114.164                    20782119.836
 11  8 12  0 16  0.0000000  0  9G10G28G17G12G09G05G04G27G02
 111661211.636 8  87008849.41246  21248405.000                    21248413.621
 126044222.575 6  98216344.45843  23985428.641                    23985439.082
 118037582.349 7  91977426.601 7  22461793.297                    22461801.621
 117867464.676 7  91844831.260 7  22429434.023                    22429442.203
 119308500.532 7  92967725.69644  22703660.336                    22703670.344
 123220683.143 7  96016094.617 6  23448088.359                    23448100.297
 108669590.474 8  84677738.94146  20679119.570                    20679127.746
 121272155.258 7  94497869.03744  23077338.977                    23077348.543
 109184907.790 8  85079236.38246  20777178.500                    20777184.406
 11  8 12  0 16 30.0000000  0  9G10G28G17G12G09G05G04G27G02
 111614732.474 8  86972631.90946  21239560.391                    21239568.801
 126142896.520 6  98293233.07442  24004205.500                    24004216.816
 118081242.983 7  92011447.848 7  22470101.938                    22470110.184
 117783405.552 7  91779330.709 7  22413438.570                    22413446.609
 119366834.047 7  93013180.33544  22714760.672                    22714770.766
 123115852.352 7  95934408.474 6  23428139.539                    23428150.324
 108729074.586 8  84724090.19246  20690439.008                    20690447.168
 121323676.325 7  94538015.25744  23087142.438                    23087152.699
 109159327.851 8  85059303.97846  20772310.625                    20772316.844
 11  8 12  0 17  0.0000000  0  9G10G28G17G12G09G05G04G27G02
 111568782.616 8  86936826.85146  21230816.609                    21230824.738
 126241793.338 6  98370295.37943  24023025.008                    24023036.629
 118125018.711 7  92045558.794 7  22478432.391                    22478440.305
 117699596.271 7  91714024.834 7  22397490.234                    22397498.566
 119425576.177 7  93058953.36444  22725938.547                    22725949.023
 123011099.989 7  95852783.445 6  23408205.992                    23408216.445
 108788871.019 8  84770684.80746  20701817.641                    20701826.047
 121375463.631 7  94578368.92644  23096997.367                    23097007.984
 109134105.248 8  85039650.01246  20767510.797                    20767516.539
 11  8 12  0 17 30.0000000  0  9G10G28G17G12G09G05G04G27G02
 111523364.616 8  86901436.24446  21222173.305                    21222182.035
 126340910.998 6  98447529.71043  24041887.211                    24041897.648
 118168910.401 7  92079760.093 7  22486784.523                    22486792.805
 117616039.533 8  91648915.731 7  22381589.688                    22381597.410
 119484724.242 7  93105042.69944  22737194.398                    22737204.469
 122906428.948 7  95771221.796 6  23388286.789                    23388298.750
 108848977.835 8  84817521.27246  20713255.859                    20713264.102
 121427514.832 7  94618928.23844  23106902.023                    23106912.938
 109109239.766 8  85020274.33346  20762779.352                    20762785.199
 11  8 12  0 18  0.0000000  0  9G10G28G17G12G09G05G04G27G02
 111478480.129 8  86866461.36945  21213632.344                    21213640.805
 126440247.302 6  98524934.43743  24060790.133                    24060801.129
 118212918.352 7  92114051.983 7  22495158.875                    22495167.332
 117532737.689 7  91584005.233 7  22365737.508                    22365745.785
 119544274.529 7  93151445.45944  22748526.148                    22748536.711
 122801841.917 7  95689725.584 6  23368385.195                    23368395.781
 108909391.978 8  84864597.20146  20724752.313                    20724760.543
 121479826.845 7  94659690.76144  23116856.945                    23116867.672
 109084730.183 8  85001175.96746  20758115.172                    20758121.352
 11  8 12  0 18 30.0000000  0  9G10G28G17G12G09G05G04G27G02
 111434131.612 8  86831904.13245  21205192.922                    21205201.344
 126539800.459 6  98602508.16343  24079734.492                    24079745.406
 118257043.313 7  92148435.053 7  22503555.539                    22503563.629
 117449693.338 7  91519295.394 7  22349934.703                    22349943.180
 119604223.730 7  93198159.07344  22759934.758                    22759944.664
 122697341.926 7  95608297.162 6  23348499.539                    23348510.273
 108970111.196 8  84911910.86046  20736306.695                    20736315.250
 121532396.987 7  94700654.43344  23126860.883                    23126871.332
 109060576.151 8  84982354.66846  20753519.086                    20753524.809
 11  8 12  0 19  0.0000000  0 10G10G28G17G12G09G05G04G27G30G02
 111390321.158 8  86797766.16646  21196856.109                    21196864.672
 126639568.384 6  98680249.21843  24098720.164                    24098731.023
 118301285.333 7  92182909.326 7  22511974.359                    22511982.906
 117366909.341 7  91454788.406 7  22334181.258                    22334189.664
 119664568.952 7  93245181.28244  22771418.359                    22771427.676
 122592931.751 7  95526938.753 6  23328629.828                    23328641.477
 109031133.252 8  84959460.48946  20747918.758                    20747927.254
 121585222.951 7  94741817.45444  23136913.367                    23136923.977
 128044238.44316  99774809.90553  24366018.047                    24366028.586
 109036777.316 8  84963810.13346  20748989.859                    20748995.922
 11  8 12  0 19 30.0000000  0 10G10G28G17G12G09G05G04G27G30G02
 111347051.241 8  86764049.37746  21188621.859                    21188630.402
 126739549.485 6  98758156.39143  24117745.844                    24117756.746
 118345645.390 7  92217475.601 7  22520416.141                    22520424.910
 117284387.958 7  91390486.046 7  22318477.875                    22318486.586
 119725307.103 7  93292509.64645  22782976.398                    22782985.973
 122488614.311 7  95445652.567 6  23308779.109                    23308790.008
 109092455.863 8  85007244.31446  20759588.297                    20759596.648
 121638302.413 7  94783177.97744  23147014.219                    23147024.199
 127937447.526 6  99691596.24443  24345697.266                    24345707.246
 109013333.073 8  84945541.90546  20744528.789                    20744534.727
 11  8 12  0 20  0.0000000  0 10G10G28G17G12G09G05G04G27G30G02
 111304323.850 8  86730755.34146  21180491.047                    21180499.738
 126839741.624 6  98836228.00442  24136812.188                    24136822.789
 118390124.478 7  92252134.624 7  22528879.852                    22528888.449
 117202131.897 7  91326390.444 7  22302825.156                    22302833.488
 119786435.285 7  93340141.95245  22794608.680                    22794618.672
 122384392.877 7  95364441.250 6  23288946.781                    23288957.289
 109154076.619 8  85055260.46246  20771314.289                    20771322.520
 121691632.599 7  94824733.92244  23157162.234                    23157173.465
 127830795.746 7  99608490.99543  24325402.164                    24325412.117
 108990242.871 8  84927549.56546  20740135.156                    20740140.891
 11  8 12  0 20 30.0000000  0 10G10G28G17G12G09G05G04G27G30G02
 111262141.212 8  86697885.77046  21172464.359                    21172473.203
 126940142.961 6  98914462.67942  24155917.016                    24155928.188
 118434722.440 7  92286886.253 7  22537366.672                    22537375.270
 117120143.900 7  91262503.707 7  22287223.297                    22287231.703
 119847950.005 7  93388075.46144  22806313.781                    22806324.207
 122280270.717 7  95283307.282 6  23269132.664                    23269143.633
 109215993.217 8  85103507.12846  20783096.461                    20783104.715
 121745211.193 7  94866483.38544  23167358.602                    23167368.988
 127724285.944 6  99525496.38143  24305134.047                    24305143.352
 108967506.403 8  84909832.86446  20735808.516                    20735814.383
 11  8 12  0 21  0.0000000  0 10G10G28G17G12G09G05G04G27G30G02
 111220505.528 8  86665442.40646  21164541.344                    21164549.641
 127040751.048 6  98992858.49442  24175062.852                    24175073.461
 118479439.805 7  92321730.934 7  22545876.625                    22545884.617
 117038426.346 7  91198827.706 7  22271673.242                    22271680.898
 119909847.873 7  93436307.52544  22818092.867                    22818103.152
 122176249.819 7  95202252.195 6  23249338.008                    23249348.773
 109278202.878 8  85151982.16046  20794935.063                    20794942.828
 121799035.017 7  94908423.95744  23177601.086                    23177611.656
 127617920.363 7  99442614.18144  24284892.617                    24284903.008
 108945122.155 8  84892390.61846  20731548.359                    20731554.633
 11  8 12  0 21 30.0000000  0 10G10G28G17G12G09G05G04G27G30G02
 111179418.930 8  86633426.89446  21156723.180                    21156730.969
 127141564.526 6  99071414.23843  24194247.961                    24194257.813
 118524277.409 7  92356669.305 7  22554408.836                    22554416.559
 116956981.956 7  91135364.544 7  22256174.938                    22256182.895
 119972126.061 7  93484835.93544  22829944.672                    22829954.672
 122072333.392 7  95121278.516 6  23229563.227                    23229574.418
 109340703.870 8  85200684.19546  20806828.336                    20806836.504
 121853101.840 7  94950553.86644  23187889.758                    23187900.188
 127511702.012 6  99359846.71043  24264681.070                    24264689.230
 108923090.423 8  84875223.06846  20727356.188                    20727362.023
 11  8 12  0 22  0.0000000  0 10G10G28G17G12G09G05G04G27G30G02
 111138883.514 8  86601840.87446  21149009.352                    21149017.598
 127242581.168 6  99150128.41643  24213469.859                    24213481.047
 118569236.132 7  92391702.070 7  22562964.148                    22562971.980
 116875813.179 7  91072116.149 7  22240729.336                    22240737.195
 120034781.371 7  93533658.18844  22841866.641                    22841877.727
 121968524.611 7  95040388.744 6  23209808.945                    23209819.625
 109403493.560 8  85249611.19146  20818776.773                    20818785.164
 121907409.015 7  94992871.07644  23198223.469                    23198234.496
 127405633.518 6  99277196.04143  24244496.508                    24244505.305
 108901410.340 8  84858329.51646  20723230.484                    20723236.020
 11  8 12  0 22 30.0000000  0 10G10G28G17G12G09G05G04G27G30G02
 111098901.484 8  86570686.05746  21141400.711                    21141408.977
 127343799.043 6  99228999.33043  24232731.070                    24232742.004
 118614316.818 7  92426829.836 7  22571542.758                    22571550.484
 116794922.518 7  91009084.474 7  22225335.594                    22225343.930
 120097810.690 7  93582771.88244  22853861.195                    22853871.531
 121864826.612 7  94959585.246 6  23190075.852                    23190086.215
 109466569.834 8  85298761.50846  20830780.172                    20830788.789
 121961953.979 7  95035373.56544  23208603.703                    23208614.328
 127299717.634 6  99194664.28643  24224340.656                    24224350.082
 108880081.327 8  84841709.52046  20719171.797                    20719177.859
 11  8 12  0 23  0.0000000  0 10G10G28G17G12G09G05G04G27G30G02
 111059474.345 8  86539963.62046  21133898.203                    21133906.207
 127445215.771 6  99308025.16243  24252030.500                    24252041.766
 118659518.551 7  92462051.944 7  22580144.570                    22580152.000
 116714312.593 8  90946271.547 7  22209996.656                    22210005.000
 120161210.029 7  93632173.89944  22865926.273                    22865936.633
 121761241.663 7  94878869.862 6  23170364.727                    23170374.035
 109529929.673 8  85348132.76746  20842836.906                    20842845.582
 122016733.581 7  95078058.87144  23219027.313                    23219038.273
 127193956.468 6  99112253.04642  24204214.797                    24204224.559
 108859102.195 8  84825362.17246  20715179.609                    20715185.422
 11  8 12  0 23 30.0000000  0 10G10G28G17G12G09G05G04G27G30G02
 111020604.541 8  86509675.48046  21126501.813                    21126509.727
 127546829.688 6  99387204.72943  24271366.438                    24271379.066
 118704842.966 7  92497369.644 7  22588769.219                    22588777.535
 116633986.205 7  90883679.563 7  22194710.734                    22194719.262
 120224976.739 7  93681862.18544  22878060.719                    22878070.328
 121657773.318 7  94798245.327 6  23150674.234                    23150684.758
 109593571.360 8  85397723.66046  20854947.820                    20854955.863
 122071745.782 7  95120925.44944  23229496.109                    23229507.035
 127088353.220 6  99029964.97242  24184118.969                    24184129.273
 108838472.914 8  84809287.43346  20711254.141                    20711259.777
 11  8 12  0 24  0.0000000  0 10G10G28G17G12G09G05G04G27G30G02
 110982294.372 8  86479823.41646  21119211.086                    21119219.691
 127648638.943 5  99466536.39542  24290739.547                    24290752.832
 118750291.177 7  92532783.806 7  22597417.531                    22597426.246
 116553945.929 8  90821310.526 7  22179479.813                    22179487.633
 120289107.669 7  93731834.25844  22890264.188                    22890274.617
 121554424.503 7  94717713.928 7  23131007.531                    23131018.195
 109657492.585 8  85447532.37346  20867111.445                    20867119.406
 122126988.104 7  95163971.32344  23240008.594                    23240019.039
 126982910.955 6  98947802.28343  24164053.438                    24164064.801
 108818192.791 8  84793484.76246  20707394.617                    20707400.262
 11  8 12  0 24 30.0000000  0 10G10G28G17G12G09G05G04G27G30G02
 110944545.102 8  86450408.42646  21112027.844                    21112036.332
 127750641.48515  99546018.70652  24310149.859                    24310162.758
 118795862.802 7  92568294.126 7  22606089.750                    22606098.188
 116474194.514 8  90759166.589 7  22164303.648                    22164311.180
 120353599.620 7  93782087.66044  22902536.633                    22902547.008
 121451198.025 7  94637277.871 7  23111364.133                    23111375.086
 109721690.475 8  85497556.67046  20879327.836                    20879335.984
 122182457.313 7  95207194.01844  23250564.609                    23250574.648
 126877631.729 6  98865766.62343  24144020.547                    24144029.934
 108798261.231 8  84777953.69546  20703601.617                    20703607.547
 11  8 12  0 25  0.0000000  0 10G10G28G17G12G09G05G04G27G30G02
 110907359.317 8  86421432.49646  21104951.680                    21104959.918
 127852835.098 6  99625650.08342  24329598.016                    24329609.785
 118841559.231 7  92603901.706 7  22614785.523                    22614793.820
 116394734.505 8  90697249.741 7  22149182.344                    22149190.930
 120418449.524 7  93832619.98744  22914876.883                    22914887.152
 121348097.146 7  94556939.655 6  23091744.570                    23091755.172
 109786163.275 8  85547795.18946  20891596.617                    20891604.922
 122238151.147 7  95250591.72744  23261162.328                    23261172.695
 126772518.826 6  98783860.55443  24124017.906                    24124028.082
 108778677.589 8  84762693.73646  20699875.297                    20699881.148
 11  8 12  0 25 30.0000000  0  9G10G17G12G09G05G04G27G30G02
 110870738.984 8  86392897.18746  21097982.844                    21097991.211
 118887380.646 7  92639606.663 7  22623505.531                    22623513.762
 116315568.298 8  90635561.821 7  22134117.820                    22134126.219
 120483653.830 7  93883428.45844  22927284.547                    22927295.078
 121245124.675 7  94476701.499 6  23072149.883                    23072159.969
 109850908.575 8  85598246.05846  20903917.234                    20903925.781
 122294067.025 7  95294162.42644  23271802.516                    23271813.676
 126667574.745 6  98702086.04344  24104047.734                    24104057.340
 108759440.968 8  84747704.17746  20696214.586                    20696220.352
 11  8 12  0 26  0.0000000  0  9G10G17G12G09G05G04G27G30G02
 110834685.219 8  86364803.35446  21091121.977                    21091130.383
 118933327.336 7  92675409.238 7  22632248.250                    22632256.852
 116236698.111 8  90574104.588 7  22119109.188                    22119117.148
 120549208.889 7  93934510.22944  22939760.461                    22939770.477
 121142283.224 7  94396565.438 6  23052579.398                    23052589.930
 109915923.426 8  85648906.96346  20916289.375                    20916297.383
 122350201.603 7  95337903.58144  23282484.797                    23282495.879
 126562801.688 6  98620444.77843  24084110.188                    24084119.574
 108740550.194 8  84732984.10146  20692619.461                    20692625.422
 11  8 12  0 26 30.0000000  0  9G10G17G12G09G05G04G27G30G02
 110799200.414 8  86337152.87846  21084369.469                    21084378.137
 118979399.705 7  92711309.736 7  22641016.109                    22641024.320
 116158127.006 8  90512880.409 7  22104157.695                    22104165.078
 120615111.794 7  93985863.05144  22952301.250                    22952311.152
 121039576.223 7  94316534.134 6  23033035.352                    23033044.691
 109981205.867 8  85699776.37046  20928712.102                    20928720.293
 122406552.698 6  95381813.41344  23293207.914                    23293218.738
 126458202.881 6  98538939.28343  24064205.188                    24064215.027
 108722005.188 8  84718533.45846  20689090.820                    20689096.379
 11  8 12  0 27  0.0000000  0  9G10G17G12G09G05G04G27G30G02
 110764286.568 8  86309947.30046  21077725.594                    21077734.258
 119025598.844 7  92747309.039 7  22649807.164                    22649815.582
 116079857.467 8  90451891.198 7  22089263.266                    22089271.199
 120681359.280 7  94037484.36244  22964908.484                    22964917.953
 120937006.191 7  94236609.564 6  23013516.086                    23013526.387
 110046753.488 8  85750852.42746  20941185.180                    20941193.395
 122463117.546 7  95425889.85744  23303972.133                    23303983.121
 126353780.950 7  98457571.59344  24044334.992                    24044344.367
 108703804.919 8  84704351.45346  20685627.336                    20685633.121
 11  8 12  0 27 30.0000000  0  9G10G17G12G09G05G04G27G30G02
 110729945.243 8  86283187.84446  21071190.430                    21071198.719
 119071924.732 7  92783407.071 6  22658622.742                    22658630.785
 116001891.823 8  90391138.807 7  22074426.922                    22074434.895
 120747947.716 7  94089371.38144  22977578.773                    22977589.457
 120834575.828 7  94156793.809 6  22994024.328                    22994034.961
 110112563.714 8  85802133.10746  20953708.648                    20953716.781
 122519893.030 7  95470130.39544  23314776.141                    23314787.230
 126249538.317 7  98376343.57544  24024497.648                    24024507.570
 108685948.304 8  84690437.21746  20682229.375                    20682235.074
 11  8 12  0 28  0.0000000  0  9G10G17G12G09G05G04G27G30G02
 110696178.863 8  86256876.40246  21064765.023                    21064773.070
 119118378.978 7  92819605.133 7  22667462.836                    22667470.910
 115924233.041 8  90330625.525 7  22059649.469                    22059656.973
 120814874.601 7  94141522.11244  22990314.828                    22990325.617
 120732289.253 7  94077090.124 6  22974560.094                    22974569.637
 110178634.970 8  85853617.19346  20966281.766                    20966289.629
 122576877.528 6  95514533.82844  23325620.070                    23325630.563
 126145478.682 7  98295258.16644  24004696.102                    24004706.055
 108668435.749 8  84676791.09646  20678896.891                    20678902.215
 11  8 12  0 28 30.0000000  0  9G10G17G12G09G05G04G27G30G02
 110662988.114 8  86231013.50846  21058449.031                    21058457.391
 119164961.200 7  92855902.928 7  22676327.328                    22676335.813
 115846883.217 8  90270352.992 7  22044929.688                    22044937.949
 120882135.628 7  94193933.21744  23003114.422                    23003124.809
 120630148.216 7  93997499.823 6  22955123.367                    22955133.203
 110244964.207 8  85905302.30246  20978903.625                    20978911.828
 122634067.103 7  95559097.04744  23336502.469                    23336513.883
 126041603.681 6  98214316.59043  23984929.563                    23984939.289
 108651265.285 8  84663411.54046  20675629.266                    20675635.059
 11  8 12  0 29  0.0000000  0  9G10G17G12G09G05G04G27G30G02
 110630375.710 8  86205601.26946  21052243.102                    21052251.332
 119211673.579 7  92892302.139 7  22685215.961                    22685224.676
 115769845.848 8  90210323.923 7  22030270.023                    22030277.805
 120949728.577 7  94246602.98344  23015976.703                    23015987.254
 120528156.715 7  93918026.033 7  22935714.758                    22935725.383
 110311549.692 8  85957187.09346  20991574.406                    20991582.617
 122691460.281 7  95603818.93644  23347424.648                    23347435.434
 125937917.264 6  98133522.02843  23965198.164                    23965207.563
 108634437.451 8  84650298.95346  20672427.141                    20672432.875
 11  8 12  0 29 30.0000000  0  9G10G17G12G09G05G04G27G30G02
 110598342.427 8  86180640.28746  21046147.352                    21046155.594
 119258514.296 7  92928801.356 7  22694129.758                    22694138.414
 115693122.108 8  90150539.228 7  22015669.984                    22015677.891
 121017649.112 7  94299528.01344  23028902.234                    23028912.184
 120426316.887 7  93838670.429 7  22916335.008                    22916345.676
 110378388.380 8  86009269.18746  21004293.383                    21004301.547
 122749053.367 6  95648696.54444  23358384.375                    23358395.359
 125834421.048 6  98052875.70343  23945503.688                    23945512.715
 108617950.006 8  84637451.61046  20669289.492                    20669294.902
 11  8 12  0 30  0.0000000  0  9G10G17G12G09G05G04G27G30G02
 110566890.832 8  86156132.58346  21040162.297                    21040170.590
 119305485.397 7  92965402.155 6  22703068.203                    22703076.625
 115616715.736 8  90091001.832 7  22001130.727                    22001138.188
 121085894.756 7  94352706.37144  23041888.781                    23041898.801
 120324632.171 7  93759435.694 7  22896984.797                    22896995.145
 110445478.514 8  86061547.20846  21017060.273                    21017068.316
 122806844.372 7  95693728.41444  23369381.484                    23369392.477
 125731118.605 6  97972380.41443  23925845.242                    23925855.816
 108601803.365 8  84624869.81446  20666217.117                    20666222.848
 11  8 12  0 30 30.0000000  0  9G10G17G12G09G05G04G27G30G02
 110536022.281 8  86132079.19646  21034288.320                    21034296.074
 119352587.380 7  93002104.947 7  22712030.914                    22712039.742
 115540628.839 8  90031713.387 7  21986651.547                    21986659.168
 121154461.526 7  94406134.97144  23054936.406                    23054947.180
 120223105.501 7  93680324.113 7  22877665.148                    22877675.305
 110512817.617 8  86114019.23746  21029874.641                    21029882.758
 122864830.162 7  95738912.06944  23380415.453                    23380427.234
 125628012.241 6  97892037.88443  23906225.273                    23906234.617
 108585996.223 8  84612552.57446  20663209.117                    20663214.844
 11  8 12  0 31  0.0000000  0  9G10G17G12G09G05G04G27G30G02
 110505738.631 8  86108481.57646  21028525.523                    21028533.484
 119399821.157 7  93038910.438 7  22721019.688                    22721027.941
 115464864.616 8  89972676.366 7  21972233.625                    21972241.727
 121223346.446 7  94459811.45244  23068044.875                    23068055.297
 120121740.286 7  93601338.349 7  22858375.781                    22858385.684
 110580403.766 8  86166683.77546  21042735.781                    21042744.121
 122923008.588 7  95784245.79544  23391486.836                    23391498.500
 125525105.301 6  97811850.78842  23886642.250                    23886651.898
 108570528.448 8  84600499.77246  20660265.578                    20660271.395
 11  8 12  0 31 30.0000000  0  9G10G17G12G09G05G04G27G30G02
 110476041.411 8  86085340.92146  21022874.297                    21022882.570
 119447186.752 7  93075818.643 7  22730032.977                    22730041.402
 115389425.280 8  89913892.496 7  21957878.336                    21957886.016
 121292545.874 7  94513733.00144  23081212.578                    23081223.641
 120020538.740 7  93522480.117 7  22839117.680                    22839128.082
 110648234.220 8  86219538.67246  21055643.258                    21055651.578
 122981376.409 7  95829727.12744  23402594.172                    23402605.551
 125422400.044 6  97731820.81042  23867098.102                    23867106.785
 108555398.581 8  84588710.27946  20657386.500                    20657392.422
 11  8 12  0 32  0.0000000  0  9G10G17G12G09G05G04G27G30G02
 110446932.150 8  86062658.41546  21017334.969                    21017343.098
 119494684.606 7  93112829.915 7  22739071.906                    22739080.297
 115314312.902 8  89855363.391 7  21943584.875                    21943592.816
 121362056.365 7  94567896.91944  23094440.813                    23094450.613
 119919504.003 7  93443751.859 6  22819890.867                    22819901.316
 110716306.531 8  86272582.03546  21068596.625                    21068605.348
 123039930.894 7  95875353.88344  23413736.820                    23413748.262
 125319899.129 6  97651950.06343  23847593.055                    23847601.258
 108540605.542 8  84577183.25046  20654571.234                    20654577.402
 11  8 12  0 32 30.0000000  0  9G10G17G12G09G05G04G27G30G02
 110418413.195 8  86040435.88446  21011907.711                    21011915.984
 119542316.241 7  93149945.424 7  22748135.813                    22748144.117
 115239530.885 8  89797091.714 7  21929354.648                    21929362.117
 121431875.434 7  94622301.32444  23107726.594                    23107737.281
 119818639.925 7  93365156.588 7  22800697.336                    22800707.363
 110784619.185 8  86325812.66946  21081596.133                    21081604.684
 123098670.009 7  95921124.55244  23424914.594                    23424926.059
 125217606.294 6  97572241.47143  23828127.250                    23828135.734
 108526149.818 8  84565919.06546  20651820.688                    20651826.230
 11  8 12  0 33  0.0000000  0  9G10G17G12G09G05G04G27G30G02
 110390485.116 8  86018673.77546  21006593.492                    21006601.680
 119590081.119 7  93187164.763 7  22757224.945                    22757233.691
 115165080.845 8  89739078.704 7  21915187.109                    21915194.516
 121501998.723 7  94676942.80844  23121070.633                    23121080.602
 119717948.348 7  93286695.730 7  22781536.141                    22781546.352
 110853169.022 8  86379228.13346  21094641.086                    21094649.465
 123157590.125 7  95967036.22344  23436126.430                    23436138.070
 125115523.302 6  97492696.36743  23808701.211                    23808710.199
 108512029.095 8  84554915.92246  20649133.422                    20649139.086
 11  8 12  0 33 30.0000000  0  9G10G17G12G09G05G04G27G30G02
 110363150.286 8  85997373.93846  21001391.695                    21001400.039
 119637980.714 7  93224489.075 7  22766340.727                    22766348.828
 115090966.234 8  89681327.084 7  21901083.680                    21901090.621
 121572424.047 6  94731819.63144  23134472.594                    23134483.129
 119617433.428 7  93208372.525 7  22762409.023                    22762419.102
 110921954.613 8  86432827.29946  21107730.695                    21107738.938
 123216689.337 6  96013087.45444  23447373.375                    23447384.488
 125013653.799 6  97413317.66343  23789316.078                    23789325.086
 108498244.090 8  84544174.37646  20646510.297                    20646515.680
 11  8 12  0 34  0.0000000  0  9G10G17G12G09G05G04G27G30G02
 110336409.107 8  85976536.68546  20996303.031                    20996311.398
 119686014.810 7  93261918.194 7  22775480.742                    22775489.129
 115017188.852 8  89623838.241 7  21887044.109                    21887051.660
 121643146.768 6  94786928.20544  23147930.523                    23147940.957
 119517097.089 7  93130188.477 7  22743315.828                    22743325.379
 110990972.820 8  86486607.72346  21120864.586                    21120872.488
 123275964.024 6  96059275.43044  23458652.703                    23458664.645
 124911999.565 6  97334106.66044  23769971.883                    23769981.078
 108484792.459 8  84533692.59646  20643950.750                    20643956.094
 11  8 12  0 34 30.0000000  0  9G10G17G12G09G05G04G27G30G02
 110310263.395 8  85956163.43246  20991327.539                    20991335.418
 119734184.401 7  93299452.894 6  22784647.188                    22784655.375
 114943751.689 8  89566614.501 7  21873069.625                    21873077.293
 121714163.938 7  94842266.18544  23161443.938                    23161455.121
 119416942.251 7  93052145.845 7  22724256.555                    22724266.484
 111060221.677 8  86540567.87646  21134042.227                    21134050.051
 123335411.711 6  96105598.18544  23469964.547                    23469976.691
 124810563.922 6  97255065.98144  23750668.961                    23750678.465
 108471673.868 8  84523470.34246  20641454.227                    20641460.059
 11  8 12  0 35  0.0000000  0  9G10G17G12G09G05G04G27G30G02
 110284714.879 8  85936255.53346  20986465.758                    20986474.098
 119782489.894 7  93337093.485 6  22793839.547                    22793847.742
 114870657.039 8  89509657.662 7  21859160.352                    21859167.887
 121785472.252 7  94897831.03344  23175013.969                    23175024.434
 119316972.307 7  92974247.311 7  22705233.039                    22705242.742
 111129698.808 8  86594705.91046  21147263.078                    21147271.387
 123395030.070 7  96152053.96144  23481310.031                    23481321.957
 124709349.556 6  97176197.72144  23731409.055                    23731417.887
 108458887.412 8  84513506.88146  20639021.188                    20639026.535
 11  8 12  0 35 30.0000000  0  9G10G17G12G09G05G04G27G30G02
 110259764.416 8  85916813.66346  20981717.797                    20981725.832
 119830931.885 7  93374840.445 7  22803057.547                    22803066.254
 114797907.323 8  89452969.617 7  21845315.836                    21845324.043
 121857067.884 7  94953619.72644  23188638.578                    23188648.563
 119217189.976 7  92896494.941 7  22686244.891                    22686254.977
 111199401.840 8  86649019.95946  21160527.109                    21160535.488
 123454815.849 7  96198640.17744  23492687.250                    23492699.027
 124608359.123 6  97097503.93744  23712191.000                    23712199.477
 108446431.846 8  84503801.24946  20636650.891                    20636656.129
 11  8 12  0 36  0.0000000  0  9G10G17G12G09G05G04G27G30G02
 110235414.260 8  85897839.55546  20977084.398                    20977092.070
 119879511.501 7  93412694.644 7  22812302.383                    22812310.727
 114725505.659 8  89396552.774 7  21831538.711                    21831546.406
 121928947.966 7  95009630.12944  23202317.000                    23202326.398
 119117598.745 7  92818891.492 7  22667293.250                    22667302.578
 111269328.783 8  86703508.48446  21173833.492                    21173842.281
 123514766.730 6  96245355.03644  23504095.570                    23504107.375
 124507595.801 6  97018987.10543  23693015.664                    23693025.121
 108434306.994 8  84494353.33446  20634343.672                    20634349.363
 11  8 12  0 36 30.0000000  0  9G10G17G12G09G05G04G27G30G02
 110211665.752 8  85879334.25146  20972564.984                    20972572.926
 119928228.999 7  93450656.285 7  22821573.227                    22821581.160
 114653454.605 8  89340409.144 7  21817827.289                    21817835.496
 122001109.575 7  95065859.90244  23216048.797                    23216058.840
 119018201.692 7  92741439.337 7  22648378.398                    22648387.875
 111339477.923 8  86758170.15146  21187182.617                    21187191.023
 123574880.166 7  96292196.52844  23515535.258                    23515545.996
 124407062.694 6  96940649.66643  23673884.523                    23673894.430
 108422512.575 8  84485162.88546  20632098.875                    20632104.969
 11  8 12  0 37  0.0000000  0  9G10G17G12G09G05G04G27G30G02
 110188520.174 8  85861298.77646  20968160.516                    20968168.313
 119977085.256 7  93488726.055 6  22830869.859                    22830878.691
 114581756.686 8  89284540.673 7  21804184.172                    21804191.816
 122073548.891 7  95122306.07344  23229833.492                    23229843.801
 118919001.896 7  92664140.900 7  22629501.117                    22629510.855
 111409846.675 8  86813002.94546  21200573.609                    21200581.313
 123635153.390 6  96339162.56943  23527004.125                    23527016.145
 124306762.656 6  96862493.82443  23654798.523                    23654807.629
 108411047.254 8  84476228.87346  20629917.367                    20629922.988
 11  8 12  0 37 30.0000000  0  9G10G17G12G09G05G04G27G30G02
 110165978.468 8  85843733.84246  20963870.750                    20963878.914
 120026080.542 7  93526904.172 7  22840193.578                    22840202.137
 114510414.113 8  89228949.102 7  21790607.555                    21790615.875
 122146262.296 7  95178965.78644  23243670.500                    23243680.590
 118820001.708 7  92586998.002 7  22610662.227                    22610671.609
 111480432.546 8  86868004.92046  21214005.633                    21214013.457
 123695583.178 7  96386250.64343  23538503.789                    23538515.516
 124206697.971 6  96784521.37743  23635757.008                    23635766.051
 108399909.730 8  84467550.28946  20627797.813                    20627803.223
 11  8 12  0 38  0.0000000  0  9G10G17G12G09G05G04G27G30G02
 110144041.553 8  85826640.16946  20959696.234                    20959704.168
 120075215.038 7  93565190.750 7  22849543.977                    22849552.270
 114439429.266 8  89173636.290 7  21777099.578                    21777107.273
 122219246.295 7  95235836.36544  23257558.266                    23257569.980
 118721204.217 7  92510013.060 7  22591861.414                    22591871.336
 111551233.015 8  86923174.11146  21227478.500                    21227486.465
 123756166.687 7  96433458.45544  23550033.070                    23550044.004
 124106871.320 6  96706734.40143  23616760.211                    23616768.641
 108389098.927 8  84459126.28146  20625740.320                    20625745.938
 11  8 12  0 38 30.0000000  0  9G10G17G12G09G05G04G27G30G02
 110122711.097 8  85810019.06246  20955637.125                    20955645.219
 120124489.435 7  93603586.364 7  22858919.563                    22858928.801
 114368804.722 8  89118604.206 7  21763660.258                    21763667.863
 122292497.756 7  95292915.31244  23271497.672                    23271509.230
 118622612.289 7  92433188.276 7  22573099.797                    22573109.641
 111622245.803 8  86978508.73346  21240991.672                    21240999.773
 123816901.060 7  96480783.85744  23561590.867                    23561601.703
 124007285.562 6  96629135.15443  23597809.836                    23597818.996
 108378613.845 8  84450956.08946  20623745.516                    20623751.195
 11  8 12  0 39  0.0000000  0 10G10G25G17G12G09G05G04G27G30G02
 110101988.674 8  85793871.75746  20951694.383                    20951702.500
 129524517.64816 100928263.25616  24647706.867                    24647718.250
 120173904.827 7  93642091.845 7  22868323.367                    22868331.910
 114298543.463 8  89063855.216 7  21750290.211                    21750298.102
 122366013.082 7  95350199.88744  23285487.750                    23285498.941
 118524229.290 7  92356526.305 7  22554378.328                    22554388.047
 111693469.377 8  87034007.60746  21254545.141                    21254553.258
 123877784.027 7  96528225.00044  23573176.758                    23573187.695
 123907944.012 7  96551726.16843  23578906.195                    23578915.070
 108368454.270 8  84443039.53446  20621811.781                    20621817.375
 11  8 12  0 39 30.0000000  0 10G10G25G17G12G09G05G04G27G30G02
 110081876.258 8  85778199.78046  20947866.867                    20947874.977
 129421266.774 7 100847808.048 6  24628058.547                    24628070.203
 120223462.831 7  93680708.468 7  22877754.094                    22877762.676
 114228648.353 8  89009391.524 7  21736989.344                    21736997.332
 122439790.074 7  95407688.36144  23299527.133                    23299538.613
 118426059.207 7  92280030.246 7  22535697.086                    22535706.777
 111764902.092 8  87089669.45846  21268138.727                    21268146.195
 123938813.870 7  96575780.63544  23584790.164                    23584801.004
 123808850.418 7  96474510.40043  23560049.023                    23560057.699
 108358620.051 8  84435376.51946  20619940.781                    20619946.371
 11  8 12  0 40  0.0000000  0 10G10G25G17G12G09G05G04G27G30G02
 110062373.912 8  85763003.17546  20944155.313                    20944163.551
 129318123.171 7 100767436.426 6  24608431.289                    24608443.160
 120273162.756 7  93719435.690 7  22887211.383                    22887220.625
 114159121.414 8  88955214.728 7  21723758.695                    21723766.336
 122513824.539 7  95465377.47844  23313616.188                    23313626.215
 118328104.041 7  92203701.624 7  22517056.898                    22517066.352
 111836541.359 8  87145492.23746  21281770.828                    21281778.953
 123999986.900 7  96623447.83844  23596430.805                    23596442.246
 123710006.708 7  96397489.34344  23541240.031                    23541248.336
 108349109.708 8  84427965.88646  20618131.031                    20618136.582
 11  8 12  0 40 30.0000000  0 10G10G25G17G12G09G05G04G27G30G02
 110043482.718 8  85748282.80146  20940560.945                    20940568.730
 129215089.019 7 100687150.069 6  24588824.227                    24588835.797
 120323005.240 7  93758273.981 7  22896696.461                    22896705.145
 114089964.947 8  88901326.596 7  21710598.625                    21710606.289
 122588112.575 7  95523264.16544  23327752.656                    23327763.160
 118230366.422 7  92127542.559 7  22498458.188                    22498467.445
 111908384.265 8  87201473.70246  21295441.875                    21295450.344
 124061300.141 7  96671224.25644  23608098.367                    23608109.891
 123611415.370 7  96320664.94143  23522478.836                    23522486.949
 108339921.752 8  84420806.45546  20616382.977                    20616388.230
 11  8 12  0 41  0.0000000  0 10G10G25G17G12G09G05G04G27G30G02
 110025203.554 8  85734039.33046  20937082.133                    20937089.863
 129112166.461 7 100606950.712 6  24569239.102                    24569250.496
 120372990.304 7  93797223.397 6  22906208.664                    22906216.566
 114021181.140 8  88847728.845 7  21697509.672                    21697517.223
 122662650.547 7  95581345.60944  23341936.344                    23341946.898
 118132849.107 7  92051555.123 7  22479900.875                    22479910.660
 111980428.283 8  87257611.87446  21309151.680                    21309160.098
 124122750.328 6  96719107.37143  23619791.797                    23619803.715
 123513078.869 7  96244039.10743  23503765.766                    23503774.375
 108331054.594 8  84413896.98846  20614695.047                    20614700.895
 11  8 12  0 41 30.0000000  0 10G10G25G17G12G09G05G04G27G30G02
 110007537.956 8  85720273.95846  20933720.414                    20933728.848
 129009358.230 6 100526840.438 6  24549675.391                    24549686.137
 120423118.870 7  93836284.605 6  22915747.313                    22915755.770
 113952772.772 8  88794423.645 7  21684492.078                    21684499.191
 122737435.617 7  95639619.58644  23356167.164                    23356177.656
 118035555.365 7  91975741.915 7  22461385.953                    22461395.531
 112052671.547 8  87313905.31046  21322899.055                    21322907.422
 124184335.023 6  96767095.33543  23631511.156                    23631523.105
 123415000.379 7  96167614.36544  23485102.078                    23485110.930
 108322507.837 8  84407237.18746  20613068.586                    20613074.469
 11  8 12  0 42  0.0000000  0 10G10G25G17G12G09G05G04G27G30G02
 109990486.682 8  85706987.27846  20930475.570                    20930483.660
 128906666.883 6 100446821.277 5  24530133.242                    24530144.625
 120473391.587 7  93875458.142 6  22925313.531                    22925322.289
 113884742.286 8  88741412.885 7  21671546.352                    21671553.844
 122812464.058 6  95698083.20244  23370445.977                    23370455.797
 117938488.276 7  91900105.312 7  22442915.211                    22442924.965
 112125111.910 8  87370352.32346  21336684.203                    21336692.535
 124246051.583 7  96815186.05444  23643255.789                    23643267.391
 123317182.795 7  96091392.90544  23466487.508                    23466496.551
 108314280.526 8  84400826.30846  20611502.953                    20611508.684
 11  8 12  0 42 30.0000000  0 10G10G25G17G12G09G05G04G27G30G02
 109974050.929 8  85694180.23146  20927348.258                    20927356.125
 128804094.799 6 100366895.057 5  24510614.258                    24510625.613
 120523809.007 7  93914744.433 6  22934908.438                    22934916.434
 113817092.074 8  88688698.457 7  21658672.727                    21658680.691
 122887732.278 6  95756733.65444  23384768.531                    23384779.125
 117841650.683 7  91824647.542 7  22424487.438                    22424497.137
 112197747.215 8  87426951.23446  21350506.078                    21350514.496
 124307897.362 7  96863377.43643  23655024.750                    23655036.391
 123219628.955 7  96015376.95444  23447924.156                    23447932.875
 108306371.553 8  84394663.49046  20609997.828                    20610003.891
 11  8 12  0 43  0.0000000  0 10G10G25G17G12G09G05G04G27G30G02
 109958231.813 8  85681853.66746  20924337.445                    20924345.668
 128701644.731 6 100287063.931 5  24491117.867                    24491129.922
 120574371.852 7  93954144.026 6  22944530.031                    22944538.766
 113749824.828 8  88636282.452 7  21645872.078                    21645879.672
 122963237.573 7  95815568.84344  23399136.586                    23399147.273
 117745045.685 7  91749371.019 7  22406103.969                    22406113.531
 112270575.539 8  87483700.56746  21364365.063                    21364373.383
 124369869.591 6  96911667.37444  23666817.367                    23666829.254
 123122341.776 6  95939568.79243  23429410.320                    23429420.055
 108298780.553 8  84388748.43746  20608553.523                    20608559.168
 11  8 12  0 43 30.0000000  0 10G10G25G17G12G09G05G04G27G30G02
 109943030.164 8  85670008.25546  20921445.164                    20921452.852
 128599319.111 6 100207329.778 6  24471646.430                    24471658.457
 120625080.514 7  93993657.245 6  22954179.258                    22954187.738
 113682943.275 8  88584166.958 7  21633144.734                    21633152.527
 123038976.300 7  95874585.94144  23413548.914                    23413560.285
 117648676.151 7  91674277.968 7  22387765.492                    22387775.039
 112343594.666 8  87540598.57745  21378259.602                    21378268.227
 124431965.517 6  96960053.70643  23678633.703                    23678645.430
 123025324.157 6  95863970.67643  23410948.734                    23410958.367
 108291506.217 8  84383080.14046  20607169.469                    20607174.805
 11  8 12  0 44  0.0000000  0 10G10G25G17G12G09G05G04G27G30G02
 109928446.772 8  85658644.59846  20918670.141                    20918677.914
 128497120.536 6 100127694.638 6  24452198.516                    24452210.813
 120675935.656 7  94033284.603 6  22963857.391                    22963865.285
 113616449.563 8  88532353.713 7  21620491.414                    21620499.375
 123114944.733 6  95933782.00844  23428005.156                    23428016.605
 117552545.196 7  91599370.830 7  22369472.055                    22369481.414
 112416802.202 8  87597643.40145  21392191.055                    21392199.379
 124494182.269 6  97008534.18943  23690473.195                    23690485.008
 122928578.891 7  95788584.78544  23392538.625                    23392547.258
 108284547.579 8  84377657.83246  20605845.109                    20605850.555
 11  8 12  0 44 30.0000000  0 10G10G25G17G12G09G05G04G27G30G02
 109914482.570 8  85647763.41646  20916012.641                    20916020.520
 128395051.145 6 100048160.152 6  24432775.563                    24432787.598
 120726937.640 7  94073026.375 7  22973563.063                    22973571.063
 113550346.138 8  88480844.577 7  21607912.984                    21607920.363
 123191139.351 7  95993154.32544  23442504.961                    23442516.184
 117456655.608 7  91524651.781 7  22351224.953                    22351234.914
 112490195.893 8  87654833.28446  21406157.070                    21406165.555
 124556517.005 6  97057106.59443  23702335.852                    23702347.410
 122832108.688 6  95713413.25844  23374181.063                    23374190.395
 108277903.347 8  84372480.50346  20604580.781                    20604586.258
 11  8 12  0 45  0.0000000  0 10G10G25G17G12G09G05G04G27G30G02
 109901138.533 8  85637365.48546  20913473.305                    20913481.188
 128293113.667 6  99968728.510 6  24413377.328                    24413389.750
 120778087.419 7  94112883.320 6  22983296.367                    22983304.199
 113484635.037 8  88429641.152 7  21595408.008                    21595415.844
 123267556.924 7  96052700.37543  23457046.609                    23457057.418
 117361010.331 7  91450123.085 7  22333023.148                    22333033.492
 112563773.709 8  87712166.63645  21420158.672                    21420167.074
 124618966.982 6  97105768.79443  23714218.586                    23714231.598
 122735916.430 6  95638458.25244  23355876.695                    23355885.387
 108271572.794 8  84367547.61346  20603375.891                    20603381.992
 11  8 12  0 45 30.0000000  0 10G10G25G17G12G09G05G04G27G30G02
 109888415.769 8  85627451.66046  20911052.297                    20911060.391
 128191310.727 7  99889401.656 6  24394004.859                    24394016.906
 120829385.328 7  94152855.673 7  22993057.438                    22993066.211
 113419319.273 8  88378745.782 7  21582979.164                    21582986.371
 123344194.106 7  96112417.57243  23471629.984                    23471640.973
 117265612.589 7  91375787.281 7  22314870.602                    22314880.262
 112637533.925 8  87769642.12045  21434194.852                    21434203.215
 124681529.639 6  97154518.77843  23726124.508                    23726136.586
 122640005.247 7  95563722.32144  23337625.063                    23337634.055
 108265555.299 8  84362858.66646  20602231.156                    20602236.738
 11  8 12  0 46  0.0000000  0 10G10G25G17G12G09G05G04G27G30G02
 109876314.748 8  85618022.29546  20908749.508                    20908757.008
 128089644.524 7  99810181.356 6  24374658.563                    24374670.328
 120880831.829 7  94192943.806 7  23002847.500                    23002856.242
 113354400.996 8  88328160.135 7  21570625.797                    21570633.160
 123421047.076 7  96172302.91044  23486255.852                    23486265.844
 117170465.029 7  91301646.421 7  22296764.219                    22296774.156
 112711473.590 8  87827257.43345  21448264.781                    21448273.168
 124744201.802 6  97203354.04343  23738051.016                    23738063.512
 122544377.530 7  95489207.24744  23319427.563                    23319436.777
 108259848.864 8  84358412.10946  20601144.953                    20601150.758
 11  8 12  0 46 30.0000000  0 10G10G25G17G12G09G05G04G27G30G02
 109864836.892 8  85609078.53646  20906565.555                    20906573.590
 127988118.242 7  99731070.042 6  24355339.008                    24355350.441
 120932428.146 7  94233148.696 6  23012666.250                    23012674.520
 113289883.057 8  88277886.454 7  21558347.969                    21558355.742
 123498113.206 7  96232354.35744  23500920.734                    23500931.742
 117075570.974 7  91227703.098 7  22278706.406                    22278716.199
 112785591.444 8  87885011.59645  21462369.125                    21462377.531
 124806981.251 6  97252272.93944  23749997.602                    23750009.852
 122449036.797 7  95414915.82143  23301284.688                    23301293.992
 108254453.959 8  84354208.29946  20600118.531                    20600124.535
 11  8 12  0 47  0.0000000  0 10G10G25G17G12G09G05G04G27G30G02
 109853982.453 8  85600620.53846  20904499.633                    20904507.824
 127886733.904 7  99652069.337 6  24336046.281                    24336057.617
 120984174.143 7  94273470.211 6  23022512.641                    23022521.551
 113225767.606 8  88227926.394 7  21546147.148                    21546154.824
 123575388.580 7  96292568.84344  23515626.023                    23515636.656
 116980933.260 7  91153959.529 7  22260697.633                    22260706.895
 112859884.986 8  87942902.65445  21476506.969                    21476515.078
 124869864.831 6  97301272.95944  23761964.563                    23761976.281
 122353985.371 7  95340849.84644  23283197.266                    23283206.180
 108249368.667 8  84350245.73746  20599151.008                    20599156.754
 11  8 12  0 47 30.0000000  0 10G10G25G17G12G09G05G04G27G30G02
 109843752.066 8  85592648.83146  20902553.047                    20902560.930
 127785494.169 7  99573181.272 6  24316781.086                    24316791.949
 121036070.631 7  94313909.008 6  23032388.313                    23032397.352
 113162057.204 8  88178281.958 7  21534023.758                    21534031.172
 123652869.716 6  96352943.66044  23530369.344                    23530381.313
 116886554.650 7  91080417.837 7  22242737.734                    22242747.516
 112934352.029 8  88000928.91845  21490677.461                    21490685.457
 124932849.864 7  97350352.05143  23773950.422                    23773962.137
 122259226.237 7  95267011.61244  23265165.375                    23265173.930
 108244591.946 8  84346523.61846  20598241.594                    20598247.043
 11  8 12  0 48  0.0000000  0 10G10G25G17G12G09G05G04G27G30G02
 109834146.533 8  85585164.01546  20900724.883                    20900733.086
 127684401.552 7  99494407.837 6  24297543.508                    24297554.590
 121088117.952 7  94354465.334 6  23042292.656                    23042300.953
 113098754.153 8  88128954.945 7  21521977.063                    21521985.129
 123730553.252 6  96413476.18144  23545152.492                    23545164.285
 116792438.038 7  91007080.311 7  22224828.047                    22224837.434
 113008990.595 8  88059088.82345  21504880.938                    21504888.918
 124995933.428 7  97399507.85943  23785954.500                    23785966.145
 122164762.145 7  95193403.31444  23247188.758                    23247197.707
 108240122.819 8  84343041.18046  20597391.547                    20597396.809
 11  8 12  0 48 30.0000000  0 10G10G25G17G12G09G05G04G27G30G02
 109825166.696 8  85578166.75946  20899016.352                    20899024.266
 127583458.679 7  99415751.069 6  24278334.469                    24278345.520
 121140316.730 7  94395139.674 6  23052225.859                    23052234.102
 113035860.745 8  88079947.116 7  21510009.359                    21510016.723
 123808435.850 6  96474163.82644  23559973.438                    23559984.660
 116698586.555 7  90933949.367 7  22206968.813                    22206978.141
 113083798.523 8  88117380.69545  21519116.125                    21519124.422
 125059113.271 7  97448738.83543  23797977.578                    23797989.676
 122070596.161 7  95120027.29044  23229269.477                    23229278.512
 108235960.406 8  84339797.75046  20596599.445                    20596604.961
 11  8 12  0 49  0.0000000  0 10G10G25G17G12G09G05G04G27G30G02
 109816813.338 8  85571657.67346  20897426.867                    20897434.543
 127482668.204 6  99337213.060 6  24259154.516                    24259165.992
 121192667.904 7  94435932.751 6  23062187.633                    23062196.750
 112973379.677 7  88031260.584 7  21498119.477                    21498126.871
 123886514.286 6  96535004.03544  23574831.016                    23574842.059
 116605003.279 7  90861027.435 7  22189160.156                    22189169.910
 113158773.876 8  88175803.03545  21533383.508                    21533391.770
 125122386.387 7  97498042.53243  23810018.008                    23810029.801
 121976731.036 7  95046885.72944  23211407.797                    23211416.512
 108232103.783 8  84336792.59146  20595865.211                    20595870.895
 11  8 12  0 49 30.0000000  0 10G10G25G17G12G09G05G04G27G30G02
 109809086.997 8  85565637.17446  20895956.578                    20895964.348
 127382032.604 6  99258795.742 6  24240004.898                    24240015.434
 121245171.682 7  94476844.769 6  23072179.281                    23072187.879
 112911313.189 8  87982897.098 7  21486308.664                    21486315.730
 123964785.002 7  96595994.11844  23589725.375                    23589736.840
 116511691.024 7  90788316.688 7  22171403.508                    22171412.703
 113233914.458 8  88234354.12045  21547682.352                    21547690.758
 125185749.945 6  97547416.64143  23822075.719                    23822087.395
 121883169.634 6  94973980.84044  23193603.141                    23193612.250
 108228551.776 8  84334024.82246  20595189.375                    20595194.996
 11  8 12  0 50  0.0000000  0 10G10G25G17G12G09G05G04G27G30G02
 109801988.196 8  85560105.66046  20894605.688                    20894613.426
 127281554.493 6  99180501.147 6  24220884.094                    24220894.590
 121297828.676 7  94517876.157 6  23082199.289                    23082207.918
 112849663.585 7  87934858.459 7  21474577.242                    21474584.504
 124043244.537 6  96657131.33244  23604656.641                    23604666.926
 116418652.644 7  90715819.345 7  22153698.914                    22153708.344
 113309218.152 7  88293032.30945  21562011.805                    21562020.523
 125249201.319 6  97596859.13143  23834150.578                    23834162.289
 121789914.820 7  94901314.80944  23175857.680                    23175866.457
 108225303.329 8  84331493.59046  20594571.297                    20594576.770
 11  8 12  0 50 30.0000000  0 10G10G25G17G12G09G05G04G27G30G02
 109795517.175 8  85555063.32946  20893374.266                    20893381.852
 127181236.136 6  99102331.010 6  24201794.063                    24201805.031
 121350639.263 7  94559027.238 6  23092248.883                    23092257.375
 112788432.935 7  87887146.268 7  21462925.266                    21462932.809
 124121889.126 7  96718412.76244  23619621.773                    23619632.582
 116325891.200 7  90643537.794 7  22136046.813                    22136056.113
 113384682.733 8  88351835.86145  21576372.398                    21576380.582
 125312737.273 6  97646367.56243  23846240.555                    23846253.547
 121696968.976 6  94828889.57544  23158171.211                    23158179.566
 108222357.041 8  84329197.78246  20594010.281                    20594015.980
 11  8 12  0 51  0.0000000  0 10G10G25G17G12G09G05G04G27G30G02
 109789675.040 8  85550511.03446  20892262.477                    20892270.188
 127081080.609 7  99024287.746 6  24182735.055                    24182746.238
 121403604.302 7  94600298.678 6  23102327.344                    23102336.648
 112727624.044 7  87839762.727 7  21451353.250                    21451361.223
 124200715.792 7  96779836.05244  23634621.922                    23634633.355
 116233409.126 7  90571473.948 7  22118448.094                    22118457.141
 113460306.445 8  88410763.39445  21590763.188                    21590771.496
 125376355.417 6  97695940.02343  23858347.242                    23858359.359
 121604335.509 6  94756707.74044  23140543.297                    23140552.406
 108219712.392 8  84327137.02146  20593507.352                    20593513.016
 11  8 12  0 51 30.0000000  0 10G10G25G17G12G09G05G04G27G30G02
 109784461.849 8  85546448.83146  20891270.203                    20891278.480
 126981090.066 7  98946373.009 6  24163707.414                    24163718.035
 121456724.132 7  94641690.716 6  23112436.133                    23112444.945
 112667238.934 7  87792709.405 7  21439862.828                    21439870.305
 124279721.086 7  96841398.53944  23649656.398                    23649667.863
 116141209.632 7  90499630.283 7  22100902.625                    22100911.953
 113536086.924 8  88469813.08845  21605184.289                    21605192.305
 125440052.732 6  97745574.17343  23870468.297                    23870480.184
 121512016.883 7  94684771.20944  23122975.188                    23122984.477
 108217367.843 8  84325310.11946  20593060.773                    20593066.316
 11  8 12  0 52  0.0000000  0 10G10G25G17G12G09G05G04G27G30G02
 109779878.479 8  85542877.39646  20890398.445                    20890406.098
 126881267.281 7  98868589.030 6  24144711.977                    24144722.266
 121509999.056 7  94683203.627 7  23122573.883                    23122583.242
 112607280.107 7  87745988.247 7  21428452.750                    21428460.402
 124358901.341 6  96903097.32144  23664723.133                    23664735.895
 116049295.852 7  90428009.250 7  22083412.164                    22083421.070
 113612022.137 8  88528983.35245  21619634.078                    21619642.016
 125503826.643 6  97795268.00643  23882603.977                    23882616.324
 121420016.008 7  94613082.27844  23105468.406                    23105477.301
 108215322.502 8  84323716.35146  20592672.172                    20592677.430
 11  8 12  0 52 30.0000000  0 10G10G25G17G12G09G05G04G27G30G02
 109775925.128 8  85539796.88246  20889645.938                    20889653.570
 126781614.784 7  98790937.712 6  24125748.313                    24125759.285
 121563429.562 7  94724837.765 6  23132741.617                    23132750.613
 112547749.874 7  87699601.073 7  21417124.328                    21417132.180
 124438253.181 7  96964929.81244  23679823.625                    23679835.992
 115957670.382 7  90356612.883 7  22065976.180                    22065985.270
 113688110.357 8  88588272.85545  21634112.953                    21634121.543
 125567674.375 6  97845019.37043  23894754.172                    23894766.563
 121328335.690 7  94541643.10444  23088021.484                    23088030.793
 108213575.248 8  84322354.87946  20592339.516                    20592344.563
 11  8 12  0 53  0.0000000  0 10G10G25G17G12G09G05G04G27G30G02
 109772602.500 8  85537207.84346  20889013.500                    20889021.465
 126682135.500 7  98713421.401 6  24106817.914                    24106829.199
 121617016.823 7  94766594.048 6  23142938.781                    23142948.125
 112488650.616 8  87653549.709 7  21405878.695                    21405885.773
 124517773.559 6  97026893.58644  23694956.852                    23694968.328
 115866336.378 7  90285443.619 7  22048596.352                    22048604.941
 113764349.607 8  88647680.04045  21648620.914                    21648629.262
 125631593.528 6  97894826.38843  23906916.938                    23906929.664
 121236979.038 7  94470456.12544  23070637.516                    23070645.648
 108212125.619 8  84321225.31846  20592063.391                    20592069.422
 11  8 12  0 53 30.0000000  0 10G10G25G17G12G09G05G04G27G30G02
 109769910.414 8  85535110.14246  20888500.953                    20888508.922
 126582831.694 7  98636041.805 6  24087921.609                    24087932.563
 121670761.130 7  94808472.711 6  23153166.523                    23153175.352
 112429984.501 8  87607835.874 7  21394714.695                    21394722.070
 124597458.725 6  97088985.77244  23710120.289                    23710131.922
 115775296.650 7  90214503.665 7  22031271.625                    22031280.676
 113840737.520 8  88707203.06045  21663157.406                    21663165.375
 125695580.901 6  97944686.51743  23919093.320                    23919105.887
 121145948.649 7  94399523.36744  23053314.383                    23053323.973
 108210971.818 8  84320326.27146  20591843.875                    20591849.621
 11  8 12  0 54  0.0000000  0 10G10G25G17G12G09G05G04G27G30G02
 109767849.553 8  85533504.29546  20888109.117                    20888117.020
 126483706.071 7  98558801.051 6  24069058.539                    24069069.375
 121724662.993 7  94850474.154 6  23163423.211                    23163432.469
 112371753.932 7  87562461.432 7  21383633.773                    21383641.508
 124677305.423 6  97151203.85644  23725314.883                    23725326.387
 115684553.967 7  90143795.159 7  22014003.734                    22014012.996
 113917272.225 8  88766840.47345  21677721.250                    21677729.707
 125759633.769 6  97994597.72343  23931283.070                    23931295.387
 121055247.372 6  94328847.06044  23036054.344                    23036063.762
 108210113.008 8  84319657.08146  20591680.445                    20591685.730
 11  8 12  0 54 30.0000000  0 10G10G25G17G12G09G05G04G27G30G02
 109766420.827 8  85532391.02846  20887837.063                    20887844.984
 126384761.521 7  98481701.425 6  24050229.680                    24050240.980
 121778722.913 7  94892598.731 6  23173711.109                    23173719.574
 112313961.685 7  87517428.537 7  21372636.242                    21372643.383
 124757310.627 6  97213545.46944  23740539.148                    23740550.746
 115594111.168 7  90073320.341 7  21996793.375                    21996801.930
 113993951.884 8  88826590.82845  21692312.578                    21692320.922
 125823749.795 6  98044558.14543  23943483.977                    23943496.527
 120964878.453 7  94258429.70944  23018858.242                    23018866.961
 108209548.439 8  84319217.17446  20591573.109                    20591578.727
 11  8 12  0 55  0.0000000  0 10G10G25G17G12G09G05G04G27G30G02
 109765623.410 8  85531769.68446  20887685.328                    20887693.035
 126286000.131 7  98404744.525 6  24031436.328                    24031447.574
 121832941.030 7  94934846.597 6  23184027.844                    23184036.492
 112256609.001 7  87472738.170 7  21361722.313                    21361730.047
 124837470.227 7  97276007.41444  23755794.016                    23755804.961
 115503971.230 7  90003081.502 7  21979640.000                    21979648.836
 114070774.363 8  88886452.47945  21706931.508                    21706940.039
 125887925.544 6  98094565.06444  23955696.141                    23955708.977
 120874843.966 7  94188272.97944  23001725.359                    23001733.805
 108209276.411 8  84319005.22346  20591521.672                    20591526.742
 11  8 12  0 55 30.0000000  0 10G10G25G17G12G09G05G04G27G30G02
 109765458.155 8  85531640.93246  20887653.664                    20887661.871
 126187424.866 7  98327932.692 6  24012677.180                    24012689.289
 121887318.189 7  94977218.412 6  23194375.773                    23194384.523
 112199698.793 7  87428392.573 7  21350893.031                    21350900.270
 124917781.226 7  97338587.32843  23771075.492                    23771087.055
 115414137.232 7  89933081.076 7  21962545.273                    21962553.824
 114147737.452 8  88946423.69545  21721577.367                    21721585.359
 125952158.829 6  98144616.80844  23967919.945                    23967932.543
 120785147.236 7  94118379.42643  22984655.961                    22984664.754
 108209296.044 8  84319020.53446  20591524.898                    20591530.430
 11  8 12  0 56  0.0000000  0 10G10G25G17G12G09G05G04G27G30G02
 109765925.103 8  85532004.80846  20887742.664                    20887750.625
 126089038.252 6  98251267.865 6  23993955.227                    23993966.902
 121941854.872 7  95019714.517 6  23204753.867                    23204762.168
 112143233.310 7  87384393.544 7  21340148.055                    21340155.367
 124998240.107 7  97401282.49544  23786386.258                    23786398.176
 115324611.721 7  89863321.016 7  21945508.898                    21945517.582
 114224839.551 8  89006503.23045  21736249.328                    21736257.910
 126016446.569 6  98194710.98044  23980153.250                    23980166.191
 120695790.879 7  94048751.11544  22967652.094                    22967661.043
 108209606.257 8  84319262.27846  20591584.047                    20591589.734
 11  8 12  0 56 30.0000000  0 10G10G25G17G12G09G05G04G27G30G02
 109767024.933 7  85532861.84146  20887951.859                    20887959.906
 125990843.329 6  98174752.443 6  23975269.445                    23975280.527
 121996552.035 7  95062335.666 6  23215162.063                    23215170.703
 112087215.048 7  87340742.975 7  21329487.742                    21329495.391
 125078843.637 6  97464090.29143  23801724.758                    23801736.172
 115235398.268 7  89793804.122 7  21928532.336                    21928540.863
 114302078.987 8  89066689.78945  21750947.648                    21750955.797
 126080786.499 6  98244845.81143  23992396.211                    23992409.875
 120606778.155 6  93979390.57244  22950713.625                    22950722.242
 108210206.549 8  84319730.04746  20591698.320                    20591703.875
 11  8 12  0 57  0.0000000  0 10G10G25G17G12G09G05G04G27G30G02
 109768757.546 8  85534211.94746  20888282.023                    20888290.086
 125892842.214 7  98098388.009 6  23956619.945                    23956631.563
 122051409.723 7  95105081.914 6  23225601.383                    23225609.766
 112031645.829 8  87297442.315 7  21318913.422                    21318920.988
 125159588.028 7  97527007.88444  23817090.461                    23817102.203
 115146498.992 7  89724532.037 7  21911615.211                    21911624.043
 114379453.254 8  89126981.39445  21765671.516                    21765679.871
 126145175.292 6  98295018.72043  24004648.930                    24004662.969
 120518111.408 7  93910299.64044  22933840.875                    22933849.707
 108211094.850 8  84320422.24346  20591867.313                    20591873.094
 11  8 12  0 57 30.0000000  0 10G10G25G17G12G09G05G04G27G30G02
 109771123.183 8  85536055.32346  20888731.852                    20888739.922
 125795037.668 7  98022176.767 6  23938008.445                    23938019.844
 122106428.082 7  95147953.357 6  23236071.578                    23236079.684
 111976527.671 8  87254493.133 7  21308424.539                    21308431.770
 125240470.282 7  97590032.88344  23832481.906                    23832493.762
 115057916.876 7  89655507.100 7  21894758.383                    21894767.383
 114456960.342 8  89187376.52045  21780420.820                    21780428.691
 126209610.393 6  98345227.68343  24016911.359                    24016924.227
 120429793.519 6  93841480.53644  22917034.969                    22917043.273
 108212270.600 8  84321338.42146  20592091.047                    20592096.441
 11  8 12  0 58  0.0000000  0 10G10G25G17G12G09G05G04G27G30G02
 109774121.669 8  85538391.82046  20889302.492                    20889310.391
 125697432.222 7  97946120.671 6  23919434.844                    23919445.949
 122161607.971 7  95190950.630 6  23246571.734                    23246579.832
 111921862.944 8  87211897.264 7  21298022.063                    21298029.480
 125321486.892 7  97653162.63244  23847898.500                    23847910.461
 114969654.678 7  89586731.445 7  21877962.484                    21877971.328
 114534598.340 8  89247873.65045  21795194.391                    21795202.543
 126274089.170 6  98395470.69443  24029181.391                    24029194.371
 120341827.230 6  93772935.44144  22900295.008                    22900303.820
 108213732.317 8  84322477.42946  20592369.164                    20592374.441
 11  8 12  0 58 30.0000000  0 10G10G25G17G12G09G05G04G27G30G02
 109777753.197 8  85541221.61246  20889993.688                    20890001.598
 125600028.499 7  97870221.759 6  23900899.648                    23900910.590
 122216949.790 7  95234074.093 6  23257102.406                    23257111.777
 111867654.094 8  87169656.607 7  21287706.336                    21287713.660
 125402634.278 7  97716394.24044  23863341.273                    23863352.094
 114881715.349 7  89518207.370 7  21861228.156                    21861237.258
 114612365.411 8  89308471.35545  21809993.055                    21810001.445
 126338608.494 6  98445745.33243  24041460.023                    24041471.801
 120254215.290 7  93704666.46544  22883623.078                    22883631.977
 108215478.879 8  84323838.38946  20592701.414                    20592707.152
 11  8 12  0 59  0.0000000  0 10G10G25G17G12G09G05G04G27G30G02
 109782017.875 7  85544544.76646  20890804.945                    20890812.980
 125502829.296 7  97794482.191 6  23882403.500                    23882414.145
 122272454.170 7  95277324.246 6  23267664.953                    23267673.609
 111813902.955 8  87127772.611 7  21277478.148                    21277485.336
 125483909.520 7  97779725.46544  23878807.352                    23878819.164
 114794101.710 7  89449937.090 7  21844555.445                    21844564.383
 114690259.662 8  89369168.16145  21824815.469                    21824824.340
 126403166.024 6  98496049.70843  24053744.969                    24053757.340
 120166960.651 7  93636675.89144  22867019.164                    22867027.668
 108217509.540 8  84325420.72846  20593088.008                    20593093.738
 11  8 12  0 59 30.0000000  0 10G10G25G17G12G09G05G04G27G30G02
 109786916.286 8  85548361.72946  20891737.242                    20891744.684
 125405837.573 7  97718904.258 6  23863946.234                    23863956.645
 122328121.870 7  95320701.634 6  23278258.758                    23278266.508
 111760612.865 8  87086247.866 7  21267336.953                    21267344.422
 125565309.346 7  97843153.80144  23894297.125                    23894308.629
 114706816.833 7  89381922.987 7  21827945.898                    21827954.395
 114768279.490 8  89429962.82745  21839662.516                    21839671.449
 126467759.358 6  98546382.01743  24066036.188                    24066049.324
 120080066.359 7  93568966.09444  22850483.906                    22850492.594
 108219823.256 8  84327223.61146  20593528.203                    20593533.586
 11  8 12  1  0  0.0000000  0 10G10G25G17G12G09G05G04G27G30G02
 109792448.015 8  85552672.20046  20892789.758                    20892797.797
 125309055.473 7  97643489.670 6  23845528.820                    23845539.938
 122383952.907 7  95364206.297 6  23288882.453                    23288891.191
 111707784.485 8  87045082.891 7  21257284.461                    21257291.824
 125646829.860 7  97906676.23343  23909810.016                    23909820.727
 114619863.077 7  89314166.894 7  21811398.930                    21811407.961
 114846422.543 8  89490853.50645  21854532.797                    21854541.180
 126532385.187 6  98596739.62343  24078333.992                    24078347.363
 119993534.800 7  93501538.94744  22834017.133                    22834026.141
 108222418.362 8  84329245.76146  20594022.141                    20594027.340
 11  8 12  1  0 30.0000000  0 10G10G25G17G12G09G05G04G27G30G02
 109798612.490 8  85557475.71946  20893962.758                    20893970.477
 125212485.624 7  97568240.476 6  23827152.742                    23827163.234
 122439947.823 7  95407838.678 6  23299537.773                    23299546.781
 111655420.060 8  87004279.447 7  21247320.031                    21247327.023
 125728467.962 7  97970290.23043  23925344.906                    23925356.133
 114533243.343 7  89246671.081 7  21794916.094                    21794924.637
 114924686.828 8  89551838.67745  21869425.578                    21869433.910
 126597041.011 6  98647120.55443  24090637.578                    24090650.348
 119907368.660 7  93434396.53544  22817620.789                    22817629.078
 108225294.107 8  84331486.60546  20594569.234                    20594574.965
 11  8 12  1  1  0.0000000  0 10G10G25G17G12G09G05G04G27G30G02
 109805410.236 8  85562772.68746  20895256.273                    20895264.148
 125116130.916 7  97493158.927 6  23808816.531                    23808827.398
 122496107.299 7  95451599.280 6  23310224.664                    23310233.156
 111603522.109 8  86963839.478 7  21237443.695                    21237451.027
 125810220.174 6  98033993.12443  23940902.008                    23940913.535
 114446960.664 7  89179437.896 7  21778496.617                    21778505.547
 115003070.812 8  89612917.10345  21884341.789                    21884350.238
 126661724.215 6  98697522.86143  24102946.305                    24102959.859
 119821570.921 7  93367541.20444  22801293.180                    22801302.375
 108228449.452 8  84333945.31746  20595170.031                    20595175.461
 11  8 12  1  1 30.0000000  0 10G10G25G17G12G09G05G04G27G30G02
 109812841.221 8  85568563.10646  20896670.227                    20896677.961
 125019994.085 7  97418247.143 6  23790522.375                    23790533.676
 122552431.773 7  95495488.449 6  23320943.414                    23320951.395
 111552093.052 8  86923764.882 7  21227657.172                    21227664.434
 125892083.168 6  98097782.37743  23956480.117                    23956491.602
 114361017.920 7  89112469.605 7  21762142.477                    21762151.293
 115081572.644 8  89674087.37345  21899280.367                    21899288.715
 126726432.235 6  98747944.41743  24115260.258                    24115273.102
 119736144.510 6  93300975.21644  22785037.648                    22785046.387
 108231883.230 8  84336620.99646  20595823.125                    20595828.734
 11  8 12  1  2  0.0000000  0 10G10G25G17G12G09G05G04G27G30G02
 109820905.031 8  85574846.62446  20898204.922                    20898212.910
 124924077.584 7  97343507.028 6  23772269.867                    23772280.996
 122608921.566 7  95539506.451 6  23331692.836                    23331701.539
 111501134.666 8  86884057.047 7  21217960.156                    21217967.816
 125974053.653 6  98161655.35843  23972079.445                    23972090.133
 114275417.825 7  89045768.311 7  21745853.305                    21745861.879
 115160190.241 8  89735347.84045  21914240.516                    21914249.105
 126791162.131 6  98798383.04143  24127578.711                    24127591.410
 119651091.920 6  93234700.50744  22768852.555                    22768861.219
 108235593.964 8  84339512.50046  20596529.172                    20596535.066
 11  8 12  1  2 30.0000000  0 10G10G25G17G12G09G05G04G27G30G02
 109829601.267 8  85581622.95446  20899859.531                    20899867.641
 124828384.120 7  97268940.734 6  23754059.898                    23754070.957
 122665577.073 7  95583653.581 6  23342473.781                    23342482.480
 111450649.184 8  86844717.720 7  21208353.141                    21208360.645
 126056128.188 6  98225609.44343  23987697.070                    23987708.824
 114190162.809 8  88979335.917 7  21729629.375                    21729638.160
 115238921.860 8  89796697.14745  21929223.141                    21929231.250
 126855910.86716  98848836.37653  24139899.766                    24139912.844
 119566415.956 7  93168719.27244  22752739.070                    22752748.355
 108239580.719 8  84342619.07446  20597287.938                    20597293.570
 11  8 12  1  3  0.0000000  0 10G10G25G17G12G09G05G04G27G30G02
 109838930.251 8  85588892.32746  20901634.906                    20901643.066
 124732916.513 7  97194550.416 6  23735893.102                    23735904.645
 122722399.126 7  95627930.494 6  23353286.336                    23353295.824
 111400638.901 8  86805748.672 7  21198836.414                    21198843.746
 126138303.238 6  98289641.83243  24003334.789                    24003346.453
 114105256.067 8  88913174.890 7  21713472.500                    21713480.742
 115317765.504 8  89858133.75145  21944226.023                    21944234.520
 126920676.248 5  98899302.65442  24152222.797                    24152238.309
 119482119.485 7  93103033.72644  22736697.773                    22736706.875
 108243842.386 8  84345939.87346  20598098.703                    20598104.641
 11  8 12  1  3 30.0000000  0 10G10G25G17G12G09G05G04G27G30G02
 109848891.607 8  85596654.46446  20903530.070                    20903538.156
 124637677.244 7  97120338.021 6  23717770.016                    23717780.473
 122779387.838 7  95672337.292 6  23364131.523                    23364139.945
 111351105.434 8  86767151.175 7  21189410.734                    21189417.957
 126220575.641 6  98353750.06844  24018990.672                    24019002.672
 114020699.958 8  88847287.095 7  21697381.641                    21697390.691
 115396719.354 8  89919656.23845  21959250.586                    21959259.242
 126985455.20916  98949779.54652  24164551.211                    24164565.750
 119398205.169 7  93037645.95244  22720729.344                    22720738.148
 108248377.558 8  84349473.79546  20598961.758                    20598967.504
 11  8 12  1  4  0.0000000  0 10G10G25G17G12G09G05G04G27G30G02
 109859485.071 8  85604909.14746  20905546.250                    20905554.035
 124542668.935 7  97046305.637 6  23699690.492                    23699701.270
 122836543.718 7  95716874.348 6  23375007.586                    23375016.582
 111302051.029 8  86728927.002 7  21180075.648                    21180083.254
 126302942.382 7  98417931.82944  24034664.719                    24034676.188
 113936497.158 7  88781674.603 7  21681358.078                    21681367.020
 115475781.508 8  89981263.11545  21974295.617                    21974304.277
 127050245.036 6  99000264.89342  24176880.664                    24176894.313
 119314675.728 7  92972558.08744  22704834.289                    22704842.859
 108253185.327 8  84353220.11546  20599877.094                    20599882.434
 11  8 12  1  4 30.0000000  0 10G10G25G17G12G09G05G04G27G30G02
 109870710.387 8  85613656.17946  20907682.516                    20907690.277
 124447894.428 7  96972455.413 6  23681655.477                    23681665.848
 122893867.283 7  95761542.053 6  23385915.859                    23385925.012
 111253477.941 8  86691077.880 7  21170832.875                    21170839.883
 126385399.971 7  98482184.34444  24050356.281                    24050367.859
 113852650.828 8  88716339.876 7  21665402.758                    21665411.605
 115554950.388 8  90042953.14645  21989360.891                    21989369.563
 127115043.208 6  99050756.69342  24189211.563                    24189224.617
 119231533.916 7  92907772.28244  22689012.883                    22689021.941
 108258264.667 8  84357178.05246  20600843.172                    20600848.867
 11  8 12  1  5  0.0000000  0 10G10G25G17G12G09G05G04G27G30G02
 109882566.768 8  85622894.94746  20909938.406                    20909946.250
 124353356.033 7  96898789.188 6  23663665.305                    23663675.934
 122951359.084 7  95806340.861 6  23396856.008                    23396865.277
 111205387.581 8  86653604.904 7  21161681.523                    21161688.539
 126467944.470 6  98546504.52343  24066063.469                    24066076.199
 113769163.387 8  88651284.812 7  21649515.609                    21649524.445
 115634223.748 8  90104724.59345  22004446.406                    22004455.074
 127179846.907 6  99101252.96642  24201542.797                    24201556.688
 119148782.189 7  92843290.46944  22673266.125                    22673274.441
 108263613.883 8  84361346.28746  20601861.297                    20601866.867
 11  8 12  1  5 30.0000000  0 10G10G25G17G12G09G05G04G27G30G02
 109895054.612 8  85632625.77246  20912314.898                    20912322.535
 124259056.866 7  96825309.371 6  23645721.023                    23645730.980
 123009019.236 7  95851270.849 6  23407828.984                    23407837.820
 111157782.629 8  86616510.180 7  21152622.250                    21152629.742
 126550573.358 6  98610890.49943  24081786.695                    24081799.184
 113686037.670 8  88586511.594 7  21633697.508                    21633706.055
 115713600.185 8  90166576.35545  22019551.469                    22019559.461
 127244653.729 6  99151751.56043  24213876.531                    24213889.961
 119066423.698 7  92779115.06044  22657593.695                    22657602.324
 108269232.277 8  84365724.28346  20602930.406                    20602935.879
 11  8 12  1  6  0.0000000  0 10G10G25G17G12G09G05G04G27G30G02
 109908173.369 8  85642848.21046  20914811.273                    20914818.738
 124164999.430 7  96752017.922 6  23627821.977                    23627832.551
 123066848.443 6  95896332.561 6  23418833.570                    23418841.672
 111110664.481 8  86579794.776 7  21143656.109                    21143663.762
 126633282.970 6  98675339.41943  24097526.141                    24097539.066
 113603276.327 8  88522022.320 7  21617948.258                    21617956.961
 115793077.733 8  90228506.90845  22034675.156                    22034683.547
 127309460.749 6  99202250.35143  24226208.609                    24226222.855
 118984461.019 7  92715248.09044  22641997.008                    22642005.609
 108275118.643 8  84370311.08646  20604050.320                    20604056.082
 11  8 12  1  6 30.0000000  0 10G10G25G17G12G09G05G04G27G30G02
 109921922.851 8  85653562.12446  20917427.523                    20917435.305
 124071186.471 7  96678916.945 6  23609970.367                    23609980.234
 123124846.959 6  95941526.220 6  23429870.148                    23429878.668
 111064035.357 8  86543460.432 7  21134782.781                    21134790.285
 126716070.114 6  98739848.74243  24113279.602                    24113292.766
 113520882.168 8  88457819.161 7  21602268.844                    21602278.156
 115872654.850 8  90290515.04945  22049818.211                    22049826.531
 127374265.341 6  99252747.20843  24238541.320                    24238554.691
 118902896.873 7  92651691.68645  22626475.789                    22626484.211
 108281271.863 8  84375105.82246  20605221.445                    20605226.891
 11  8 12  1  7  0.0000000  0 10G10G25G17G12G09G05G04G27G30G02
 109936302.224 8  85664766.85646  20920164.133                    20920171.863
 123977620.495 7  96606008.431 6  23592164.984                    23592175.680
 123183015.160 6  95986852.084 6  23440939.227                    23440947.168
 111017897.251 8  86507508.691 7  21126002.984                    21126010.199
 126798931.539 6  98804415.94244  24129049.125                    24129060.785
 113438857.838 7  88393904.166 7  21586660.180                    21586669.387
 115952329.470 7  90352599.14845  22064979.547                    22064988.250
 127439064.787 6  99303240.04543  24250872.914                    24250885.859
 118821733.844 7  92588447.83245  22611030.547                    22611039.488
 108287690.656 8  84380107.49646  20606442.992                    20606448.410
 11  8 12  1  7 30.0000000  0 10G10G25G17G12G09G05G04G27G30G02
 109951311.312 8  85676462.27546  20923019.945                    20923027.977
 123884304.507 7  96533294.708 6  23574407.898                    23574417.996
 123241353.864 7  96032310.827 6  23452040.500                    23452049.566
 110972252.504 8  86471941.390 7  21117317.289                    21117324.586
 126881863.795 7  98869038.36043  24144830.648                    24144842.406
 113357206.293 8  88330279.662 7  21571122.641                    21571131.258
 116032099.991 8  90414758.01045  22080159.320                    22080168.070
 127503856.573 6  99353726.91843  24263201.578                    24263214.824
 118740974.903 7  92525518.87545  22595662.711                    22595671.195
 108294374.041 8  84385315.34946  20607714.500                    20607720.219
 11  8 12  1  8  0.0000000  0 10G10G25G17G12G09G05G04G27G30G02
 109966949.458 8  85688647.86446  20925995.625                    20926003.730
 123791240.945 7  96460777.666 6  23556698.195                    23556708.723
 123299863.161 7  96077902.463 6  23463174.523                    23463182.875
 110927102.583 8  86436759.672 7  21108725.047                    21108732.887
 126964863.592 7  98933713.42443  24160625.273                    24160636.176
 113275929.939 7  88266947.506 7  21555656.180                    21555664.598
 116111964.599 7  90476990.16645  22095357.234                    22095365.848
 127568637.922 6  99404205.68243  24275528.633                    24275542.785
 118660622.492 7  92462906.70545  22580372.000                    22580380.602
 108301320.779 8  84390728.40946  20609036.453                    20609042.113
 11  8 12  1  8 30.0000000  0 10G10G25G17G12G09G05G04G27G30G02
 109983216.291 8  85701323.34346  20929091.180                    20929099.348
 123698432.647 7  96388459.556 6  23539037.359                    23539048.098
 123358543.516 7  96123627.407 6  23474340.391                    23474349.980
 110882449.758 8  86401965.296 7  21100228.063                    21100235.211
 127047927.834 7  98998438.66543  24176431.961                    24176443.156
 113195031.518 8  88203909.849 7  21540261.766                    21540270.180
 116191921.736 7  90539294.42645  22110572.344                    22110581.035
 127633406.518 6  99454674.55043  24287854.633                    24287867.719
 118580679.476 7  92400613.53844  22565158.742                    22565167.555
 108308529.882 8  84396345.92046  20610408.055                    20610413.703
 11  8 12  1  9  0.0000000  0 10G10G25G17G12G09G05G04G27G30G02
 110000111.411 8  85714488.39246  20932306.250                    20932314.547
 123605882.095 7  96316342.269 6  23521425.492                    23521436.422
 123417395.407 7  96169485.982 6  23485540.727                    23485548.590
 110838295.543 8  86367559.444 7  21091825.602                    21091833.137
 127131052.908 7  99063211.26843  24192249.711                    24192262.027
 113114513.762 8  88141168.800 7  21524939.641                    21524948.695
 116271969.436 7  90601669.24745  22125805.211                    22125813.875
 127698159.194 6  99505130.94342  24300176.555                    24300190.570
 118501148.344 7  92338641.32144  22550024.898                    22550033.578
 108315999.809 8  84402166.66746  20611829.945                    20611835.508
 11  8 12  1  9 30.0000000  0 10G10G25G17G12G09G05G04G27G30G02
 110017633.893 8  85728142.28746  20935640.766                    20935648.656
 123513591.758 7  96244427.707 6  23503862.797                    23503873.469
 123476418.994 7  96215478.361 6  23496772.367                    23496780.645
 110794641.763 8  86333543.540 7  21083518.711                    21083526.113
 127214235.517 6  99128028.74644  24208079.633                    24208091.738
 113034378.741 8  88078725.998 7  21509690.508                    21509699.105
 116352105.808 7  90664113.15945  22141054.789                    22141062.910
 127762893.421 6  99555573.07043  24312495.344                    24312509.422
 118422031.565 7  92276991.96844  22534969.438                    22534978.281
 108323728.853 8  84408189.31746  20613300.703                    20613306.504
 11  8 12  1 10  0.0000000  0 10G10G25G17G12G09G05G04G27G30G02
 110035783.577 8  85742284.91746  20939094.477                    20939102.309
 123421564.742 7  96172718.356 6  23486351.164                    23486361.488
 123535615.021 7  96261605.113 6  23508037.266                    23508045.398
 110751490.672 8  86299919.336 7  21075307.273                    21075314.598
 127297472.915 7  99192888.82243  24223918.703                    24223931.848
 112954629.714 8  88016583.974 7  21494514.680                    21494523.129
 116432329.485 7  90726625.11045  22156320.398                    22156329.000
 127827606.769 6  99605998.81242  24324809.383                    24324823.969
 118343332.111 7  92215667.80544  22519993.273                    22520002.242
 108331716.981 8  84414413.85446  20614820.703                    20614826.328
 11  8 12  1 10 30.0000000  0 10G10G25G17G12G09G05G04G27G30G02
 110054559.422 8  85756915.45946  20942667.219                    20942675.066
 123329803.435 7  96101216.054 6  23468889.570                    23468900.418
 123594983.598 7  96307866.312 6  23519333.945                    23519342.672
 110708843.857 8  86266688.057 7  21067191.938                    21067199.293
 127380761.513 6  99257788.80943  24239768.305                    24239781.191
 112875269.070 8  87954744.575 7  21479412.969                    21479421.160
 116512638.550 7  90789203.59645  22171603.102                    22171611.496
 127892296.063 5  99656405.89742  24337119.938                    24337133.898
 118265052.290 7  92154670.61444  22505097.281                    22505105.160
 108339962.376 8  84420838.87546  20616390.117                    20616395.121
 11  8 12  1 11  0.0000000  0 10G10G25G17G12G09G05G04G27G30G02
 110073960.962 8  85772033.55646  20946359.500                    20946367.152
 123238310.491 7  96029922.879 7  23451479.000                    23451490.016
 123654525.257 7  96354262.370 6  23530664.727                    23530673.422
 110666702.874 8  86233850.932 7  21059172.859                    21059179.945
 127464097.966 6  99322726.13143  24255625.484                    24255639.355
 112796299.617 8  87893210.005 7  21464385.172                    21464393.645
 116593031.223 7  90851847.21445  22186901.586                    22186910.066
 127956958.865 5                  24349425.172
 118187194.773 7  92094002.48644  22490281.328                    22490289.387
 108348463.912 8  84427463.47146  20618007.336                    20618012.832
 11  8 12  1 11 30.0000000  0 10G10G25G17G12G09G05G04G27G30G02
 110093987.797 8  85787638.89546  20950170.539                    20950177.988
 123147089.048 7  95958841.278 6  23434120.430                    23434131.328
 123714240.246 7  96400793.499 6  23542028.094                    23542036.410
 110625070.404 8  86201410.063 7  21051250.516                    21051257.922
 127547479.607 6  99387698.61943  24271494.102                    24271507.008
 112717723.981 8  87831982.299 7  21449432.602                    21449441.551
 116673506.069 7  90914554.86945  22202214.992                    22202223.766
 128021592.788 5                  24361724.211
 118109762.610 7  92033665.76644  22475546.336                    22475554.688
 108357220.812 8  84434287.06046  20619673.773                    20619679.043
 11  8 12  1 12  0.0000000  0 10G10G25G17G12G09G05G04G27G30G02
 110114638.883 8  85803730.65846  20954099.898                    20954107.746
 123056141.393 7  95887973.020 7  23416813.750                    23416824.113
 123774128.931 7  96447459.985 6  23553424.352                    23553433.105
 110583947.531 8  86169366.287 7  21043424.992                    21043432.371
 127630902.749 6  99452703.49543  24287368.406                    24287381.172
 112639544.389 8  87771063.209 7  21434555.750                    21434564.242
 116754061.233 7  90977325.10245  22217544.359                    22217552.953
 128086194.803 6                  24374019.008
 118032758.022 7  91973662.20744  22460892.898                    22460900.781
 108366231.656 8  84441308.52146  20621388.500                    20621393.859
 11  8 12  1 12 30.0000000  0 10G10G25G17G12G09G05G04G27G30G02
 110135913.274 8  85820308.11746  20958148.305                    20958156.340
 122965470.237 7  95817320.215 6  23399559.570                    23399569.941
 123834191.609 7  96494262.022 6  23564854.008                    23564862.867
 110543336.181 8  86137721.094 7  21035696.586                    21035704.219
 127714363.936 6  99517738.05043  24303250.719                    24303263.660
 112561763.325 8  87710454.655 7  21419753.992                    21419762.473
 116834695.105 7  91040156.66545  22232888.813                    22232896.797
 128150762.425 6  99857896.13053  24386306.586                    24386319.676
 117956183.635 7  91913993.85744  22446321.602                    22446328.660
 108375495.025 8  84448526.75946  20623151.242                    20623156.844
 11  8 12  1 13  0.0000000  0 10G10G25G17G12G09G05G04G27G30G02
 110157810.504 8  85837370.90946  20962315.359                    20962323.465
 122875078.218 7  95746884.935 6  23382358.375                    23382369.027
 123894428.848 7  96541200.124 6  23576316.320                    23576325.758
 110503238.178 8  86106475.904 7  21028066.477                    21028073.652
 127797859.992 6  99582799.67943  24319140.313                    24319152.086
 112484383.514 8  87650158.750 7  21405029.391                    21405037.930
 116915405.855 7  91103048.13545  22248246.922                    22248255.277
 128215293.031 6  99908179.41743  24398586.063                    24398600.297
 117880042.121 7  91854662.78644  22431832.445                    22431840.250
 108385009.704 8  84455940.80746  20624961.781                    20624967.492
 11  8 12  1 13 30.0000000  0 10G10G25G17G12G09G05G04G27G30G02
 110180329.572 8  85854918.23946  20966600.500                    20966608.363
 122784967.971 7  95676669.226 6  23365210.406                    23365220.867
 123954840.996 7  96588274.525 6  23587812.352                    23587821.707
 110463655.014 8  86075631.880 7  21020533.883                    21020541.047
 127881387.698 6  99647886.07843  24335035.469                    24335047.551
 112407407.545 8  87590177.536 7  21390381.570                    21390389.773
 116996191.738 7  91165998.15345  22263620.313                    22263628.988
 128279784.280 6  99958432.04043  24410858.281                    24410872.379
 117804335.767 7  91795670.81045  22417425.391                    22417433.789
 108394774.547 8  84463549.79846  20626819.852                    20626825.379
 11  8 12  1 14  0.0000000  0 10G10G25G17G12G09G05G04G27G30G02
 110203469.761 8  85872949.56846  20971004.078                    20971011.559
 122695142.306 7  95606675.295 6  23348117.398                    23348128.480
 124015428.345 7  96635485.416 6  23599342.570                    23599350.309
 110424588.702 8  86045190.606 7  21013099.758                    21013107.168
 127964944.241 6  99712994.99043  24350935.945                    24350947.746
 112330838.112 8  87530513.097 7  21375811.086                    21375819.316
 117077051.411 7  91229005.65845  22279007.672                    22279015.813
 128344233.348 6 100008651.79643  24423122.398                    24423137.512
 117729067.441 7  91737020.12644  22403102.789                    22403110.934
 108404788.549 8  84471352.93746  20628725.633                    20628731.008
 11  8 12  1 14 30.0000000  0 10G10G25G17G12G09G05G04G27G30G02
 110227230.509 8  85891464.44746  20975525.266                    20975533.414
 122605603.911 7  95536905.239 6  23331078.391                    23331089.941
 124076190.962 7  96682832.893 6  23610904.750                    23610913.605
 110386040.892 8  86015153.356 7  21005764.836                    21005771.855
 128048526.311 6  99778123.74543  24366840.984                    24366853.191
 112254677.479 8  87471167.208 7  21361317.922                    21361326.430
 117157983.191 7  91292069.33945  22294408.063                    22294416.727
 128408637.750 6 100058836.77043  24435379.164                    24435393.160
 117654239.716 7  91678712.77245  22388863.813                    22388871.754
 108415050.380 8  84479349.18846  20630678.453                    20630684.172
 11  8 12  1 15  0.0000000  0 10G10G25G17G12G09G05G04G27G30G02
 110251610.962 8  85910462.21646  20980164.836                    20980172.813
 122516355.633 7  95467361.234 6  23314095.273                    23314105.270
 124137129.761 7  96730317.655 6  23622501.000                    23622510.336
 110348013.395 8  85985521.554 7  20998528.242                    20998535.176
 128132130.420 6  99843269.63143  24382750.563                    24382763.004
 112178928.538 8  87412142.114 7  21346903.320                    21346911.566
 117238985.609 7  91355188.07245  22309822.648                    22309831.113
 128472994.909 6 100108984.94143  24447625.875                    24447639.176
 117579855.322 7  91620750.87445  22374708.070                    22374717.078
 108425559.380 8  84487538.02346  20632677.898                    20632683.586
 11  8 12  1 15 30.0000000  0 10G10G25G17G12G09G05G04G27G30G02
 110276610.049 8  85929942.04546  20984922.250                    20984929.527
 122427400.055 7  95398045.312 6  23297167.773                    23297178.500
 124198244.944 6  96777939.890 6  23634130.633                    23634139.957
 110310508.214 8  85956296.749 7  20991391.086                    20991397.906
 128215753.720 6  99908430.49043  24398663.672                    24398675.570
 112103593.626 8  87353439.640 7  21332566.953                    21332575.570
 117320057.023 7  91418360.57445  22325249.617                    22325258.379
 128537302.400 6 100159094.36743  24459863.430                    24459876.578
 117505916.763 7  91563136.39844  22360638.227                    22360646.297
 108436314.247 8  84495918.45146  20634724.570                    20634730.395
 11  8 12  1 16  0.0000000  0 10G10G25G17G12G09G05G04G27G30G02
 110302227.066 7  85949903.37946  20989796.563                    20989804.348
 122338739.646 7  95328959.388 6  23280295.977                    23280306.141
 124259536.546 7  96825699.550 6  23645794.297                    23645803.992
 110273526.467 8  85927479.816 7  20984353.984                    20984360.480
 128299392.901 6  99973603.66943  24414579.563                    24414592.344
 112028675.313 8  87295061.801 7  21318310.469                    21318319.102
 117401195.749 7  91481585.52745  22340689.836                    22340698.457
 128601557.183 6 100209162.66943  24472090.477                    24472105.238
 117432426.413 7  91505871.17445  22346653.367                    22346662.203
 108447313.412 8  84504489.24646  20636817.789                    20636823.070
 11  8 12  1 16 30.0000000  0 10G10G25G17G12G09G05G04G27G30G02
 110328460.462 8  85970345.00246  20994788.859                    20994796.270
 122250377.061 7  95260105.536 6  23263480.547                    23263491.359
 124321005.124 7  96873597.145 6  23657491.578                    23657500.609
 110237070.015 8  85899072.205 7  20977416.133                    20977423.336
 128383044.734 6 100038786.71243  24430498.195                    24430511.281
 111954175.858 8  87237010.342 7  21304134.250                    21304142.406
 117482400.056 7  91544861.58745  22356142.977                    22356151.477
 128665756.884 6 100259188.17543  24484307.070                    24484322.703
 117359386.841 7  91448957.23145  22332754.813                    22332763.293
 108458555.704 8  84513249.48146  20638957.195                    20638962.676
 11  8 12  1 17  0.0000000  0  9G10G25G17G12G09G05G04G30G02
 110355309.797 7  85991266.58046  20999897.852                    20999905.754
 122162315.106 7  95191485.931 6  23246722.953                    23246733.574
 124382651.082 7  96921632.924 6  23669222.813                    23669231.035
 110201140.640 8  85871075.303 7  20970579.328                    20970586.391
 128466706.097 6 100103977.19743  24446418.852                    24446431.066
 111880097.934 8  87179287.347 7  21290037.234                    21290045.387
 117563668.604 7  91608187.69945  22371607.852                    22371616.836
 117286800.589 7  91392396.55045  22318941.969                    22318950.617
 108470040.258 8  84522198.48746  20641142.414                    20641148.020
 11  8 12  1 17 30.0000000  0  9G10G25G17G12G09G05G04G30G02
 110382773.894 8  86012667.19146  21005124.109                    21005132.152
 122074556.346 7  95123102.557 6  23230023.156                    23230034.273
 124444474.834 7  96969807.256 6  23680987.188                    23680996.434
 110165739.365 8  85843489.919 7  20963842.344                    20963849.590
 128550373.595 6 100169172.48243  24462340.242                    24462352.930
 111806443.847 8  87121894.622 7  21276021.313                    21276029.477
 117644999.578 7  91671562.45845  22387084.859                    22387093.742
 117214670.040 7  91336190.98945  22305215.711                    22305224.723
 108481765.625 8  84531335.13546  20643374.016                    20643379.172
 11  8 12  1 18  0.0000000  0  9G10G25G17G12G09G05G04G30G02
 110410851.763 7  86034546.07446  21010467.164                    21010474.840
 121987103.561 7  95054957.602 6  23213381.656                    23213392.262
 124506476.063 7  97018119.911 6  23692785.922                    23692794.105
 110130868.070 8  85816317.509 7  20957206.531                    20957213.898
 128634044.304 6 100234370.29743  24478262.547                    24478275.227
 111733216.042 8  87064834.052 7  21262086.672                    21262094.742
 117726391.561 7  91734984.76845  22402573.227                    22402581.359
 117142997.802 7  91280342.53245  22291577.172                    22291585.996
 108493730.599 8  84540658.49746  20645650.570                    20645656.211
 11  8 12  1 18 30.0000000  0  9G10G25G17G12G09G05G04G30G02
 110439542.285 8  86056902.33646  21015927.258                    21015934.727
 121899959.448 7  94987053.150 6  23196798.273                    23196808.902
 124568655.465 6  97066571.353 6  23704617.977                    23704627.234
 110096528.883 8  85789559.730 7  20950671.977                    20950679.023
 128717715.039 6 100299568.08243  24494184.398                    24494197.207
 111660417.223 8  87008107.761 7  21248233.445                    21248241.730
 117807843.181 7  91798453.55645  22418072.656                    22418081.203
 117071786.461 7  91224853.22145  22278026.008                    22278034.914
 108505934.374 8  84550167.94546  20647972.656                    20647978.090
 11  8 12  1 19  0.0000000  0  9G10G25G17G12G09G05G04G30G02
 110468844.653 8  86079735.36846  21021502.711                    21021510.773
 121813126.598 7  94919391.230 7  23180274.609                    23180285.203
 124631013.442 7  97115161.981 6  23716484.852                    23716492.863
 110062722.721 8  85763217.307 7  20944238.859                    20944245.793
 128801382.591 6 100364763.36043  24510105.422                    24510118.734
 111588049.633 8  86951717.499 7  21234462.578                    21234470.016
 117889352.767 7  91861967.50944  22433583.641                    22433591.895
 117001038.358 7  91169724.88745  22264563.313                    22264572.094
 108518375.625 8  84559862.43546  20650340.367                    20650346.031
 11  8 12  1 19 30.0000000  0  9G10G25G17G12G09G05G04G30G02
 110498757.401 8  86103044.01646  21027194.992                    21027202.688
 121726607.616 7  94851973.845 7  23163810.789                    23163821.254
 124693550.156 6  97163891.900 6  23728384.992                    23728392.770
 110029451.169 8  85737291.464 7  20937907.281                    20937914.941
 128885043.910 6 100429953.87143  24526025.695                    24526039.379
 111516115.539 8  86895665.012 7  21220773.477                    21220781.762
 117970918.740 7  91925525.41845  22449104.641                    22449113.160
 116930755.887 7  91114959.38745  22251188.984                    22251197.484
 108531053.259 8  84569741.11246  20652752.898                    20652758.238
 11  8 12  1 20  0.0000000  0  9G10G25G17G12G09G05G04G30G02
 110529279.689 8  86126827.63646  21033003.289                    21033010.891
 121640405.082 7  94784803.003 7  23147407.078                    23147417.527
 124756265.903 6  97212761.293 6  23740319.203                    23740327.859
 109996715.813 8  85711783.414 7  20931678.344                    20931685.191
 128968695.900 6 100495137.04043  24541944.359                    24541958.070
 111444617.356 8  86839952.213 7  21207167.828                    21207176.039
 118052539.669 7  91989126.13045  22464637.297                    22464645.430
 116860941.454 7  91060558.59145  22237903.750                    22237912.059
 108543965.930 8  84579802.94246  20655210.172                    20655215.633
 11  8 12  1 20 30.0000000  0  9G10G25G17G12G09G05G04G30G02
 110560410.317 8  86151085.27746  21038927.219                    21038934.496
 121554521.710 7  94717880.841 7  23131063.703                    23131074.516
 124819160.957 6  97261770.436 6  23752287.578                    23752296.145
 109964518.299 8  85686694.469 7  20925551.320                    20925558.254
 129052335.583 6 100560310.75543  24557860.641                    24557874.148
 111373557.516 8  86784580.969 7  21193645.578                    21193653.813
 118134213.872 7  92052768.36145  22480178.977                    22480187.129
 116791597.563 7  91006524.45945  22224707.523                    22224716.813
 108557112.467 8  84590047.00946  20657711.430                    20657717.031
 11  8 12  1 21  0.0000000  0  9G10G25G17G12G09G05G04G30G02
 110592147.503 8  86175815.57646  21044966.648                    21044974.152
 121468959.914 7  94651209.236 7  23114781.766                    23114792.184
 124882235.563 6  97310919.445 6  23764289.586                    23764299.363
 109932859.644 8  85662025.403 7  20919526.609                    20919533.742
 129135959.483 6 100625472.16342  24573774.359                    24573787.070
 111302938.087 8  86729552.912 7  21180207.156                    21180215.172
 118215939.671 7  92116450.81344  22495730.867                    22495739.207
 116722726.339 8  90952858.61845  22211602.391                    22211610.090
 108570491.165 8  84600471.97446  20660257.680                    20660262.883
 11  8 12  1 21 30.0000000  0  9G10G25G17G12G09G05G04G30G02
 110624490.380 7  86201017.83346  21051121.359                    21051128.875
 121383722.623 7  94584790.509 7  23098561.977                    23098572.234
 124945489.971 6  97360208.570 6  23776327.211                    23776336.438
 109901741.664 8  85637777.653 7  20913605.109                    20913612.281
 129219564.815 5 100690619.03842  24589683.609                    24589697.176
 111232761.777 8  86674870.139 7  21166853.188                    21166861.105
 118297715.992 7  92180172.60445  22511292.625                    22511300.645
 116654330.425 7  90899563.13245  22198586.836                    22198595.027
 108584101.651 8  84611077.55146  20662847.883                    20662852.883
 11  8 12  1 22  0.0000000  0  9G10G25G17G12G09G05G04G30G02
 110657438.690 8  86226691.85746  21057391.297                    21057398.629
 121298813.304 7  94518627.346 7  23082404.438                    23082414.633
 125008925.316 6  97409638.711 6  23788399.063                    23788407.301
 109871166.272 8  85613952.691 7  20907786.977                    20907794.148
 129303149.06714 100755749.24152  24605588.703                    24605603.270
 111163031.667 8  86620535.053 7  21153583.797                    21153591.910
 118379541.963 7  92243933.10745  22526863.242                    22526871.598
 116586412.906 7  90846640.40945  22185662.398                    22185670.313
 108597943.308 8  84621863.26546  20665481.609                    20665487.113
 11  8 12  1 22 30.0000000  0  9G10G25G17G12G09G05G04G30G02
 110690989.955 8  86252835.72246  21063775.734                    21063783.285
 121214233.500 7  94452720.950 6  23066309.359                    23066319.621
 125072540.768 6  97459209.164 6  23800504.445                    23800513.109
 109841133.985 8  85590550.937 7  20902071.570                    20902079.289
 129386708.28215                  24621489.766
 111093748.802 8  86566548.468 7  21140399.398                    21140407.906
 118461415.101 7  92307730.35744  22542443.195                    22542451.902
 116518975.219 7  90794091.58145  22172829.227                    22172837.348
 108612013.906 8  84632827.38946  20668158.867                    20668164.211
 11  8 12  1 23  0.0000000  0  9G10G25G17G12G09G05G04G30G02
 110725142.638 8  86279448.22646  21070274.766                    21070282.117
 121129985.458 7  94387073.107 6  23050277.766                    23050287.672
 125136336.049 6  97508919.758 6  23812644.242                    23812653.273
 109811645.838 8  85567573.171 7  20896460.750                    20896467.477
 129470238.807 6 100886029.59952  24637385.984                    24637399.145
 111024915.299 8  86512912.028 7  21127301.094                    21127308.957
 118543333.597 7  92371562.95144  22558032.125                    22558040.418
 116452019.202 7  90741918.08145  22160088.305                    22160095.859
 108626311.874 8  84643968.67946  20670879.781                    20670885.570
 11  8 12  1 23 30.0000000  0  9G10G25G17G12G09G05G04G30G02
 110759895.918 7  86306528.72046  21076887.914                    21076895.621
 121046072.323 7  94321686.248 6  23034309.453                    23034319.082
 125200312.009 6  97558771.157 6  23824818.547                    23824827.867
 109782704.152 8  85545021.219 7  20890953.078                    20890959.996
 129553738.253 6 100951093.89042  24653276.063                    24653287.984
 110956533.606 8  86459627.664 7  21114288.281                    21114296.574
 118625296.487 7  92435430.12444  22573628.633                    22573637.551
 116385547.770 7  90690122.17345  22147438.820                    22147446.797
 108640836.279 8  84655286.41146  20673643.828                    20673649.504
 11  8 12  1 24  0.0000000  0  9G10G25G17G12G09G05G04G30G02
 110795248.508 8  86334076.22246  21083615.438                    21083623.043
 120962496.966 7  94256562.633 6  23018405.203                    23018415.289
 125264469.077 6  97608763.666 6  23837027.461                    23837035.910
 109754309.840 8  85522895.794 7  20885549.789                    20885557.078
 129637203.565 6 101016131.59342  24669157.953                    24669172.438
 110888606.557 8  86406697.557 7  21101362.195                    21101370.469
 118707302.437 7  92499330.85944  22589234.219                    22589242.750
 116319563.463 7  90638705.84145  22134882.609                    22134890.805
 108655586.483 8  84666780.10746  20676450.445                    20676455.813
 11  8 12  1 24 30.0000000  0  9G10G25G17G12G09G05G04G30G02
 110831198.669 8  86362089.35846  21090456.492                    21090464.000
 120879261.823 7  94191704.146 6  23002566.094                    23002575.852
 125328807.325 6  97658897.346 6  23849270.406                    23849279.043
 109726464.058 8  85501197.799 7  20880251.031                    20880258.184
 129720631.544 6 101081140.20342  24685035.047                    24685047.738
 110821136.053 8  86354123.198 7  21088523.063                    21088530.945
 118789349.992 7  92563264.00144  22604847.570                    22604855.824
 116254068.426 7  90587670.75145  22122419.055                    22122428.125
 108670560.915 8  84678448.50946  20679300.047                    20679305.898
 11  8 12  1 25  0.0000000  0  9G10G25G17G12G09G05G04G30G02
 110867745.414 8  86390567.36846  21097411.195                    21097418.770
 120796369.602 7  94127112.888 6  22986792.234                    22986802.188
 125393327.069 6  97709172.454 6  23861548.078                    23861556.871
 109699168.265 8  85479928.365 7  20875056.727                    20875063.645
 129804019.615 5 101146117.74942  24700901.430                    24700916.707
 110754124.857 8  86301906.737 7  21075770.711                    21075778.938
 118871437.804 7  92627228.52544  22620467.836                    22620476.551
 116189064.989 7  90537018.72145  22110049.867                    22110058.172
 108685758.694 8  84690290.95146  20682192.242                    20682197.629
 11  8 12  1 25 30.0000000  0  9G10G25G17G12G09G05G04G30G02
 110904887.667 8  86419509.41146  21104479.250                    21104486.832
 120713823.089 7  94062791.024 6  22971084.367                    22971094.055
 125458028.569 6  97759589.199 6  23873860.625                    23873868.910
 109672424.216 8  85459088.847 7  20869967.125                    20869974.410
 129887364.82816 101211061.91652  24716764.266                    24716777.082
 110687574.813 8  86250049.630 7  21063106.922                    21063114.992
 118953564.654 7  92691223.48144  22636096.617                    22636104.734
 116124555.731 7  90486751.77045  22097773.938                    22097782.219
 108701178.797 8  84702306.62346  20685126.719                    20685132.102
 11  8 12  1 26  0.0000000  0  9G10G25G17G12G09G05G04G30G02
 110942623.199 8  86448913.75046  21111659.758                    21111667.438
 120631624.224 7  93998740.037 6  22955442.328                    22955451.609
 125522911.767 6  97810147.558 6  23886206.531                    23886215.391
 109646232.632 8  85438679.827 7  20864983.383                    20864990.355
 129970663.354 5 101275969.60242  24732614.984                    24732627.688
 110621487.658 7  86198553.208 7  21050530.969                    21050539.188
 119035728.723 7  92755247.42244  22651731.523                    22651740.223
 116060542.283 7  90436871.18645  22085591.750                    22085600.980
 108716819.389 8  84714494.11646  20688103.203                    20688108.395
 11  8 12  1 26 30.0000000  0  9G10G25G17G12G09G05G04G30G02
 110980951.255 8  86478779.79146  21118953.063                    21118960.992
 120549776.420 7  93934962.602 6  22939867.063                    22939876.816
 125587977.513 6  97860848.112 6  23898588.391                    23898597.625
 109620595.055 8  85418702.506 7  20860104.203                    20860111.453
 130053912.913 5                  24748456.266
 110555866.405 8  86147419.844 7  21038043.883                    21038051.719
 119117928.969 7  92819299.56744  22667373.984                    22667382.117
 115997027.680 7  90387379.32945  22073505.992                    22073514.305
 108732680.105 8  84726853.13246  20691121.148                    20691126.145
 11  8 12  1 27  0.0000000  0  9G10G25G17G12G09G05G04G30G02
 111019870.055 8  86509106.16646  21126359.469                    21126366.902
 120468282.085 7  93871460.607 6  22924358.867                    22924369.168
 125653226.006 6  97911691.114 6  23911005.313                    23911013.828
 109595512.906 8  85399157.989 7  20855331.594                    20855338.852
 130137110.227 5                  24764288.758
 110490713.289 8  86096651.245 7  21025645.430                    21025652.941
 119200164.200 7  92883378.96245  22683022.719                    22683031.527
 115934013.944 7  90338277.76045  22061514.563                    22061522.957
 108748759.906 8  84739382.86246  20694181.000                    20694186.168
 11  8 12  1 27 30.0000000  0  9G10G25G17G12G09G05G04G30G02
 111059378.171 8  86539891.73746  21133877.570                    21133885.188
 120387143.761 7  93808236.017 7  22908918.734                    22908929.211
 125718656.965 7  97962676.263 6  23923455.664                    23923464.898
 109570987.342 8  85380047.188 7  20850664.422                    20850671.809
 130220252.780 5                  24780109.242
 110426030.073 7  86046248.807 7  21013336.352                    21013343.984
 119282432.925 7  92947484.45044  22698677.602                    22698686.570
 115871503.389 7  90289568.27845  22049619.531                    22049627.523
 108765057.359 8  84752082.19346  20697282.641                    20697287.465
 11  8 12  1 28  0.0000000  0  9G10G25G17G12G09G05G04G30G02
 111099473.505 8  86571134.87346  21141507.406                    21141515.160
 120306363.472 7  93745290.410 7  22893546.945                    22893557.324
 125784270.205 7  98013803.476 6  23935941.758                    23935950.953
 109547018.757 8  85361370.379 7  20846103.703                    20846110.383
 130303336.920 5                  24795921.477
 110361818.450 8  85996213.836 7  21001117.250                    21001125.375
 119364733.397 7  93011614.68544  22714338.875                    22714348.035
 115809497.478 7  90241252.03745  22037819.859                    22037828.387
 108781570.543 8  84764949.62846  20700424.445                    20700429.926
 11  8 12  1 28 30.0000000  0  9G10G25G17G12G09G05G04G30G02
 111140154.878 8  86602834.68245  21149248.656                    21149256.262
 120225944.108 7  93682626.038 7  22878243.195                    22878254.516
 125850066.309 7  98065073.173 6  23948462.750                    23948471.730
 109523608.680 8  85343128.777 7  20841648.805                    20841655.473
 130386359.601 5                  24811721.117
 110298080.803 8  85946548.188 7  20988988.117                    20988996.176
 119447064.347 7  93075768.66744  22730006.281                    22730014.484
 115747998.844 7  90193331.08545  22026117.047                    22026126.004
 108798298.855 8  84777984.69646  20703607.742                    20703613.359
 11  8 12  1 29  0.0000000  0  9G10G25G17G12G09G05G04G30G02
 111181420.937 8  86634990.05946  21157101.867                    21157109.313
 120145888.365 7  93620244.956 7  22863009.203                    22863019.840
 125916045.400 6  98116485.455 6  23961018.109                    23961027.535
 109500758.256 8  85325323.268 7  20837300.430                    20837307.086
 130469318.085 5 101664531.04952  24827506.266                    24827518.523
 110234819.430 7  85897253.662 7  20976950.125                    20976957.844
 119529424.717 7  93139945.56844  22745678.195                    22745687.172
 115687009.721 7  90145807.16845  22014511.211                    22014519.480
 108815241.358 8  84791186.66746  20706831.852                    20706837.059
 11  8 12  1 29 30.0000000  0  9G10G25G17G12G09G05G04G30G02
 111223269.811 8  86667599.59646  21165064.898                    21165072.457
 120066198.721 7  93558149.149 7  22847844.219                    22847855.414
 125982208.023 6  98168040.746 6  23973608.133                    23973617.566
 109478468.601 8  85307954.718 7  20833059.148                    20833066.215
 130552209.487 5 101729121.56042  24843282.117                    24843294.520
 110172036.207 7  85848331.730 7  20965002.898                    20965010.891
 119611813.080 7  93204144.29344  22761356.750                    22761364.836
 115626532.276 7  90098681.95045  22003003.492                    22003010.906
 108832396.733 8  84804554.51446  20710096.414                    20710102.063
 11  8 12  1 30  0.0000000  0  9G10G25G17G12G09G05G04G30G02
 111265700.420 8  86700662.42746  21173139.203                    21173146.773
 119986878.507 7  93496341.194 7  22832750.828                    22832761.617
 126048554.508 6  98219739.278 6  23986233.250                    23986242.789
 109456741.692 8  85291024.694 7  20828924.617                    20828931.824
 130635031.60215                  24859044.539
 110109734.159 8  85799784.734 7  20953146.773                    20953155.387
 119694228.725 7  93268364.30044  22777039.758                    22777048.074
 115566569.298 7  90051957.60645  21991592.094                    21991600.152
 108849764.466 8  84818087.83246  20713401.352                    20713406.734
 11  8 12  1 30 30.0000000  0  8G10G25G17G12G05G04G30G02
 111308711.845 8  86734177.82845  21181324.016                    21181331.922
 119907930.745 7  93434823.464 7  22817727.563                    22817738.375
 126115085.474 6  98271581.588 6  23998893.281                    23998902.918
 109435579.036 8  85274534.330 7  20824896.977                    20824904.184
 110047915.683 8  85751614.544 7  20941383.273                    20941391.137
 119776670.935 7  93332604.99044  22792728.453                    22792736.359
 115507123.275 7  90005636.07645  21980279.883                    21980288.215
 108867344.001 8  84831786.19446  20716746.969                    20716752.129
 11  8 12  1 31  0.0000000  0  8G10G25G17G12G05G04G30G02
 111352300.910 8  86768143.35145  21189618.313                    21189626.313
 119829356.569 7  93373596.843 7  22802775.391                    22802786.047
 126181799.828 6  98323566.746 6  24011589.078                    24011598.574
 109414980.043 8  85258483.195 7  20820977.531                    20820984.121
 109986581.389 8  85703821.647 7  20929711.984                    20929719.824
 119859136.941 7  93396864.22944  22808421.016                    22808429.105
 115448194.977 7  89959717.96145  21969066.117                    21969074.754
 108885132.628 8  84845647.49646  20720131.844                    20720137.230
 11  8 12  1 31 30.0000000  0  8G10G25G17G12G05G04G30G02
 111396466.058 8  86802557.76245  21198023.055                    21198031.012
 119751158.584 7  93312663.354 7  22787894.781                    22787905.453
 126248697.804 6  98375695.011 6  24024319.578                    24024328.969
 109394945.884 8  85242872.179 7  20817164.828                    20817171.742
 109925733.279 8  85656407.582 7  20918132.516                    20918140.395
 119941625.665 7  93461141.17044  22824118.023                    22824126.242
 115389786.540 7  89914204.91245  21957951.539                    21957959.875
 108903129.494 8  84859671.05646  20723556.164                    20723561.488
 11  8 12  1 32  0.0000000  0  8G10G25G17G12G05G04G30G02
 111441205.200 7  86837419.43946  21206536.617                    21206544.449
 119673339.155 7  93252024.841 7  22773086.258                    22773096.953
 126315779.206 6  98427966.224 6  24037084.945                    24037093.969
 109375477.180 8  85227701.776 7  20813460.281                    20813467.008
 109865373.445 8  85609373.997 7  20906646.758                    20906653.949
 120024135.534 7  93525434.58544  22839819.406                    22839827.375
 115331899.906 7  89869098.47145  21946935.750                    21946944.242
 108921332.975 8  84873855.61446  20727020.313                    20727025.645
 11  8 12  1 32 30.0000000  0  8G10G25G17G12G05G04G30G02
 111486516.995 7  86872727.33946  21215159.141                    21215166.797
 119595901.045 7  93191683.453 6  22758350.063                    22758360.766
 126383044.350 6  98480380.590 6  24049884.563                    24049893.742
 109356575.267 8  85212973.037 7  20809863.367                    20809870.391
 109805503.907 8  85562722.455 7  20895253.938                    20895261.586
 120106665.735 7  93589743.85944  22855524.219                    22855532.559
 115274537.258 7  89824400.32245  21936020.078                    21936028.254
 108939742.271 8  84888200.54646  20730523.664                    20730528.734
 11  8 12  1 33  0.0000000  0  8G10G25G17G12G05G04G30G02
 111532399.100 7  86908479.63445  21223890.438                    21223897.859
 119518846.497 7  93131640.955 6  22743687.586                    22743696.902
 126450493.563 6  98532938.401 6  24062720.086                    24062728.805
 109338240.961 8  85198686.585 7  20806374.367                    20806381.508
 109746126.225 8  85516454.177 7  20883954.742                    20883962.320
 120189214.400 7  93654067.50344  22871232.516                    22871241.063
 115217700.412 7  89780111.88745  21925204.563                    21925212.520
 108958356.056 8  84902704.82346  20734065.563                    20734070.871
 11  8 12  1 33 30.0000000  0  8G10G25G17G12G05G04G30G02
 111578850.117 8  86944675.22745  21232729.625                    21232737.141
 119442178.175 7  93071899.444 6  22729097.836                    22729107.707
 126518126.733 7  98585639.562 6  24075590.461                    24075598.473
 109320475.364 8  85184843.289 7  20802993.391                    20803000.438
 109687242.443 8  85470570.762 8  20872749.242                    20872757.316
 120271780.691 7  93718404.87844  22886943.813                    22886952.254
 115161391.547 7  89736234.85545  21914489.578                    21914497.441
 108977173.306 8  84917367.62846  20737646.398                    20737651.633
 11  8 12  1 34  0.0000000  0  8G10G25G17G12G05G04G30G02
 111625868.616 7  86981313.02145  21241676.867                    21241684.277
 119365898.943 7  93012461.143 6  22714582.172                    22714592.070
 126585944.087 7  98638484.274 5  24088495.484                    24088504.195
 109303279.367 8  85171443.827 7  20799721.500                    20799728.145
 109628854.962 8  85425074.073 7  20861638.313                    20861646.316
 120354363.543 7  93782755.15944  22902659.164                    22902667.727
 115105612.984 7  89692771.03445  21903874.719                    21903882.914
 108996193.238 8  84932188.36546  20741265.930                    20741271.301
 11  8 12  1 34 30.0000000  0  8G10G25G17G12G05G04G30G02
 111673452.373 8  87018391.27545  21250731.617                    21250739.152
 119290010.837 7  92953327.634 7  22700141.281                    22700151.293
 126653945.776 6  98691472.572 6  24101435.813                    24101444.402
 109286653.635 8  85158488.729 7  20796557.391                    20796564.430
 109570965.117 8  85379965.154 7  20850622.469                    20850630.301
 120436961.452 7  93847117.16744  22918377.570                    22918385.902
 115050366.218 7  89649721.60945  21893362.008                    21893369.750
 109015414.213 8  84947165.75546  20744923.430                    20744928.781
 11  8 12  1 35  0.0000000  0  8G10G25G17G12G05G04G30G02
 111721599.602 8  87055908.59645  21259893.813                    21259901.535
 119214516.736 7  92894501.113 6  22685775.328                    22685785.004
 126722131.793 6  98744604.519 6  24114410.914                    24114419.801
 109270599.192 8  85145978.795 7  20793502.516                    20793509.492
 109513575.433 8  85335245.974 8  20839701.508                    20839709.332
 120519573.585 7  93911490.27544  22934097.828                    22934106.352
 114995653.670 7  89607088.45745  21882950.383                    21882958.453
 109034835.662 8  84962299.36046  20748619.047                    20748624.379
 11  8 12  1 35 30.0000000  0  8G10G25G17G12G05G04G30G02
 111770308.535 8  87093863.60245  21269162.766                    21269170.863
 119139419.057 7  92835983.512 6  22671484.484                    22671494.484
 126790502.207 6  98797880.148 6  24127421.594                    24127430.797
 109255116.975 8  85133914.749 7  20790556.203                    20790563.215
 109456687.639 8  85290917.868 7  20828876.195                    20828883.738
 120602198.586 7  93975873.40544  22949820.344                    22949829.594
 114941477.294 8  89564873.11245  21872640.578                    21872648.758
 109054456.352 8  84977588.22746  20752352.828                    20752358.227
 11  8 12  1 36  0.0000000  0  8G10G25G17G12G05G04G30G02
 111819576.955 8  87132254.58145  21278538.156                    21278546.055
 119064719.949 7  92777776.490 7  22657268.766                    22657279.559
 126859057.329 6  98851299.681 6  24140466.523                    24140476.633
 109240207.416 8  85122296.919 7  20787719.219                    20787725.902
 109400303.170 8  85246981.970 7  20818146.438                    20818154.297
 120684835.173 7  94040265.53344  22965545.648                    22965554.414
 114887838.571 8  89523076.72045  21862434.195                    21862441.844
 109074274.801 8  84993031.19646  20756124.141                    20756129.230
 11  8 12  1 36 30.0000000  0  8G10G25G17G12G05G04G30G02
 111869403.548 8  87171080.50045  21288019.719                    21288027.281
 118990422.375 7  92719882.339 7  22643131.242                    22643141.691
 126927797.185 6  98904863.141 6  24153547.523                    24153557.160
 109225871.931 8  85111126.436 7  20784991.367                    20784998.168
 109344424.274 8  85203440.021 7  20807512.969                    20807520.789
 120767482.372 7  94104665.94844  22981273.148                    22981281.469
 114834739.979 8  89481701.21845  21852329.672                    21852337.262
 109094290.429 8  85008627.80246  20759933.031                    20759938.266
 11  8 12  1 37  0.0000000  0  8G10G25G17G12G05G04G30G02
 111919786.308 8  87210339.80745  21297607.117                    21297614.531
 118916528.742 7  92662302.962 7  22629069.508                    22629080.379
 126996721.667 6  98958570.456 6  24166662.922                    24166673.031
 109212111.307 8  85100403.894 7  20782372.406                    20782379.445
 109289053.111 8  85160293.709 8  20796976.172                    20796984.156
 120850139.242 7  94169073.90944  22997002.281                    22997010.398
 114782183.281 8  89440747.95545  21842328.266                    21842336.285
 109114502.146 8  85024377.21646  20763778.922                    20763784.578
 11  8 12  1 37 30.0000000  0  8G10G25G17G12G05G04G30G02
 111970723.191 8  87250030.88845  21307300.711                    21307308.297
 118843041.301 7  92605040.094 7  22615084.695                    22615095.547
 127065830.886 6  99012421.760 6  24179815.109                    24179823.949
 109198925.728 8  85090129.433 7  20779863.344                    20779870.457
 109234190.645 8  85117543.787 7  20786536.117                    20786543.922
 120932804.194 7  94233488.14544  23012732.750                    23012741.633
 114730170.261 8  89400218.35845  21832430.648                    21832439.039
 109134908.421 8  85040278.23746  20767662.375                    20767667.410
 11  8 12  1 38  0.0000000  0  8G10G25G17G12G05G04G30G02
 112022211.891 8  87290151.95145  21317098.352                    21317106.031
 118769962.458 7  92548095.628 7  22601178.781                    22601189.207
 127135124.898 6  99066417.056 6  24193001.664                    24193010.551
 109186316.077 8  85080303.746 7  20777463.914                    20777470.809
 109179839.078 8  85075191.960 7  20776193.578                    20776201.176
 121015476.314 7  94297908.00644  23028465.156                    23028473.469
 114678702.597 8  89360113.72745  21822636.383                    21822644.781
 109155508.355 8  85056330.15846  20771582.156                    20771587.574
 11  8 12  1 38 30.0000000  0  8G10G25G17G12G05G04G30G02
 112074250.665 7  87330701.64945  21327001.266                    21327008.414
 118697294.904 7  92491471.612 7  22587350.383                    22587360.559
 127204603.861 6  99120556.494 6  24206222.719                    24206232.184
 109174283.188 8  85070927.482 7  20775173.898                    20775181.074
 109126000.147 8  85033239.593 7  20765947.766                    20765955.766
 121098154.511 7  94362332.57444  23044197.797                    23044206.895
 114627782.432 8  89320435.72345  21812946.359                    21812954.703
 109176301.303 8  85072532.48146  20775538.859                    20775544.258
 11  8 12  1 39  0.0000000  0  8G10G25G17G12G05G04G30G02
 112126837.657 7  87371678.53045  21337008.305                    21337015.789
 118625040.984 7  92435169.876 7  22573601.172                    22573611.492
 127274267.741 6  99174840.043 6  24219479.859                    24219488.445
 109162827.739 8  85062001.156 7  20772994.094                    20773001.125
 109072675.728 8  84991688.147 7  20755800.625                    20755808.012
 121180837.747 7  94426761.07644  23059932.188                    23059940.738
 114577411.588 8  89281185.76745  21803361.367                    21803369.242
 109197285.974 8  85088884.20646  20779532.414                    20779537.813
 11  8 12  1 39 30.0000000  0  8G10G25G17G12G05G04G30G02
 112179970.455 7  87413080.72445  21347118.734                    21347126.145
 118553202.622 7  92379191.935 7  22559931.000                    22559941.457
 127344116.219 6  99229267.461 5  24232771.578                    24232779.539
 109151950.029 8  85053525.026 7  20770924.461                    20770931.004
 109019867.047 8  84950538.580 8  20745751.547                    20745759.648
 121263524.380 7  94491192.22944  23075667.117                    23075675.051
 114527591.233 7  89242364.76345  21793881.281                    21793888.785
 109218460.350 8  85105383.76146  20783561.508                    20783566.715
 11  8 12  1 40  0.0000000  0  9G10G25G17G12G29G05G04G30G02
 112233646.853 7  87454906.48345  21357333.219                    21357340.918
 118481782.289 7  92323539.748 7  22546339.570                    22546350.297
 127414149.526 6  99283838.860 5  24246098.313                    24246106.570
 109141650.625 8  85045499.517 7  20768964.352                    20768971.313
 129563639.86116 100958733.54716  24655147.898                    24655157.387
 108967575.718 8  84909792.137 8  20735800.766                    20735808.535
 121346213.250 7  94555625.13244  23091401.883                    23091410.355
 114478323.172 8  89203974.12745  21784505.734                    21784513.309
 109239823.603 7  85122030.48046  20787626.852                    20787631.867
 11  8 12  1 40 30.0000000  0  9G10G25G17G12G29G05G04G30G02
 112287865.793 7  87497155.02145  21367650.797                    21367658.324
 118410783.220 8  92268215.810 7  22532829.164                    22532839.691
 127484368.009 6  99338554.554 6  24259460.258                    24259469.078
 109131930.346 8  85037925.278 7  20767114.656                    20767121.340
 129483802.437 6 100896522.579 6  24639956.250                    24639965.746
 108915804.222 8  84869450.770 8  20725948.961                    20725956.633
 121428904.523 7  94620059.90644  23107137.555                    23107146.094
 114429610.041 8  89166015.88545  21775235.836                    21775243.777
 109261375.520 8  85138824.21146  20791728.102                    20791733.215
 11  8 12  1 41  0.0000000  0  9G10G25G17G12G29G05G04G30G02
 112342624.675 7  87539824.28345  21378070.922                    21378078.457
 118340207.476 7  92213221.736 7  22519399.250                    22519409.688
 127554771.472 6  99393414.364 6  24272856.727                    24272866.477
 109122790.050 8  85030802.973 7  20765374.906                    20765382.141
 129403891.894 6 100834254.673 6  24624749.641                    24624758.703
 108864554.028 8  84829515.607 8  20716196.273                    20716204.082
 121511596.381 7  94684495.13444  23122873.375                    23122881.746
 114381453.142 8  89128491.05645  21766071.844                    21766079.730
 109283115.108 8  85155764.17146  20795864.703                    20795870.285
 11  8 12  1 41 30.0000000  0  9G10G25G17G12G29G05G04G30G02
 112397920.782 7  87582912.17045  21388593.586                    21388601.133
 118270057.054 7  92158559.091 7  22506050.195                    22506060.027
 127625359.779 6  99448418.195 6  24286289.781                    24286298.793
 109114230.110 8  85024132.891 7  20763746.539                    20763753.590
 129323908.435 6 100771929.980 6  24609529.477                    24609538.168
 108813826.033 8  84789987.351 8  20706543.227                    20706550.887
 121594287.356 7  94748929.66344  23138609.422                    23138617.461
 114333853.928 7  89091400.80845  21757013.609                    21757021.785
 109305040.567 8  85172848.96446  20800036.938                    20800042.262
 11  8 12  1 42  0.0000000  0  9G10G25G17G12G29G05G04G30G02
 112453752.350 8  87626417.29045  21399217.664                    21399225.391
 118200334.261 7  92104229.634 7  22492782.039                    22492792.445
 127696132.560 6  99503565.749 6  24299758.219                    24299767.020
 109106250.164 8  85017914.758 7  20762227.820                    20762234.688
 129243852.353 6 100709548.766 6  24594295.227                    24594304.578
 108763622.256 8  84750867.580 8  20696989.523                    20696997.410
 121676976.654 7  94813362.92344  23154344.477                    23154352.285
 114286814.052 7  89054746.40645  21748062.258                    21748070.699
 109327150.736 8  85190077.70146  20804244.680                    20804249.902
 11  8 12  1 42 30.0000000  0  9G10G25G17G12G29G05G04G30G02
 112510117.091 7  87670337.86845  21409944.148                    21409951.320
 118131041.628 7  92050235.377 7  22479596.445                    22479606.613
 127767090.149 6  99558857.322 6  24313260.914                    24313269.672
 109098851.477 8  85012149.547 7  20760819.906                    20760826.988
 129163724.302 6 100647111.407 5  24579047.523                    24579056.309
 108713944.225 8  84712157.473 8  20687536.180                    20687543.988
 121759663.141 7  94877793.96644  23170079.109                    23170087.852
 114240335.256 7  89018529.21745  21739217.797                    21739225.598
 109349444.734 8  85207449.67546  20808487.055                    20808491.750
 11  8 12  1 43  0.0000000  0  9G10G25G17G12G29G05G04G30G02
 112567012.977 8  87714672.33745  21420770.859                    21420777.902
 118062181.250 7  91996577.947 7  22466492.414                    22466502.762
 127838232.205 7  99614292.658 6  24326798.977                    24326807.871
 109092033.944 8  85006837.187 7  20759522.414                    20759529.398
 129083525.027 6 100584618.577 5  24563785.570                    24563794.727
 108664793.377 8  84673858.165 8  20678183.211                    20678190.871
 121842345.634 7  94942221.90244  23185812.656                    23185821.141
 114194418.962 7  88982750.34245  21730479.797                    21730488.164
 109371921.243 8  85224963.85646  20812763.906                    20812769.555
 11  8 12  1 43 30.0000000  0  9G10G25G17G12G29G05G04G30G02
 112624437.847 7  87759418.99845  21431698.188                    21431705.777
 117993755.755 7  91943259.410 7  22453471.445                    22453482.063
 127909558.932 7  99669871.859 6  24340372.367                    24340380.832
 109085798.222 8  85001978.183 8  20758336.164                    20758343.004
 129003254.987 6 100522070.627 5  24548510.508                    24548519.359
 108616171.216 8  84635970.818 7  20668930.305                    20668938.164
 121925023.207 7  95006645.97744  23201545.766                    23201554.238
 114149066.964 8  88947411.17845  21721849.492                    21721857.848
 109394579.444 8  85242619.61446  20817075.719                    20817080.988
 11  8 12  1 44  0.0000000  0  9G10G25G17G12G29G05G04G30G02
 112682389.737 7  87804576.33445  21442725.711                    21442733.160
 117925767.363 7  91890281.476 7  22440533.586                    22440543.453
 127981070.247 7  99725594.914 6  24353980.000                    24353989.203
 109080145.188 8  84997573.224 7  20757260.320                    20757267.176
 128922914.773 7 100459467.955 5  24533222.664                    24533231.309
 108568079.286 8  84598496.636 8  20659778.992                    20659786.902
 122007695.038 7  95071065.61544  23217277.930                    23217286.195
 114104280.853 7  88912512.95645  21713327.273                    21713335.445
 109417418.249 8  85260416.09946  20821421.648                    20821426.961
 11  8 12  1 44 30.0000000  0  9G10G25G17G12G29G05G04G30G02
 112740865.954 7  87850142.23145  21453853.977                    21453861.352
 117858218.297 7  91837645.872 7  22427679.539                    22427689.613
 128052766.026 6  99781461.698 6  24367622.875                    24367632.543
 109075074.755 8  84993622.239 8  20756295.211                    20756302.059
 128842505.037 6 100396811.122 6  24517920.586                    24517930.156
 108520519.091 8  84561436.792 7  20650728.625                    20650736.508
 122090359.830 7  95135479.73644  23233008.547                    23233016.746
 114060062.145 7  88878056.86245  21704912.625                    21704920.441
 109440436.785 8  85278352.62846  20825802.125                    20825807.418
 11  8 12  1 45  0.0000000  0  9G10G25G17G12G29G05G04G30G02
 112799864.347 7  87896115.01545  21465080.953                    21465088.473
 117791111.006 7  91785354.548 7  22414909.375                    22414919.277
 128124646.122 6  99837472.152 5  24381300.750                    24381309.828
 109070587.340 8  84990125.563 7  20755441.594                    20755447.906
 128762026.161 7 100334100.445 5  24502606.148                    24502615.703
 108473492.368 8  84524792.639 8  20641779.258                    20641787.027
 122173016.944 7  95199887.87744  23248737.781                    23248746.234
 114016412.493 8  88844044.17745  21696606.516                    21696614.133
 109463633.846 7  85296428.26046  20830216.352                    20830221.508
 11  8 12  1 45 30.0000000  0  9G10G25G17G12G29G05G04G30G02
 112859382.872 8  87942493.08745  21476406.703                    21476414.402
 117724447.733 7  91733409.205 7  22402223.070                    22402233.625
 128196710.751 6  99893626.380 5  24395014.336                    24395023.352
 109066683.475 8  84987083.597 7  20754698.719                    20754705.438
 128681478.769 6 100271336.315 5  24487277.867                    24487286.352
 108427000.433 8  84488565.198 8  20632932.156                    20632940.004
 122255665.249 7  95264289.15444  23264464.711                    23264473.313
 113973333.367 8  88810476.06745  21688408.609                    21688416.551
 109487008.514 8  85314642.28846  20834664.344                    20834670.008
 11  8 12  1 46  0.0000000  0  9G10G25G17G12G29G05G04G30G02
 112919419.211 7  87989274.66645  21487831.547                    21487838.879
 117658230.689 7  91681811.575 7  22389622.992                    22389632.715
 128268959.759 6  99949924.300 5  24408761.867                    24408771.922
 109063363.244 8  84984496.410 7  20754066.766                    20754073.781
 128600863.384 6 100208519.216 5  24471937.469                    24471946.223
 108381044.529 8  84452755.450 8  20624187.141                    20624194.961
 122338303.682 7  95328682.72544  23280190.406                    23280198.902
 113930826.282 8  88777353.70945  21680319.641                    21680327.238
 109510559.655 8  85332993.82746  20839145.953                    20839150.934
 11  8 12  1 46 30.0000000  0  9G10G25G17G12G29G05G04G30G02
 112979971.061 7  88036457.94045  21499354.125                    21499361.527
 117592462.259 7  91630563.509 7  22377107.492                    22377118.473
 128341392.929 6 100006365.673 6  24422546.805                    24422555.051
 109060627.414 8  84982364.602 7  20753545.773                    20753552.840
 128520180.755 6 100145649.740 5  24456583.617                    24456592.805
 108335626.364 8  84417364.721 8  20615543.875                    20615551.934
 122420931.365 7  95393067.93444  23295914.359                    23295922.289
 113888892.847 8  88744678.35545  21672340.102                    21672347.672
 109534286.234 8  85351482.06146  20843661.094                    20843666.438
 11  8 12  1 47  0.0000000  0  9G10G25G17G12G29G05G04G30G02
 113041036.246 7  88084041.20745  21510974.211                    21510981.617
 117527144.553 7  91579666.679 7  22364677.727                    22364688.637
 128414010.213 6 100062950.546 6  24436366.516                    24436374.355
 109058475.618 8  84980687.886 7  20753136.719                    20753143.336
 128439431.435 6 100082728.256 5  24441217.406                    24441227.016
 108290747.156 8  84382393.947 8  20607004.031                    20607011.859
 122503547.381 6  95457444.04244  23311635.086                    23311644.133
 113847534.281 8  88712450.94845  21664470.094                    21664477.504
 109558187.170 8  85370106.16646  20848209.078                    20848214.359
 11  8 12  1 47 30.0000000  0  9G10G25G17G12G29G05G04G30G02
 113102612.372 7  88132022.62545  21522691.492                    21522699.441
 117462279.892 7  91529122.873 7  22352334.797                    22352344.730
 128486811.469 7 100119678.767 6  24450219.523                    24450228.387
 109056907.986 8  84979466.368 7  20752838.305                    20752845.359
 128358616.191 6 100019755.410 5  24425838.977                    24425848.199
 108246408.284 8  84347844.220 8  20598566.484                    20598574.434
 122586150.631 6  95521810.17744  23327354.344                    23327363.074
 113806752.216 8  88680672.75945  21656709.328                    21656717.414
 109582261.601 8  85388865.46246  20852789.969                    20852795.652
 11  8 12  1 48  0.0000000  0  9G10G25G17G12G29G05G04G30G02
 113164696.957 7  88180400.23145  21534505.930                    21534513.277
 117397870.266 8  91478933.632 7  22340077.719                    22340087.914
 128559796.567 7 100176550.240 6  24464108.359                    24464117.375
 109055924.944 8  84978700.370 7  20752651.164                    20752658.258
 128277735.696 6  99956731.678 5  24410447.172                    24410456.703
 108202610.839 8  84313716.379 8  20590232.242                    20590239.887
 122668740.176 7  95586165.65944  23343070.875                    23343078.758
 113766547.729 8  88649344.61945  21649058.672                    21649066.543
 109606508.315 8  85407758.99746  20857404.391                    20857410.039
 11  8 12  1 48 30.0000000  0  9G10G25G17G12G29G05G04G30G02
 113227287.597 7  88229172.15645  21546416.633                    21546424.086
 117333917.928 7  91429100.710 7  22327907.945                    22327917.879
 128632965.419 7 100233564.914 6  24478032.227                    24478040.789
 109055526.790 8  84978390.133 7  20752575.555                    20752582.609
 128196790.489 6  99893657.489 5  24395044.539                    24395053.570
 108159356.158 8  84280011.465 8  20582001.211                    20582008.477
 122751315.003 7  95650509.66844  23358784.375                    23358792.391
 113726922.310 8  88618467.70145  21641518.203                    21641525.695
 109630926.312 8  85426785.98946  20862051.078                    20862056.355
 11  8 12  1 49  0.0000000  0  9G10G25G17G12G29G05G04G30G02
 113290382.280 7  88278336.85545  21558423.234                    21558430.758
 117270425.343 7  91379626.061 7  22315825.563                    22315836.121
 128706317.848 6 100290722.639 6  24491990.258                    24491999.012
 109055714.051 8  84978536.061 7  20752611.086                    20752617.602
 128115781.148 6  99830533.341 6  24379629.047                    24379638.820
 108116645.995 8  84246730.859 8  20573873.383                    20573881.492
 122833874.637 7  95714841.84444  23374494.766                    23374503.215
 113687877.582 8  88588043.27045  21634087.711                    21634095.719
 109655514.829 8  85445945.87446  20866730.180                    20866735.410
 11  8 12  1 49 30.0000000  0  9G10G25G17G12G29G05G04G30G02
 113353978.395 7  88327892.26845  21570524.633                    21570532.688
 117207394.597 8  91330511.272 7  22303831.289                    22303841.430
 128779853.863 6 100348023.387 6  24505982.930                    24505992.672
 109056486.122 8  84979137.672 7  20752757.875                    20752765.211
 128034708.539 7  99767359.957 6  24364201.820                    24364211.078
 108074481.498 8  84213875.440 8  20565850.219                    20565857.457
 122916418.021 7  95779161.34144  23390201.891                    23390210.746
 113649414.835 7  88558072.33145  21626768.695                    21626776.055
 109680272.797 8  85465237.78946  20871441.336                    20871446.340
 11  8 12  1 50  0.0000000  0  8G10G25G12G29G05G04G30G02
 113418074.178 7  88377837.02945  21582722.367                    21582729.496
 117144828.443 7  91281758.498 7  22291925.625                    22291935.445
 109057843.856 8  84980195.651 7  20753016.375                    20753023.234
 127953573.941 7  99704138.235 6  24348761.828                    24348771.598
 108032864.338 8  84181446.528 8  20557930.250                    20557937.523
 122998944.759 7  95843467.87144  23405906.320                    23405914.988
 113611535.917 8  88528556.30045  21619560.781                    21619568.254
 109705199.900 8  85484661.50146  20876185.063                    20876190.133
 11  8 12  1 50 30.0000000  0  8G10G25G12G29G05G04G30G02
 113482666.296 7  88428168.56945  21595013.188                    21595021.070
 117082728.294 7  91233368.814 7  22280108.297                    22280118.000
 109059787.081 8  84981709.855 7  20753386.469                    20753393.570
 127872377.271 7  99640868.139 6  24333311.258                    24333320.426
 107991795.060 8  84149444.539 8  20550115.320                    20550122.578
 123081453.249 6  95907760.17943  23421607.672                    23421615.758
 113574241.376 7  88499495.63845  21612463.859                    21612471.746
 109730294.323 8  85504215.59546  20880960.250                    20880965.344
 11  8 12  1 51  0.0000000  0  8G10G25G12G29G05G04G30G02
 113547752.359 7  88478884.98245  21607399.070                    21607406.723
 117021095.859 7  91185343.601 7  22268379.672                    22268389.781
 109062315.022 8  84983679.677 7  20753867.125                    20753874.484
 127791118.868 7  99577549.968 6  24317848.133                    24317857.082
 107951274.504 8  84117870.116 8  20542404.828                    20542411.980
 123163942.294 6  95972037.34744  23437304.578                    23437313.242
 113537532.084 8  88470891.01845  21605478.117                    21605485.801
 109755554.539 8  85523898.88346  20885766.930                    20885772.293
 11  8 12  1 51 30.0000000  0  8G10G25G12G29G05G04G30G02
 113613330.167 7  88529984.58845  21619877.867                    21619885.754
 116959933.580 8  91137684.741 7  22256740.648                    22256751.012
 109065427.978 8  84986105.356 7  20754459.289                    20754466.504
 127709799.834 7  99514184.558 6  24302373.563                    24302382.602
 107911304.096 8  84086724.371 8  20534798.234                    20534805.594
 123246411.304 6  96036298.91343  23452997.289                    23453005.883
 113501409.637 8  88442743.66745  21598604.602                    21598611.613
 109780979.974 8  85543710.90746  20890605.180                    20890610.801
 11  8 12  1 52  0.0000000  0  8G10G25G12G29G05G04G30G02
 113679396.672 7  88581464.97745  21632450.195                    21632457.906
 116899243.263 8  91090393.649 7  22245192.039                    22245202.074
 109069125.494 8  84988986.526 7  20755163.336                    20755170.320
 127628422.32616  99450774.02216  24286886.898                    24286896.121
 107871884.630 8  84056007.943 8  20527296.914                    20527304.527
 123328858.966 6  96100543.82244  23468686.969                    23468695.590
 113465874.823 7  88415054.21645  21591842.289                    21591850.301
 109806569.234 8  85563650.59046  20895474.445                    20895480.180
 11  8 12  1 52 30.0000000  0  8G10G25G12G29G05G04G30G02
 113745950.472 7  88633325.08345  21645115.258                    21645122.434
 116839027.899 8  91043472.625 7  22233733.188                    22233743.270
 109073408.719 8  84992324.095 7  20755978.086                    20755985.316
 127546984.028 7  99387315.731 6  24271390.070                    24271398.535
 107833018.360 8  84025722.575 8  20519900.664                    20519908.176
 123411285.461 6  96164772.26144  23484372.531                    23484380.824
 113430929.796 7  88387824.34045  21585192.117                    21585200.129
 109832322.345 8  85583717.95346  20900375.055                    20900380.762
 11  8 12  1 53  0.0000000  0  8G10G25G12G29G05G04G30G02
 113812988.658 7  88685562.63645  21657871.914                    21657879.465
 116779289.071 8  90996922.909 7  22222365.219                    22222375.504
 109078276.958 8  84996117.519 7  20756904.750                    20756911.656
 127465487.414 6  99323811.956 6  24255881.391                    24255890.824
 107794705.798 8  83995868.670 8  20512610.102                    20512617.816
 123493689.472 6  96228983.17243  23500053.398                    23500061.930
 113396575.290 8  88361054.62045  21578655.266                    21578662.848
 109858237.858 8  85603911.86346  20905306.820                    20905312.020
 11  8 12  1 53 30.0000000  0  8G10G25G12G29G05G04G30G02
 113880508.134 7  88738175.20945  21670719.969                    21670728.063
 116720028.349 8  90950745.748 7  22211087.883                    22211098.230
 109083730.088 8  85000366.708 7  20757942.500                    20757949.621
 127383932.582 6  99260262.818 6  24240362.109                    24240371.309
 107756947.631 8  83966446.747 8  20505424.648                    20505432.879
 123576069.773 7  96293175.58844  23515729.539                    23515738.727
 113362811.896 7  88334745.50045  21572229.750                    21572237.770
 109884314.136 8  85624231.04546  20910268.813                    20910274.199
 11  8 12  1 54  0.0000000  0  8G10G25G12G29G05G04G30G02
 113948507.558 8  88791161.77945  21683660.242                    21683667.574
 116661248.676 8  90904943.436 7  22199902.461                    22199912.758
 109089768.630 8  85005072.059 7  20759091.398                    20759098.371
 127302321.263 7  99196669.631 6  24224832.313                    24224841.406
 107719745.573 8  83937458.166 8  20498345.867                    20498353.121
 123658426.138 7  96357349.37744  23531401.438                    23531409.809
 113329641.529 7  88308898.46745  21565917.930                    21565926.047
 109910551.493 8  85644675.75446  20915261.688                    20915267.094
 11  8 12  1 54 30.0000000  0  8G10G25G12G29G05G04G30G02
 114016983.909 7  88844519.98245  21696690.563                    21696698.461
 116602951.725 8  90859517.265 7  22188809.656                    22188819.371
 109096391.803 8  85010232.967 7  20760352.039                    20760359.023
 127220653.675 6  99133032.596 6  24209291.063                    24209299.813
 107683100.327 8  83908903.455 8  20491372.820                    20491380.250
 123740757.727 6  96421503.85144  23547068.563                    23547077.531
 113297065.026 7  88283514.18145  21559718.859                    21559726.770
 109936948.478 8  85665244.85046  20920285.102                    20920290.207
 11  8 12  1 55  0.0000000  0  8G10G25G12G29G05G04G30G02
 114085935.272 7  88898248.31245  21709811.555                    21709819.449
 116545139.985 7  90814469.181 7  22177807.961                    22177818.141
 109103599.998 8  85015849.727 7  20761723.258                    20761730.145
 127138930.880 6  99069352.550 6  24193739.719                    24193748.789
 107647013.184 8  83880783.636 8  20484505.180                    20484512.758
 123823064.061 6  96485638.65644  23562731.047                    23562739.988
 113265083.839 7  88258593.77545  21553632.914                    21553641.070
 109963504.543 8  85685937.90346  20925338.563                    20925343.906
 11  8 12  1 55 30.0000000  0  8G10G25G12G29G05G04G30G02
 114155357.997 8  88952343.93345  21723022.555                    21723030.199
 116487814.547 8  90769800.031 7  22166899.703                    22166909.461
 109111391.880 8  85021921.308 7  20763206.156                    20763213.234
 127057153.256 6  99005629.723 5  24178178.352                    24178186.695
 107611484.672 8  83853099.111 8  20477744.094                    20477751.402
 123905343.395 6  96549752.40344  23578388.109                    23578397.320
 113233698.188 7  88234137.43246  21547660.422                    21547668.176
 109990217.614 8  85706753.30246  20930421.695                    20930427.059
 11  8 12  1 56  0.0000000  0  8G10G25G12G29G05G04G30G02
 114225249.467 7  89006804.82245  21736322.227                    21736330.086
 116430977.564 8  90725511.491 7  22156083.883                    22156093.449
 109119767.812 8  85028448.005 7  20764800.070                    20764807.188
 126975321.517 6  98941864.762 6  24162605.484                    24162614.863
 107576515.802 8  83825850.681 8  20471090.063                    20471097.137
 123987595.312 7  96613844.78644  23594040.766                    23594049.422
 113202909.177 7  88210146.00945  21541801.281                    21541809.402
 110017087.235 8  85727690.68846  20935535.102                    20935539.969
 11  8 12  1 56 30.0000000  0  8G10G25G12G29G05G04G30G02
 114295608.050 7  89061629.69245  21749711.484                    21749718.973
 116374631.871 8  90681605.775 7  22145361.477                    22145370.805
 109128728.212 8  85035430.117 7  20766504.930                    20766512.195
 126893436.987 6  98878058.634 6  24147023.500                    24147032.668
 107542108.149 8  83799039.554 8  20464542.234                    20464549.781
 124069819.604 6  96677915.63543  23609687.016                    23609696.012
 113172718.710 7  88186620.98445  21536056.500                    21536064.363
 110044113.291 8  85748749.97746  20940678.109                    20940683.293
 11  8 12  1 57  0.0000000  0  8G10G25G12G29G05G04G30G02
 114366430.897 7  89116816.31745  21763188.648                    21763195.871
 116318778.730 8  90638083.857 7  22134732.797                    22134742.547
 109138272.287 8  85042867.041 7  20768321.273                    20768328.383
 126811500.401 6  98814211.951 6  24131431.602                    24131440.891
 107508262.094 8  83772666.037 8  20458101.586                    20458108.789
 124152015.015 7  96741964.00343  23625328.109                    23625337.406
 113143127.065 7  88163562.57345  21530425.414                    21530432.754
 110071294.201 8  85769929.92846  20945849.945                    20945855.125
 11  8 12  1 57 30.0000000  0  8G10G25G12G29G05G04G30G02
 114437714.865 7  89172362.26045  21776753.164                    21776760.688
 116263420.014 8  90594947.206 7  22124198.609                    22124208.430
 109148399.715 8  85050758.529 7  20770248.695                    20770255.672
 126729512.337 6  98750325.134 5  24115829.586                    24115839.070
 107474978.406 8  83746730.722 8  20451767.836                    20451775.281
 124234180.602 7  96805989.10543  23640964.008                    23640972.293
 113114135.002 8  88140971.35746  21524908.641                    21524915.996
 110098628.828 8  85791229.67346  20951051.695                    20951057.117
 11  8 12  1 58  0.0000000  0  8G10G25G12G29G05G04G30G02
 114509457.087 7  89228265.27545  21790405.273                    21790413.230
 116208557.366 8  90552197.102 7  22113758.531                    22113768.098
 109159109.719 8  85059103.966 7  20772286.586                    20772293.930
 126647473.306 7  98686398.643 6  24100218.258                    24100227.359
 107442257.764 8  83721234.157 8  20445541.234                    20445548.852
 124316315.488 7  96869990.30543  23656594.195                    23656601.672
 113085743.216 8  88118847.89946  21519505.313                    21519513.332
 110126115.869 8  85812648.16546  20956282.516                    20956287.578
 11  8 12  1 58 30.0000000  0  8G10G25G12G29G05G04G30G02
 114581654.829 7  89284523.23645  21804143.805                    21804152.191
 116154192.381 8  90509834.783 7  22103412.813                    22103422.820
 109170401.525 8  85067902.762 7  20774435.648                    20774442.688
 126565383.913 6  98622432.834 6  24084597.406                    24084605.688
 107410100.776 8  83696176.804 8  20439421.898                    20439429.340
 124398418.699 7  96933966.80343  23672217.352                    23672226.488
 113057952.307 7  88097192.64846  21514216.992                    21514225.047
 110153753.989 8  85834184.37546  20961541.297                    20961546.723
 11  8 12  1 59  0.0000000  0  8G10G25G12G29G05G04G30G02
 114654306.866 7  89341135.21045  21817969.422                    21817976.949
 116100328.019 8  90467862.575 7  22093163.070                    22093173.258
 109182276.021 8  85077155.603 7  20776695.188                    20776702.336
 126483245.988 7  98558429.271 6  24068967.250                    24068976.199
 107378509.157 8  83671559.994 8  20433410.414                    20433417.801
 124480490.451 7  96997918.80443  23687835.813                    23687843.953
 113030764.191 7  88076007.12246  21509043.547                    21509051.586
 110181543.938 8  85855838.90646  20966830.023                    20966835.172
 11  8 12  1 59 30.0000000  0  8G10G25G12G29G05G04G30G02
 114727410.411 7  89398099.00045  21831880.945                    21831888.402
 116046965.977 8  90426281.782 7  22083009.102                    22083018.500
 109194732.351 8  85086861.826 7  20779065.484                    20779072.813
 126401060.127 7  98494388.335 6  24053327.625                    24053336.934
 107347483.495 8  83647384.207 8  20427506.320                    20427513.984
 124562529.814 7  97061845.56343  23703447.289                    23703455.629
 113004179.462 7  88055291.77346  21503984.297                    21503992.535
 110209484.369 8  85877610.68846  20972146.648                    20972152.094
 11  8 12  2  0  0.0000000  0  8G10G25G12G29G05G04G30G02
 114800961.918 7  89455411.85345  21845876.594                    21845884.738
 115994107.613 8  90385093.461 7  22072949.898                    22072959.828
 109207769.948 8  85097020.987 7  20781546.617                    20781553.379
 126318827.097 7  98430310.702 6  24037679.352                    24037688.176
 107317024.281 8  83623649.796 8  20421710.164                    20421717.555
 124644535.819 7  97125746.37143  23719051.977                    23719060.879
 112978198.569 8  88035046.93746  21499040.617                    21499048.371
 110237573.957 8  85899498.69346  20977491.719                    20977497.023
 11  8 12  2  0 30.0000000  0  8G10G25G12G29G05G04G30G02
 114874959.199 7  89513072.07345  21859958.188                    21859965.578
 115941755.143 8  90344299.339 7  22062987.820                    22062997.496
 109221388.704 8  85107633.003 7  20784137.945                    20784145.379
 126236547.709 7  98366196.951 6  24022022.273                    24022031.332
 107287132.525 8  83600357.563 8  20416021.750                    20416029.223
 124726507.956 7  97189620.72643  23734650.781                    23734659.926
 112952822.485 8  88015273.38346  21494211.469                    21494219.520
 110265812.153 8  85921502.49546  20982865.766                    20982871.164
 11  8 12  2  1  0.0000000  0  8G10G25G12G29G05G04G30G02
 114949399.677 7  89571077.62345  21874123.844                    21874131.430
 115889910.250 8  90303900.729 7  22053122.008                    22053131.668
 109235587.938 8  85118697.326 7  20786839.867                    20786846.891
 126154222.955 7  98302047.859 6  24006356.086                    24006364.977
 107257808.491 8  83577507.713 8  20410441.664                    20410448.793
 124808445.417 7  97253468.10344  23750243.516                    23750251.953
 112928051.888 8  87995971.62746  21489498.156                    21489505.328
 110294197.857 8  85943621.23546  20988267.383                    20988272.574
 11  8 12  2  1 30.0000000  0  8G10G25G12G29G05G04G30G02
 115024280.589 7  89629426.37545  21888372.688                    21888380.734
 115838574.818 8  90263899.112 7  22043353.414                    22043362.969
 109250367.087 8  85130213.542 7  20789652.227                    20789659.676
 126071853.856 7  98237864.228 6  23990681.984                    23990690.691
 107229053.214 8  83555101.045 8  20404969.859                    20404976.855
 124890347.638 7  97317288.03743  23765828.914                    23765836.688
 112903887.593 8  87977142.31945  21484899.516                    21484907.777
 110322730.362 8  85965854.35746  20993696.867                    20993702.043
 11  8 12  2  2  0.0000000  0  8G10G25G12G29G05G04G30G02
 115099598.642 8  89688115.76245  21902705.602                    21902713.426
 115787750.262 8  90224295.582 7  22033681.281                    22033691.352
 109265725.164 8  85142180.868 7  20792575.023                    20792582.148
 125989440.710 6  98173646.300 6  23974998.461                    23975007.762
 107200867.111 8  83533137.891 8  20399605.773                    20399613.504
 124972213.803 7  97381079.86643  23781407.773                    23781416.109
 112880330.007 7  87958785.76646  21480416.422                    21480424.641
 110351408.258 8  85988200.76446  20999154.125                    20999159.402
 11  8 12  2  2 30.0000000  0  8G10G25G12G29G05G04G30G02
 115175352.271 7  89747144.56245  21917120.953                    21917128.754
 115737439.022 8  90185092.028 7  22024107.727                    22024117.668
 109281662.484 8  85154599.550 7  20795607.852                    20795614.688
 125906985.376 6  98109395.493 6  23959307.461                    23959316.660
 107173251.043 8  83511618.925 8  20394351.000                    20394358.000
 125054043.484 7  97444843.28343  23796978.891                    23796987.453
 112857380.355 8  87940902.92945  21476049.391                    21476057.504
 110380231.446 8  86010660.39846  21004639.250                    21004644.121
 11  8 12  2  3  0.0000000  0  8G10G25G12G29G05G04G30G02
 115251538.455 7  89806510.42745  21931618.797                    21931626.703
 115687642.442 8  90146289.530 7  22014631.703                    22014641.934
 109298178.000 8  85167468.762 7  20798750.109                    20798757.559
 125824488.172 6  98045112.080 6  23943609.242                    23943618.109
 107146205.818 8  83490544.760 8  20389203.898                    20389211.609
 125135836.094 7  97508577.79743  23812543.164                    23812551.848
 112835038.920 8  87923494.03246  21471797.586                    21471805.566
 110409198.789 8  86033232.34346  21010150.969                    21010155.863
 11  8 12  2  3 30.0000000  0  8G10G25G12G29G05G04G30G02
 115328153.785 7  89866210.69345  21946198.422                    21946206.059
 115638362.024 8  90107889.220 7  22005253.742                    22005263.563
 109315271.511 8  85180788.365 7  20802003.398                    20802010.398
 125741949.841 6  97980796.624 6  23927902.219                    23927911.410
 107119731.933 8  83469915.799 8  20384166.195                    20384173.926
 125217590.480 7  97572282.50343  23828101.016                    23828109.293
 112813306.101 8  87906559.38246  21467662.219                    21467670.598
 110438309.124 8  86055915.71446  21015690.648                    21015695.711
 11  8 12  2  4  0.0000000  0  8G10G25G12G29G05G04G30G02
 115405196.246 8  89926243.76745  21960858.883                    21960866.598
 115589599.973 8  90069892.839 7  21995974.516                    21995985.004
 109332941.748 8  85194557.366 7  20805365.453                    20805373.152
 125659372.107 6  97916450.455 6  23912187.898                    23912197.191
 107093829.950 8  83449732.475 8  20379237.125                    20379244.461
 125299306.614 7  97635957.39043  23843651.328                    23843659.430
 112792182.935 8  87890099.77645  21463643.055                    21463650.832
 110467562.221 8  86078710.33146  21021257.227                    21021262.578
 11  8 12  2  4 30.0000000  0  8G10G25G12G29G05G04G30G02
 115482662.368 7  89986606.98545  21975600.188                    21975607.637
 115541357.486 8  90032301.311 7  21986794.164                    21986804.609
 109351188.150 8  85208775.331 7  20808837.773                    20808844.898
 125576755.542 6  97852073.991 6  23896466.664                    23896476.223
 107068500.025 8  83429994.905 8  20374417.219                    20374424.656
 125380983.411 6  97699601.66243  23859193.695                    23859202.145
 112771669.529 8  87874115.29546  21459739.203                    21459746.863
 110496956.672 8  86101615.09046  21026850.758                    21026856.160
 11  8 12  2  5  0.0000000  0  8G10G25G12G29G05G04G30G02
 115560549.722 7  90047298.43045  21990421.922                    21990429.488
 115493636.399 8  89995116.075 7  21977713.180                    21977723.352
 109370010.198 8  85223441.858 7  20812420.063                    20812427.051
 125494100.678 6  97787667.708 6  23880737.961                    23880747.535
 107043742.709 8  83410703.527 8  20369706.117                    20369713.137
 125462620.367 7  97763214.88143  23874728.891                    23874736.785
 112751766.488 8  87858606.43545  21455951.641                    21455959.977
 110526491.620 8  86124629.32046  21032471.180                    21032476.461
 11  8 12  2  5 30.0000000  0  8G10G25G12G29G05G04G30G02
 115638856.012 7  90108316.33645  22005322.727                    22005330.219
 115446438.579 8  89958338.594 7  21968732.180                    21968741.707
 109389407.207 8  85238556.402 7  20816111.039                    20816118.109
 125411409.034 7  97723232.735 6  23865002.094                    23865010.844
 107019558.951 8  83391859.074 8  20365103.930                    20365111.391
 125544217.118 6  97826796.78543  23890256.242                    23890263.719
 112732474.705 8  87843573.88346  21452280.711                    21452288.598
 110556166.710 8  86147752.76046  21038118.266                    21038123.734
 11  8 12  2  6  0.0000000  0  8G10G25G12G29G05G04G30G02
 115717578.043 7  90169658.16845  22020303.219                    22020310.918
 115399765.181 8  89921969.720 7  21959850.281                    21959859.727
 109409378.264 8  85254118.246 7  20819911.219                    20819918.605
 125328681.330 7  97658769.663 6  23849260.281                    23849268.129
 106995948.849 8  83373461.627 8  20360611.211                    20360618.641
 125625772.503 6  97890346.43343  23905775.281                    23905784.121
 112713794.041 8  87829017.51646  21448725.938                    21448734.004
 110585980.558 8  86170984.31846  21043791.688                    21043796.789
 11  8 12  2  6 30.0000000  0  8G10G25G12G29G05G04G30G02
 115796712.970 7  90231321.74345  22035362.648                    22035370.234
 115353617.960 8  89886010.851 7  21951069.141                    21951078.691
 109429922.623 8  85270126.834 7  20823820.531                    20823827.613
 125245918.699 7  97594279.346 6  23833510.664                    23833518.766
 106972912.644 8  83355511.372 8  20356227.273                    20356234.984
 125707286.309 6  97953863.69143  23921286.563                    23921295.711
 112695725.123 8  87814937.84746  21445287.531                    21445295.238
 110615932.519 8  86194323.49446  21049491.008                    21049496.422
 11  8 12  2  7  0.0000000  0  8G10G25G12G29G05G04G30G02
 115876258.251 7  90293305.08545  22050499.156                    22050506.336
 115307998.732 8  89850463.415 7  21942387.352                    21942397.551
 109451039.724 8  85286581.708 7  20827839.625                    20827846.730
 125163122.209 7  97529762.631 6  23817754.461                    23817763.102
 106950451.312 8  83338009.074 8  20351953.281                    20351960.328
 125788758.064 6  98017348.12943  23936790.102                    23936798.707
 112678268.607 8  87801335.37545  21441965.844                    21441973.402
 110646022.190 8  86217769.98346  21055217.281                    21055222.613
 11  8 12  2  7 30.0000000  0  8G10G25G12G29G05G04G30G02
 115956211.115 7  90355606.02445  22065713.906                    22065720.961
 115262909.260 8  89815328.770 7  21933807.242                    21933817.008
 109472728.743 8  85303482.237 7  20831966.625                    20831973.164
 125080292.800 7  97465220.225 6  23801992.617                    23802001.230
 106928565.200 8  83320955.001 8  20347788.414                    20347795.191
 125870187.379 6  98080799.51843  23952286.328                    23952294.480
 112661425.076 8  87788210.55146  21438760.570                    21438767.918
 110676248.813 8  86241323.18646  21060969.023                    21060974.328
 11  8 12  2  8  0.0000000  0  8G10G25G12G29G05G04G30G02
 116036568.885 7  90418222.48245  22081004.758                    22081012.504
 115218350.714 8  89780607.837 7  21925327.719                    21925337.645
 109494988.845 8  85320827.760 7  20836202.383                    20836209.461
 124997431.326 7  97400652.879 6  23786225.023                    23786233.652
 106907254.254 8  83304349.098 8  20343732.852                    20343740.391
 125951573.159 7  98144217.03143  23967773.398                    23967781.770
 112645194.532 8  87775563.37145  21435671.945                    21435679.652
 110706611.056 8  86264982.06146  21066746.781                    21066752.160
 11  8 12  2  8 30.0000000  0  8G10G25G12G29G05G04G30G02
 116117328.725 7  90481152.22745  22096373.313                    22096380.766
 115174324.616 8  89746301.785 7  21916950.281                    21916960.359
 109517818.731 8  85338617.272 7  20840546.836                    20840554.055
 124914538.842 6  97336061.357 6  23770450.953                    23770459.574
 106886519.017 8  83288191.800 8  20339787.117                    20339794.598
 126032915.261 6  98207600.49543  23983252.438                    23983260.461
 112629577.238 8  87763394.05545  21432699.703                    21432707.652
 110737108.261 8  86288746.10946  21072550.180                    21072555.797
 11  8 12  2  9  0.0000000  0  8G10G25G12G29G05G04G30G02
 116198487.848 7  90544393.09845  22111816.695                    22111824.914
 115130832.699 8  89712411.967 7  21908674.219                    21908683.973
 109541217.740 8  85356850.249 7  20844999.625                    20845006.359
 124831616.694 6  97271446.704 6  23754671.023                    23754680.285
 106866360.003 8  83272483.515 8  20335951.047                    20335957.938
 126114213.143 6  98270949.50143  23998722.023                    23998730.730
 112614573.757 8  87751703.03345  21429844.977                    21429852.531
 110767739.927 8  86312614.93546  21078379.180                    21078384.234
 11  8 12  2  9 30.0000000  0  8G10G25G12G29G05G04G30G02
 116280043.592 7  90607943.02545  22127336.516                    22127344.301
 115087876.486 8  89678939.589 7  21900499.617                    21900509.379
 109565185.017 8  85375526.045 7  20849560.344                    20849567.574
 124748666.058 7  97206809.875 6  23738886.633                    23738895.195
 106846777.133 8  83257224.165 8  20332224.414                    20332231.766
 126195466.275 6  98334263.61343  24014184.531                    24014193.078
 112600184.373 8  87740490.54046  21427106.570                    21427114.398
 110798505.309 8  86336587.95146  21084233.875                    21084238.805
 11  8 12  2 10  0.0000000  0  8G10G25G12G29G05G04G30G02
 116361992.981 7  90671799.69345  22142931.344                    22142938.488
 115045457.230 8  89645885.641 7  21892427.688                    21892437.289
 109589719.503 8  85394643.819 7  20854229.000                    20854235.926
 124665687.724 7  97142151.463 6  23723095.656                    23723104.766
 106827770.794 8  83242414.057 8  20328607.891                    20328615.176
 126276674.033 6  98397542.37343  24029638.336                    24029646.648
 112586409.137 8  87729756.59145  21424485.281                    21424492.867
 110829403.343 8  86360664.34546  21090113.734                    21090118.535
 11  8 12  2 10 30.0000000  0  8G10G25G12G29G05G04G30G02
 116444333.180 7  90735960.89445  22158600.281                    22158607.727
 115003576.383 8  89613251.216 7  21884457.703                    21884467.426
 109614820.230 8  85414202.820 7  20859005.539                    20859012.586
 124582682.627 7  97077472.195 6  23707300.797                    23707309.168
 106809341.164 8  83228053.334 8  20325100.539                    20325107.727
 126357835.779 6  98460785.30843  24045082.164                    24045091.402
 112573248.273 8  87719501.37645  21421980.914                    21421987.789
 110860433.204 8  86384843.45746  21096018.227                    21096023.609
 11  8 12  2 11  0.0000000  0  8G10G25G12G29G05G04G30G02
 116527061.099 7  90800424.20545  22174342.875                    22174350.316
 114962235.236 8  89581037.347 7  21876590.836                    21876600.652
 109640486.199 8  85434202.281 7  20863889.859                    20863896.648
 124499652.105 7  97012773.141 6  23691500.234                    23691508.574
 106791488.436 8  83214142.140 8  20321703.445                    20321710.211
 126438950.872 6  98523991.82043  24060517.984                    24060526.828
 112560701.863 8  87709724.96146  21419593.148                    21419600.707
 110891594.081 8  86409124.66146  21101948.258                    21101953.418
 11  8 12  2 11 30.0000000  0  8G10G25G12G29G05G04G30G02
 116610174.572 7  90865187.96345  22190158.633                    22190166.293
 114921435.789 8  89549245.565 7  21868827.094                    21868836.938
 109666716.672 8  85454641.597 7  20868881.227                    20868888.160
 124416597.471 7  96948055.304 6  23675695.555                    23675704.273
 106774213.303 8  83200681.030 8  20318415.906                    20318423.391
 126520019.443 6  98587162.15143  24075944.500                    24075953.766
 112548770.591 8  87700427.87746  21417323.031                    21417330.172
 110922885.935 8  86433507.93346  21107902.586                    21107907.738
 11  8 12  2 12  0.0000000  0  8G10G25G12G29G05G04G30G02
 116693670.149 7  90930249.45044  22206047.305                    22206054.824
 114881178.745 8  89517876.427 7  21861166.719                    21861176.438
 109693510.203 8  85475519.676 7  20873980.281                    20873986.574
 124333519.261 7  96883319.113 6  23659885.742                    23659895.387
 106757515.387 8  83187669.689 8  20315238.508                    20315245.793
 126601040.433 6  98650295.36943  24091362.727                    24091371.859
 112537454.003 8  87691609.76445  21415169.164                    21415176.910
 110954307.119 8  86457991.97846  21113881.992                    21113887.297
 11  8 12  2 12 30.0000000  0  8G10G25G12G29G05G04G30G02
 116777545.085 7  90995606.52945  22222008.125                    22222015.801
 114841465.472 8  89486931.016 7  21853609.648                    21853619.063
 109720865.903 8  85496835.809 7  20879185.719                    20879192.215
 124250418.837 7  96818565.594 6  23644072.906                    23644081.492
 106741394.546 8  83175108.011 8  20312170.422                    20312177.797
 126682013.241 6  98713391.05343  24106771.117                    24106780.121
 112526752.120 8  87683270.62145  21413133.063                    21413140.563
 110985857.094 8  86482576.38446  21119885.664                    21119890.895
 11  8 12  2 13  0.0000000  0  8G10G25G12G29G05G04G30G02
 116861796.772 7  91061257.19545  22238041.273                    22238048.047
 114802297.685 8  89456410.672 7  21846155.938                    21846165.707
 109748782.612 8  85518589.097 7  20884497.828                    20884504.953
 124167297.394 7  96753795.694 6  23628256.078                    23628263.883
 106725851.323 8  83162996.428 8  20309212.992                    20309219.945
 126762937.954 6  98776449.26443  24122169.852                    24122179.422
 112516665.444 8  87675410.86745  21411213.484                    21411221.176
 111017535.445 8  86507260.82546  21125913.758                    21125919.219
 11  8 12  2 13 30.0000000  0  8G10G25G12G29G05G04G30G02
 116946422.294 7  91127199.16845  22254144.344                    22254152.070
 114763676.661 8  89426316.380 7  21838806.453                    21838816.473
 109777259.440 8  85540778.845 7  20889916.797                    20889923.676
 124084155.994 7  96689010.253 6  23612434.094                    23612442.832
 106710886.071 8  83151335.209 8  20306365.227                    20306372.469
 126843813.933 6  98839469.46843  24137561.141                    24137569.695
 112507193.966 8  87668030.49045  21409411.242                    21409418.574
 111049341.454 8  86532044.73746  21131966.141                    21131971.523
 11  8 12  2 14  0.0000000  0  8G10G25G12G29G05G04G30G02
 117031418.501 7  91193429.96544  22270318.844                    22270326.535
 114725603.287 8  89396648.820 7  21831561.102                    21831571.273
 109806294.693 8  85563403.715 7  20895442.055                    20895449.270
 124000995.670 7  96624210.016 6  23596609.492                    23596617.355
 106696498.102 8  83140123.835 8  20303627.156                    20303634.215
 126924640.424 6  98902451.16343  24152941.414                    24152950.258
 112498337.351 8  87661129.23746  21407725.703                    21407733.844
 111081273.866 8  86556927.13946  21138042.789                    21138048.270
 11  8 12  2 14 30.0000000  0  8G10G25G12G29G05G04G30G02
 117116783.262 7  91259947.95345  22286563.086                    22286570.523
 114688079.712 8  89367409.684 7  21824420.758                    21824430.813
 109835887.864 8  85586463.319 7  20901073.422                    20901080.277
 123917818.419 7  96559396.642 6  23580781.367                    23580789.352
 106682688.392 8  83129363.036 8  20300999.227                    20301006.289
 127005417.564 6  98965394.41843  24168313.672                    24168321.602
 112490096.420 8  87654707.73646  21406157.516                    21406165.758
 111113333.098 8  86581908.37446  21144143.711                    21144148.758
 11  8 12  2 15  0.0000000  0  8G10G25G12G29G05G04G30G02
 117202513.280 7  91326750.56445  22302877.211                    22302884.477
 114651106.418 8  89338599.345 7  21817385.078                    21817395.285
 109866037.441 8  85609956.489 7  20906810.781                    20906818.035
 123834624.453 7  96494570.245 6  23564949.938                    23564957.801
 106669456.444 8  83119052.462 8  20298481.203                    20298488.203
 127086144.457 6  99028298.47143  24183675.445                    24183683.395
 112482470.338 8  87648765.33246  21404706.156                    21404713.680
 111145517.498 8  86606987.13146  21150267.852                    21150273.219
 11  8 12  2 15 30.0000000  0  8G10G25G12G29G05G04G30G02
 117288605.781 7  91393835.61344  22319259.555                    22319267.305
 114614684.984 8  89310219.019 7  21810454.281                    21810464.199
 109896742.392 8  85633882.409 7  20912653.672                    20912660.891
 123751415.507 7  96429732.155 6  23549115.398                    23549123.527
 106656802.179 8  83109192.020 8  20296073.328                    20296080.426
 127166820.886 6  99091163.23743  24199027.242                    24199035.066
 112475459.517 8  87643302.35645  21403371.961                    21403380.063
 111177826.894 8  86632163.29546  21156416.133                    21156421.688
 11  8 12  2 16  0.0000000  0  8G10G25G12G29G05G04G30G02
 117375057.687 7  91461200.72944  22335711.063                    22335718.070
 114578816.372 8  89282269.458 7  21803628.852                    21803638.680
 109928001.067 8  85658239.810 7  20918602.289                    20918608.992
 123668192.346 7  96364883.002 6  23533278.727                    23533287.348
 106644725.255 8  83099781.441 8  20293774.938                    20293782.098
 127247446.093 6  99153988.08543  24214369.750                    24214378.145
 112469063.538 8  87638318.47946  21402154.961                    21402162.695
 111210259.931 8  86657435.80546  21162587.891                    21162593.203
 11  8 12  2 16 30.0000000  0  8G10G25G12G29G05G04G30G02
 117461865.769 7  91528843.38444  22352230.266                    22352237.688
 114543501.621 8  89254751.481 7  21796908.328                    21796918.215
 109959812.143 8  85683027.649 7  20924655.422                    20924662.750
 123584956.133 7  96300023.659 6  23517439.891                    23517447.180
 106633225.823 8  83090820.866 8  20291586.930                    20291593.703
 127328019.811 6  99216772.79843  24229702.547                    24229710.773
 112463282.022 8  87633813.39345  21401054.992                    21401062.465
 111242815.888 8  86682804.09146  21168783.070                    21168788.203
 11  8 12  2 17  0.0000000  0  8G10G25G12G29G05G04G30G02
 117549027.607 7  91596761.68645  22368816.797                    22368824.242
 114508741.780 8  89227665.905 7  21790293.750                    21790303.387
 109992174.745 8  85708245.259 7  20930813.758                    20930821.051
 123501708.035 7  96235155.061 6  23501597.633                    23501605.773
 106622303.638 8  83082310.097 8  20289508.469                    20289515.531
 127408541.455 6  99279516.90843  24245024.453                    24245033.441
 112458114.827 8  87629786.99945  21400071.641                    21400079.430
 111275494.299 8  86708267.79946  21175002.047                    21175006.863
 11  8 12  2 17 30.0000000  0  8G10G25G12G29G05G04G30G02
 117636540.953 7  91664953.89844  22385469.625                    22385477.027
 114474539.149 8  89201014.510 7  21783785.086                    21783795.293
 110025087.850 8  85733891.833 7  20937076.789                    20937084.066
 123418450.178 6  96170278.864 6  23485753.773                    23485762.633
 106611959.562 8  83074249.800 8  20287539.820                    20287547.199
 127489011.505 6  99342220.84043  24260337.711                    24260346.551
 112453562.904 8  87626240.04046  21399205.430                    21399213.293
 111308295.565 8  86733827.23746  21181243.570                    21181248.910
 11  8 12  2 18  0.0000000  0  8G10G25G12G29G05G04G30G02
 117724402.278 7  91733417.26144  22402189.594                    22402196.723
 114440893.695 8  89174797.283 7  21777382.789                    21777393.309
 110058549.320 8  85759965.698 7  20943444.617                    20943451.762
 123335182.992 7  96105395.397 6  23469908.258                    23469916.770
 106602192.489 8  83066639.118 8  20285681.078                    20285688.195
 127569428.851 6  99404883.65343  24275641.195                    24275650.051
 112449624.852 8  87623171.42646  21398455.805                    21398463.488
 111341217.763 8  86759480.91146  21187508.703                    21187513.668
 11  8 12  2 18 30.0000000  0  8G10G25G12G29G05G04G30G02
 117812608.852 7  91802149.63845  22418975.055                    22418982.086
 114407806.993 8  89149015.457 7  21771086.922                    21771096.805
 110092558.237 8  85786466.156 7  20949916.258                    20949923.492
 123251908.057 7  96040505.908 6  23454061.781                    23454070.172
 106593002.713 8  83059478.276 8  20283932.469                    20283939.828
 127649793.339 6  99467505.30643  24290933.867                    24290942.277
 112446301.020 7  87620581.41446  21397823.656                    21397831.332
 111374260.701 8  86785228.66046  21193796.578                    21193801.535
 11  8 12  2 19  0.0000000  0  8G10G25G12G29G05G04G30G02
 117901157.942 7  91871148.89944  22435825.266                    22435831.945
 114375280.087 8  89123669.828 7  21764897.164                    21764907.004
 110127113.254 8  85813392.147 7  20956491.891                    20956498.973
 123168626.676 7  95975611.406 6  23438213.906                    23438222.543
 106584389.792 8  83052766.935 8  20282293.461                    20282300.453
 127730104.450 6  99530085.38543  24306217.078                    24306225.605
 112443591.109 8  87618469.79346  21397307.734                    21397315.848
 111407423.914 8  86811070.13946  21200106.914                    21200112.211
 11  8 12  2 19 30.0000000  0  9G10G25G26G12G29G05G04G30G02
 117990046.250 7  91940412.52244  22452739.719                    22452746.793
 114343313.694 8  89098760.973 7  21758813.883                    21758824.348
 130368793.53516 101586139.37553  24808363.406                    24808373.801
 110162212.639 8  85840742.316 7  20963170.672                    20963178.195
 123085339.705 6  95910712.546 6  23422364.688                    23422373.164
 106576353.219 8  83046504.701 8  20280764.180                    20280771.313
 127810361.719 6  99592623.48243  24321488.992                    24321497.762
 112441494.480 8  87616836.06046  21396908.813                    21396916.434
 111440706.083 8  86837004.30946  21206440.492                    21206446.039
 11  8 12  2 20  0.0000000  0  9G10G25G26G12G29G05G04G30G02
 118079271.326 7  92009938.55044  22469719.422                    22469726.395
 114311909.285 8  89074290.009 7  21752838.133                    21752847.855
 130275167.607 6 101513184.24943  24790547.109                    24790557.535
 110197855.613 8  85868516.069 7  20969953.383                    20969960.637
 123002048.594 7  95845810.469 6  23406515.109                    23406523.707
 106568893.559 8  83040692.004 8  20279344.758                    20279351.758
 127890565.145 6  99655119.63043  24336751.391                    24336759.797
 112440011.174 8  87615680.24046  21396626.367                    21396634.438
 111474107.328 8  86863031.26846  21212796.289                    21212801.547
 11  8 12  2 20 30.0000000  0  9G10G25G26G12G29G05G04G30G02
 118168829.847 7  92079724.38944  22486761.047                    22486768.809
 114281067.459 8  89050257.434 7  21746968.875                    21746978.813
 130181416.679 6 101440131.76643  24772705.961                    24772717.352
 110234039.978 8  85896711.679 7  20976839.039                    20976846.488
 122918754.568 7  95780906.082 6  23390664.758                    23390673.582
 106562009.668 8  83035327.969 8  20278034.609                    20278041.820
 127970714.179 7  99717573.41743  24352003.391                    24352011.547
 112439140.550 8  87615001.83046  21396461.227                    21396469.195
 111507626.638 8  86889150.22946  21219175.063                    21219180.105
 11  8 12  2 21  0.0000000  0  9G10G25G26G12G29G05G04G30G02
 118258719.116 7  92149767.96244  22503866.117                    22503873.867
 114250789.381 8  89026664.143 7  21741207.117                    21741217.242
 130087543.716 6 101366984.13743  24754843.250                    24754853.625
 110270764.720 8  85925328.362 7  20983827.453                    20983834.789
 122835459.350 7  95716000.769 6  23374814.563                    23374822.258
 106555701.733 8  83030412.725 8  20276834.328                    20276841.313
 128050808.427 7  99779984.52843  24367244.719                    24367252.629
 112438882.333 8  87614800.61046  21396411.969                    21396419.965
 111541263.445 8  86915360.74046  21225575.781                    21225580.672
 11  8 12  2 21 30.0000000  0  9G10G25G26G12G29G05G04G30G02
 118348936.262 7  92220067.01544  22521034.508                    22521041.605
 114221075.931 8  89003510.833 7  21735552.781                    21735562.848
 129993551.807 6 101293743.89143  24736957.320                    24736967.441
 110308028.160 8  85954364.819 7  20990918.703                    20990926.027
 122752163.684 7  95651095.137 6  23358963.188                    23358972.605
 106549969.301 8  83025945.911 8  20275743.297                    20275750.453
 128130847.351 7  99842352.53543  24382475.859                    24382483.316
 112439236.077 8  87615076.25146  21396479.336                    21396487.387
 111575017.106 8  86941662.30746  21231998.945                    21232004.473
 11  8 12  2 22  0.0000000  0  9G10G25G26G12G29G05G04G30G02
 118439478.436 7  92290619.36044  22538263.688                    22538271.426
 114191928.037 8  88980798.206 7  21730006.125                    21730016.570
 129899443.491 6 101220412.87743  24719048.906                    24719058.801
 110345828.614 8  85983819.720 7  20998112.000                    20998119.238
 122668869.081 7  95586190.291 6  23343113.039                    23343121.094
 106544812.143 8  83021927.373 8  20274761.844                    20274769.328
 128210831.109 6  99904677.53842  24397694.805                    24397704.340
 112440201.351 8  87615828.41846  21396662.867                    21396670.836
 111608887.010 7  86968054.44646  21238444.422                    21238448.988
 11  8 12  2 22 30.0000000  0  9G10G25G26G12G29G05G04G30G02
 118530342.775 7  92361422.71844  22555554.820                    22555562.070
 114163346.796 8  88958527.114 7  21724567.688                    21724577.746
 129805221.956 6 101146993.67043  24701117.758                    24701129.359
 110384164.858 8  86013692.120 7  21005407.234                    21005414.371
 122585577.063 7  95521287.491 6  23327263.281                    23327271.352
 106540229.876 8  83018356.805 8  20273889.984                    20273896.957
 128290759.345 6  99966959.29242  24412905.766                    24412913.668
 112441777.857 7  87617056.85646  21396962.781                    21396970.555
 111642872.767 7  86994536.86246  21244911.734                    21244916.215
 11  8 12  2 23  0.0000000  0  9G10G25G26G12G29G05G04G30G02
 118621525.957 7  92432474.52944  22572906.320                    22572913.875
 114135332.767 8  88936698.012 7  21719236.742                    21719246.270
 129710889.957 6 101073488.39743  24683167.828                    24683178.633
 110423035.032 8  86043980.558 7  21012803.805                    21012810.781
 122502288.594 7  95456387.477 6  23311413.672                    23311422.012
 106536221.667 8  83015233.554 8  20273127.211                    20273134.492
 128370631.446 6 100029197.26442  24428104.555                    24428112.898
 112443964.811 8  87618760.97645  21397379.148                    21397387.020
 111676973.321 7  87021108.72946  21251400.016                    21251405.836
 11  8 12  2 23 30.0000000  0  9G10G25G26G12G29G05G04G30G02
 118713025.516 7  92503772.88144  22590318.063                    22590325.773
 114107886.887 8  88915311.623 7  21714013.930                    21714023.891
 129616450.529 6 100999899.44343  24665196.211                    24665206.680
 110462437.673 8  86074683.903 7  21020301.820                    21020308.727
 122419005.283 7  95391491.430 6  23295565.742                    23295573.008
 106532787.434 8  83012557.562 8  20272473.508                    20272480.926
 128450447.131 6 100091391.30043  24443293.695                    24443301.441
 112446761.743 7  87620940.39246  21397911.352                    21397918.879
 111711188.321 8  87047769.77846  21257911.500                    21257917.082
 11  8 12  2 24  0.0000000  0  9G10G25G26G12G29G05G04G30G02
 118804838.428 7  92575315.40144  22607789.734                    22607796.508
 114081010.124 8  88894368.715 7  21708899.484                    21708909.688
 129521906.654 6 100926229.04543  24647205.531                    24647216.102
 110502370.913 8  86105800.703 7  21027900.914                    21027907.508
 122335728.152 6  95326600.206 6  23279718.195                    23279726.488
 106529926.841 8  83010328.559 8  20271929.313                    20271936.477
 128530206.358 6 100153541.30743  24458470.930                    24458478.992
 112450168.265 8  87623594.80546  21398559.555                    21398567.035
 111745517.044 8  87074519.43746  21264444.164                    21264449.313
 11  8 12  2 24 30.0000000  0  9G10G25G26G12G29G05G04G30G02
 118896961.930 7  92647099.92344  22625320.133                    22625327.770
 114054703.225 8  88873869.839 7  21703893.516                    21703903.094
 129427261.199 6 100852479.48743  24629194.383                    24629205.160
 110542833.551 8  86137330.019 7  21035600.992                    21035607.910
 122252458.941 6  95261715.163 6  23263872.469                    23263880.121
 106527639.242 8  83008546.033 8  20271493.688                    20271500.992
 128609908.647 6 100215646.98943  24473637.773                    24473647.328
 112454183.696 8  87626723.71346  21399323.813                    21399331.352
 111779959.238 8  87101357.51046  21270997.883                    21271003.121
 11  8 12  2 25  0.0000000  0  9G10G25G26G12G29G05G04G30G02
 118989393.202 6  92719124.25444  22642909.031                    22642916.371
 114028967.151 8  88853815.771 7  21698995.930                    21699005.762
 129332517.177 6 100778653.12543  24611165.438                    24611175.863
 110583823.823 8  86169270.480 7  21043400.977                    21043408.016
 122169199.283 6  95196837.534 6  23248028.570                    23248036.555
 106525924.575 8  83007209.961 8  20271167.727                    20271174.598
 128689554.101 7 100277708.36843  24488794.078                    24488803.387
 112458807.750 8  87630326.87346  21400203.328                    21400211.191
 111814514.470 8  87128283.65846  21277573.711                    21277579.070
 11  8 12  2 25 30.0000000  0  9G10G25G26G12G29G05G04G30G02
 119082129.089 7  92791385.96744  22660555.805                    22660563.695
 114003802.446 8  88834206.916 7  21694206.656                    21694217.328
 129237677.530 6 100704752.27542  24593117.680                    24593128.137
 110625340.058 8  86201620.787 7  21051301.188                    21051308.168
 122085950.196 7  95131968.155 6  23232187.281                    23232195.078
 106524781.961 8  83006319.631 8  20270949.977                    20270957.070
 128769142.138 7 100339724.99043  24503939.641                    24503948.270
 112464039.493 8  87634403.56146  21401199.211                    21401207.090
 111849182.069 8  87155297.37646  21284170.805                    21284175.953
 11  8 12  2 26  0.0000000  0  9G10G25G26G12G29G05G04G30G02
 119175166.785 7  92863882.86244  22678260.320                    22678268.000
 113979209.764 8  88815043.791 7  21689527.141                    21689537.199
 129142745.391 6 100630779.40643  24575052.828                    24575063.082
 110667380.685 8  86234379.695 7  21059301.305                    21059308.180
 122002713.032 7  95067108.060 6  23216347.688                    23216355.262
 106524210.774 8  83005874.576 8  20270841.500                    20270848.594
 128848672.291 7 100401696.55943  24519073.008                    24519081.688
 112469878.144 8  87638953.15646  21402310.453                    21402318.066
 111883961.306 7  87182398.07846  21290788.781                    21290793.930
 11  8 12  2 26 30.0000000  0  9G10G25G26G12G29G05G04G30G02
 119268503.493 7  92936612.73544  22696022.422                    22696029.652
 113955190.036 8  88796327.129 7  21684956.570                    21684966.793
 129047723.680 6 100556736.66943  24556970.719                    24556980.832
 110709943.631 8  86267545.610 7  21067400.844                    21067407.867
 121919489.200 7  95002258.371 6  23200510.469                    23200519.023
 106524210.694 8  83005874.546 8  20270841.352                    20270848.465
 128928144.705 7 100463623.08743  24534196.359                    24534204.543
 112476323.276 8  87643975.31745  21403536.641                    21403544.613
 111918851.835 8  87209585.50046  21297428.383                    21297433.492
 11  8 12  2 27  0.0000000  0  9G10G25G26G12G29G05G04G30G02
 119362136.170 6  93009573.25244  22713839.648                    22713847.293
 113931743.745 8  88778057.289 7  21680494.766                    21680504.758
 128952615.101 6 100482626.27943  24538872.500                    24538881.707
 110753027.547 8  86301117.479 7  21075599.313                    21075606.227
 121836280.388 7  94937420.381 6  23184676.336                    23184684.516
 106524780.880 8  83006318.874 8  20270950.164                    20270957.383
 129007558.903 6 100525504.30043  24549308.000                    24549316.480
 112483373.919 8  87649469.31646  21404878.211                    21404886.133
 111953852.762 8  87236858.93446  21304088.930                    21304094.281
 11  8 12  2 27 30.0000000  0  9G10G25G26G12G29G05G04G30G02
 119456061.851 7  93082762.06444  22731713.383                    22731721.320
 113908871.547 8  88760234.795 7  21676142.344                    21676152.078
 128857422.766 7 100408450.61543  24520756.898                    24520767.824
 110796630.138 8  86335093.509 7  21083896.773                    21083903.727
 121753087.667 7  94872594.900 6  23168845.453                    23168853.336
 106525920.648 8  83007207.034 8  20271166.789                    20271174.039
 129086914.805 6 100587340.05142  24564409.172                    24564418.145
 112491029.375 8  87655434.58546  21406335.477                    21406343.293
 111988963.731 7  87264218.12946  21310770.258                    21310775.477
 11  8 12  2 28  0.0000000  0  9G10G25G26G12G29G05G04G30G02
 119550277.670 7  93156176.94844  22749642.133                    22749649.520
 113886574.230 8  88742860.253 7  21671899.477                    21671909.367
 128762149.960 6 100334212.23343  24502627.227                    24502637.848
 110840749.702 8  86369472.370 7  21092292.117                    21092299.004
 121669912.615 7  94807783.213 6  23153018.180                    23153026.746
 106527629.550 8  83008538.677 8  20271491.984                    20271499.340
 129166211.940 6 100649130.06342  24579498.797                    24579507.375
 112499289.020 8  87661870.67846  21407906.961                    21407914.418
 112024184.357 7  87291662.75946  21317472.633                    21317477.758
 11  8 12  2 28 30.0000000  0  9G10G25G26G12G29G05G04G30G02
 119644781.022 7  93229815.91044  22767625.555                    22767633.207
 113864852.243 8  88725934.013 7  21667765.938                    21667775.781
 128666799.786 6 100259913.53743  24484482.203                    24484492.758
 110885384.670 8  86404252.847 7  21100785.859                    21100793.117
 121586756.478 7  94742986.231 6  23137193.633                    23137201.664
 106529906.945 8  83010313.296 8  20271925.266                    20271932.117
 129245450.336 6 100710874.30942  24594576.859                    24594585.320
 112508151.995 8  87668776.89746  21409593.078                    21409600.820
 112059514.003 7  87319192.34346  21324195.625                    21324200.902
 11  8 12  2 29  0.0000000  0  9G10G25G26G12G29G05G04G30G02
 119739568.653 7  93303676.37544  22785662.977                    22785670.383
 113843706.502 8  88709456.809 7  21663741.961                    21663751.746
 128571375.315 6 100185556.99443  24466323.484                    24466334.215
 110930533.383 8  86439433.649 7  21109377.727                    21109385.168
 121503621.260 7  94678205.564 6  23121373.531                    23121381.383
 106532752.501 8  83012530.640 8  20272466.828                    20272473.930
 129324629.811 6 100772572.58742  24609643.914                    24609652.840
 112517617.644 8  87676152.72446  21411394.938                    21411402.398
 112094952.896 8  87346807.06146  21330939.492                    21330944.277
 11  8 12  2 29 30.0000000  0  9G10G25G26G12G29G05G04G30G02
 119834637.754 7  93377756.17444  22803754.367                    22803761.871
 113823137.308 8  88693428.862 7  21659827.984                    21659837.469
 128475879.433 7 100111144.77043  24448151.586                    24448161.762
 110976193.895 8  86475013.259 7  21118066.625                    21118073.785
 121420508.112 7  94613442.130 6  23105557.477                    23105566.266
 106536165.098 8  83015189.827 8  20273116.070                    20273123.246
 129403750.088 6 100834224.77542  24624700.586                    24624708.719
 112527684.940 8  87683997.37946  21413310.125                    21413318.434
 112130499.750 8  87374505.90446  21337703.594                    21337708.758
 11  8 12  2 30  0.0000000  0  9G10G25G26G12G29G05G04G30G02
 119929985.541 7  93452053.13844  22821898.250                    22821905.566
 113803145.054 8  88677850.477 7  21656023.359                    21656033.270
 128380315.010 6 100036679.15543  24429966.117                    24429975.977
 111022363.919 8  86510989.888 7  21126852.336                    21126859.777
 121337418.430 6  94548696.935 6  23089745.375                    23089754.141
 106540143.927 8  83018290.237 8  20273873.094                    20273880.434
 129482810.832 6 100895830.54843  24639745.391                    24639754.703
 112538352.838 8  87692310.04246  21415340.719                    21415348.184
 112166153.889 8  87402288.34246  21344488.469                    21344493.500
 11  8 12  2 30 30.0000000  0  9G10G25G26G12G29G05G04G30G02
 120025608.936 7  93526564.85844  22840095.047                    22840102.270
 113783730.294 8  88662722.074 7  21652328.625                    21652338.262
 128284685.191 7  99962162.55543  24411768.391                    24411778.117
 111069041.724 8  86547362.200 7  21135734.922                    21135742.348
 121254353.670 6  94483971.165 6  23073939.352                    23073947.504
 106544687.929 8  83021831.043 8  20274737.906                    20274745.250
 129561811.834 6 100957389.80043  24654778.570                    24654787.762
 112549620.427 8  87701090.00246  21417484.438                    21417492.340
 112201914.915 8  87430154.06246  21351293.859                    21351298.563
 11  8 12  2 31  0.0000000  0  9G10G25G26G12G29G05G04G30G02
 120121505.237 7  93601289.25044  22858343.164                    22858350.535
 113764893.566 8  88648044.084 7  21648744.414                    21648753.898
 128188993.252 6  99887597.54443  24393558.703                    24393568.191
 111116225.896 8  86584129.076 7  21144713.977                    21144720.629
 121171315.517 7  94419266.130 6  23058138.148                    23058145.992
 106549796.935 8  83025812.105 8  20275710.305                    20275717.609
 129640752.830 6 101018902.31643  24669800.875                    24669809.207
 112561486.923 8  87710336.62946  21419742.930                    21419750.488
 112237782.462 8  87458102.79346  21358119.086                    21358124.484
 11  8 12  2 31 30.0000000  0  9G10G25G26G12G29G05G04G30G02
 120217671.693 7  93676224.13044  22876642.375                    22876650.445
 113746635.811 8  88633817.251 7  21645270.039                    21645279.926
 128093242.686 7  99812986.89643  24375337.078                    24375347.703
 111163914.365 8  86621288.923 7  21153788.672                    21153795.586
 121088305.792 7  94354583.238 6  23042341.703                    23042349.531
 106555470.319 8  83030232.944 8  20276789.867                    20276796.613
 129719634.364 6 101080368.41843  24684812.117                    24684820.555
 112573951.725 8  87720049.47346  21422114.633                    21422122.191
 112273756.711 8  87486134.67846  21364964.969                    21364970.043
 11  8 12  2 32  0.0000000  0  8G10G25G26G12G29G05G30G02
 120314105.504 7  93751367.35444  22894993.938                    22895001.316
 113728957.143 8  88620041.673 7  21641906.000                    21641915.418
 127997436.407 7  99738332.77643  24357106.406                    24357116.352
 111212105.434 8  86658840.394 7  21162958.945                    21162966.063
 121005325.718 7  94289923.456 6  23026550.297                    23026559.184
 106561706.997 8  83035092.726 8  20277976.563                    20277983.785
 112587013.557 8  87730227.52946  21424600.563                    21424608.098
 112309836.876 8  87514249.09946  21371830.633                    21371835.746
 11  8 12  2 32 30.0000000  0  8G10G25G26G12G29G05G30G02
 120410803.514 7  93826716.44744  22913394.625                    22913401.957
 113711857.857 8  88606717.582 7  21638651.938                    21638662.051
 127901577.296 6  99663637.54043  24338864.008                    24338874.734
 111260796.387 8  86696781.398 7  21172224.500                    21172232.211
 120922376.784 7  94225287.951 6  23010766.727                    23010774.219
 106568506.062 8  83040390.718 8  20279270.133                    20279277.301
 112600671.319 8  87740869.97045  21427199.516                    21427206.766
 112346022.127 8  87542445.40446  21378716.430                    21378721.512
 11  8 12  2 33  0.0000000  0  8G10G25G26G12G29G05G30G02
 120507762.992 7  93902269.26444  22931845.219                    22931853.352
 113695338.200 8  88593845.153 7  21635508.102                    21635517.621
 127805668.492 7  99588903.54943  24320613.336                    24320623.445
 111309985.374 8  86735110.466 7  21181585.008                    21181592.410
 120839460.164 7  94160677.592 6  22994987.805                    22994996.188
 106575866.462 8  83046126.124 8  20280670.977                    20280678.168
 112614923.882 8  87751975.89346  21429911.844                    21429918.832
 112382312.080 7  87570723.29246  21385622.063                    21385627.309
 11  8 12  2 33 30.0000000  0  8G10G25G26G12G29G05G30G02
 120604980.861 7  93978023.41644  22950345.383                    22950353.410
 113679398.702 8  88581424.805 7  21632475.164                    21632484.469
 127709713.247 6  99514133.39443  24302353.688                    24302364.105
 111359670.680 8  86773826.280 7  21191039.984                    21191047.043
 120756577.860 7  94096094.025 6  22979215.508                    22979223.809
 106583787.568 8  83052298.435 8  20282178.227                    20282185.223
 112629770.160 8  87763544.44946  21432737.133                    21432744.238
 112418706.595 8  87599082.66346  21392547.734                    21392552.824
 11  8 12  2 34  0.0000000  0  8G10G25G26G12G29G05G30G02
 120702454.143 7  94053976.61344  22968894.313                    22968901.586
 113664039.492 8  88569456.633 7  21629552.492                    21629561.895
 127613714.591 6  99439329.34643  24284085.461                    24284095.879
 111409850.137 8  86812927.155 7  21200588.836                    21200595.781
 120673731.209 7  94031538.218 6  22963450.914                    22963458.551
 106592268.181 8  83058906.730 8  20283791.797                    20283798.820
 112645209.050 8  87775574.77745  21435674.680                    21435681.785
 112455204.871 7  87627522.88746  21399493.148                    21399498.250
 11  8 12  2 34 30.0000000  0  8G10G25G26G12G29G05G30G02
 120800180.048 7  94130126.65844  22987490.531                    22987498.391
 113649260.947 8  88557940.927 7  21626740.156                    21626749.645
 127517675.581 6  99364493.87643  24265809.875                    24265820.574
 111460521.523 8  86852411.355 7  21210231.094                    21210238.164
 120590921.906 7  93967011.536 6  22947692.445                    22947700.078
 106601307.245 8  83065950.172 8  20285512.000                    20285519.270
 112661239.406 8  87788065.97746  21438724.813                    21438732.453
 112491806.629 8  87656043.75046  21406458.234                    21406463.094
 11  8 12  2 35  0.0000000  0  8G10G25G26G12G29G05G30G02
 120898155.806 7  94206471.38944  23006134.563                    23006142.969
 113635063.238 8  88546877.817 7  21624038.336                    21624048.215
 127421599.549 6  99289629.58243  24247526.500                    24247538.113
 111511682.602 8  86892277.118 7  21219966.906                    21219974.145
 120508151.506 7  93902515.144 6  22931941.695                    22931949.852
 106610904.074 8  83073428.246 8  20287338.469                    20287345.430
 112677859.949 8  87801017.05846  21441887.664                    21441895.125
 112528511.518 8  87684644.97746  21413442.820                    21413448.129
 11  8 12  2 35 30.0000000  0  8G10G25G26G12G29G05G30G02
 120996378.516 6  94283008.56444  23024826.172                    23024833.547
 113621446.740 8  88536267.597 7  21621446.766                    21621456.645
 127325489.732 6  99214738.88043  24229238.258                    24229247.633
 111563331.741 8  86932523.189 7  21229795.297                    21229802.391
 120425421.460 7  93838050.225 7  22916198.656                    22916206.793
 106621057.632 8  83081340.131 8  20289270.430                    20289277.254
 112695069.749 8  87814427.30046  21445163.063                    21445170.363
 112565319.022 8  87713326.15946  21420447.555                    21420452.418
 11  8 12  2 36  0.0000000  0  8G10G25G26G12G29G05G30G02
 121094845.685 6  94359736.21944  23043563.430                    23043571.473
 113608411.934 8  88526110.653 7  21618966.438                    21618976.281
 127229349.511 6  99139824.53343  24210943.172                    24210953.207
 111615467.171 8  86973148.190 7  21239716.641                    21239723.531
 120342733.494 7  93773618.103 6  22900463.375                    22900471.543
 106631767.469 8  83089685.484 8  20291308.477                    20291315.320
 112712867.642 8  87828295.78345  21448549.313                    21448556.738
 112602229.206 8  87742087.35446  21427470.867                    21427476.453
 11  8 12  2 36 30.0000000  0  8G10G25G26G12G29G05G30G02
 121193553.703 7  94436651.53344  23062347.734                    23062354.777
 113595958.591 8  88516406.800 7  21616596.766                    21616606.242
 127133181.768 6  99064888.71543  24192642.492                    24192652.215
 111668086.211 8  87014150.048 7  21249729.383                    21249736.590
 120260089.315 7  93709220.118 7  22884736.172                    22884745.160
 106643031.772 8  83098462.882 8  20293451.844                    20293458.797
 112731252.232 8  87842621.44746  21452048.078                    21452055.598
 112639240.974 8  87770927.70246  21434513.906                    21434519.355
 11  8 12  2 37  0.0000000  0  8G10G25G26G12G29G05G30G02
 121292499.860 6  94513752.44344  23081176.047                    23081183.965
 113584086.958 8  88507156.215 7  21614337.320                    21614347.188
 127036989.949 6  98989934.13443  24174338.641                    24174347.832
 111721186.490 8  87055526.881 7  21259834.133                    21259841.207
 120177490.228 7  93644857.257 7  22869018.461                    22869026.941
 106654849.504 8  83107671.526 8  20295700.742                    20295707.738
 112750222.231 8  87857403.26045  21455657.828                    21455665.461
 112676354.164 8  87799847.07946  21441576.352                    21441581.750
 11  8 12  2 37 30.0000000  0  8G10G25G26G12G29G05G30G02
 121391681.591 6  94591036.86944  23100049.773                    23100057.484
 113572797.359 8  88498359.158 7  21612189.336                    21612199.391
 126940777.151 6  98914963.21543  24156029.844                    24156038.828
 111774766.397 8  87097277.454 7  21270029.945                    21270037.313
 120094938.102 7  93580530.998 6  22853309.734                    22853317.305
 106667219.864 8  83117310.792 8  20298054.867                    20298061.551
 112769776.417 8  87872640.27246  21459378.930                    21459386.387
 112713568.359 8  87828845.17146  21448657.906                    21448663.121
 11  8 12  2 38  0.0000000  0  8G10G25G26G12G29G05G30G02
 121491096.234 7  94668502.84744  23118967.648                    23118975.539
 113562089.884 8  88490015.689 7  21610151.391                    21610161.512
 126844546.708 6  98839978.57243  24137716.953                    24137727.012
 111828823.801 8  87139400.102 7  21280316.813                    21280324.180
 120012434.537 7  93516242.560 7  22837609.195                    22837617.617
 106680141.930 8  83127379.949 8  20300513.711                    20300520.711
 112789913.637 8  87888331.62046  21463211.039                    21463218.648
 112750883.686 8  87857922.05346  21455759.109                    21455764.504
 11  8 12  2 38 30.0000000  0  8G10G25G26G12G29G05G30G02
 121590740.714 7  94746147.90844  23137928.758                    23137936.488
 113551964.446 8  88482125.742 7  21608224.711                    21608234.699
 126748301.726 6  98764982.59443  24119402.273                    24119412.336
 111883356.046 8  87181892.754 7  21290693.867                    21290701.219
 119929981.454 7  93451993.469 7  22821919.258                    22821927.617
 106693614.394 8  83137877.984 8  20303077.461                    20303084.301
 112810632.250 8  87904475.97946  21467153.508                    21467161.309
 112788299.487 8  87887077.24246  21462878.578                    21462883.855
 11  8 12  2 39  0.0000000  0  8G10G25G26G12G29G05G30G02
 121690611.703 6  94823969.44544  23156933.875                    23156942.055
 113542420.930 8  88474689.239 7  21606409.227                    21606418.566
 126652045.380 6  98689977.72443  24101085.727                    24101095.195
 111938361.190 8  87224753.887 7  21301160.695                    21301168.082
 119847580.005 7  93387784.609 6  22806238.656                    22806246.109
 106707635.557 8  83148803.580 8  20305745.570                    20305752.641
 112831930.724 8  87921072.17646  21471206.273                    21471213.324
 112825814.842 8  87916309.99546  21470017.742                    21470022.957
 11  8 12  2 39 30.0000000  0  8G10G25G26G12G29G05G30G02
 121790706.967 7  94901965.74844  23175981.719                    23175989.559
 113533459.709 8  88467706.482 7  21604703.523                    21604713.242
 126555781.253 6  98614966.82643  24082766.828                    24082776.637
 111993836.787 8  87267981.610 7  21311717.352                    21311724.996
 119765231.965 7  93323617.340 6  22790568.414                    22790576.203
 106722204.861 8  83160156.299 8  20308518.063                    20308524.887
 112853807.979 8  87938119.37045  21475369.742                    21475377.297
 112863429.918 8  87945620.45046  21477175.773                    21477180.738
 11  8 12  2 40  0.0000000  0  8G10G25G26G12G29G05G30G02
 121891023.707 7  94980134.63544  23195071.391                    23195078.891
 113525080.830 8  88461177.479 7  21603109.250                    21603118.914
 126459512.582 6  98539952.37743  24064447.188                    24064456.648
 112049780.834 8  87311574.365 7  21322363.625                    21322370.863
 119682939.082 7  93259493.087 6  22774908.242                    22774916.414
 106737321.243 8  83171935.308 8  20311394.547                    20311401.859
 112876262.714 8  87955616.55046  21479642.492                    21479649.938
 112901144.635 8  87975008.54646  21484352.547                    21484357.637
 11  8 12  2 40 30.0000000  0  8G10G25G26G12G29G05G30G02
 121991558.841 7  95058473.68044  23214202.484                    23214210.203
 113517284.048 8  88455102.050 7  21601625.461                    21601635.375
 126363242.488 6  98464936.81243  24046127.727                    24046137.484
 112106190.870 8  87355530.227 7  21333098.125                    21333105.266
 119600703.185 7  93195413.208 6  22759259.469                    22759266.645
 106752983.290 8  83184139.508 8  20314375.070                    20314382.066
 112899293.272 8  87973562.42946  21484025.297                    21484032.844
 112938958.137 8  88004473.61846  21491548.344                    21491553.137
 11  8 12  2 41  0.0000000  0  8G10G25G26G12G29G05G30G02
 122092309.563 6  95136980.72143  23233374.617                    23233381.902
 113510069.511 8  88449480.318 7  21600252.633                    21600262.160
 126266974.307 6  98389922.78143  24027808.281                    24027818.176
 112163064.877 8  87399847.623 7  21343920.695                    21343928.004
 119518525.825 7  93131378.952 6  22743621.586                    22743629.781
 106769189.759 8  83196767.934 8  20317458.945                    20317465.707
 112922898.329 8  87991955.96346  21488517.242                    21488524.695
 112976870.443 8  88034015.68646  21498762.609                    21498767.871
 11  8 12  2 41 30.0000000  0  8G10G25G26G12G29G05G30G02
 122193273.293 7  95215653.75044  23252587.648                    23252595.461
 113503437.184 8  88444312.245 7  21598990.633                    21599000.121
 126170711.696 6  98314913.07443  24009489.391                    24009500.160
 112220400.463 7  87444524.699 7  21354831.547                    21354838.441
 119436408.833 7  93067391.753 6  22727995.375                    22728002.691
 106785939.772 8  83209819.905 8  20320646.508                    20320653.352
 112947076.400 8  88010796.00045  21493118.219                    21493125.523
 113014881.017 8  88063634.31346  21505995.656                    21506001.402
 11  8 12  2 42  0.0000000  0  8G10G25G26G12G29G05G30G02
 122294446.861 7  95294490.28744  23271841.078                    23271848.617
 113497386.785 8  88439597.636 7  21597839.117                    21597849.004
 126074457.697 6  98239910.07443  23991174.000                    23991182.891
 112278195.389 8  87489559.690 7  21365829.133                    21365836.754
 119354353.679 7  93003452.739 6  22712380.867                    22712388.367
 106803231.691 8  83223294.135 8  20323937.063                    20323943.816
 112971825.792 7  88030081.23546  21497827.438                    21497835.199
 113052989.510 8  88093329.24446  21513247.391                    21513252.777
 11  8 12  2 42 30.0000000  0  8G10G25G26G12G29G05G30G02
 122395827.807 7  95373488.40744  23291131.922                    23291140.582
 113491918.485 8  88435336.618 7  21596798.836                    21596808.523
 125978215.701 6  98164916.44743  23972859.047                    23972869.156
 112336447.315 7  87534950.770 7  21376914.648                    21376922.145
 119272362.437 7  92939563.548 6  22696778.367                    22696786.176
 106821064.423 8  83237189.780 8  20327330.469                    20327337.090
 112997145.261 8  88049810.67746  21502645.688                    21502653.305
 113091195.996 8  88123100.53246  21520517.859                    21520523.508
 11  8 12  2 43  0.0000000  0  8G10G25G26G12G29G05G30G02
 122497413.032 7  95452645.70744  23310464.180                    23310471.594
 113487031.650 8  88431528.671 7  21595868.523                    21595878.516
 125881988.753 6  98089934.52043  23954547.250                    23954558.105
 112395153.352 8  87580695.729 7  21388085.742                    21388093.043
 119190436.613 7  92875725.336 7  22681188.031                    22681196.000
 106839436.209 8  83251505.466 8  20330826.242                    20330833.105
 113023032.738 7  88069982.72646  21507571.883                    21507580.059
 113129499.740 8  88152947.60646  21527807.117                    21527812.004
 11  8 12  2 43 30.0000000  0  8G10G25G26G12G29G05G30G02
 122599199.972 7  95531960.21244  23329833.609                    23329840.555
 113482726.619 8  88428174.082 7  21595049.555                    21595059.070
 125785780.633 6  98014967.30743  23936239.391                    23936249.539
 112454311.923 8  87626793.304 7  21399343.078                    21399350.570
 119108577.943 7  92811939.438 7  22665611.125                    22665618.750
 106858346.309 8  83266240.615 8  20334424.906                    20334431.852
 113049487.101 7  88090596.50246  21512606.086                    21512613.824
 113167900.851 8  88182870.54746  21535114.492                    21535119.430
 11  8 12  2 44  0.0000000  0  8G10G25G26G12G29G05G30G02
 122701185.626 7  95611429.56744  23349239.828                    23349248.172
 113479002.857 8  88425272.440 7  21594340.875                    21594350.641
 125689594.324 6  97940017.07443  23917936.117                    23917945.797
 112513920.330 7  87673241.399 7  21410686.234                    21410693.723
 119026788.343 7  92748207.386 7  22650046.547                    22650054.609
 106877793.125 8  83281393.986 8  20338125.109                    20338132.238
 113076506.454 8  88111650.53145  21517747.867                    21517755.246
 113206398.675 8  88212868.85546  21542440.078                    21542445.609
 11  8 12  2 44 30.0000000  0  8G10G25G26G12G29G05G30G02
 122803367.129 7  95691051.50444  23368684.484                    23368692.414
 113475860.237 8  88422823.634 7  21593743.039                    21593752.797
 125593433.423 6  97865086.62043  23899637.375                    23899646.414
 112573976.263 8  87720038.206 7  21422114.789                    21422121.887
 118945069.388 7  92684530.338 7  22634495.945                    22634503.543
 106897775.259 8  83296964.488 8  20341927.852                    20341934.824
 113104089.239 8  88133143.61246  21522996.672                    21523003.977
 113244993.085 8  88242942.41246  21549784.680                    21549789.777
 11  8 12  2 45  0.0000000  0  8G10G25G26G12G29G05G30G02
 122905742.191 7  95770824.25844  23388166.336                    23388174.227
 113473298.700 8  88420827.615 7  21593255.367                    21593265.070
 125497301.307 6  97790178.58043  23881343.313                    23881353.020
 112634477.392 7  87767181.940 7  21433627.609                    21433634.918
 118863423.174 7  92620909.998 7  22618959.563                    22618967.105
 106918291.667 8  83312951.315 8  20345832.172                    20345838.992
 113132233.991 7  88155074.58545  21528352.477                    21528360.145
 113283684.097 8  88273091.25546  21557147.828                    21557152.520
 11  8 12  2 45 30.0000000  0  8G10G25G26G12G29G05G30G02
 123008307.386 7  95850745.18444  23407684.148                    23407691.613
 113471317.775 8  88419284.015 7  21592878.664                    21592888.512
 125401201.307 6  97715295.56343  23863056.633                    23863065.871
 112695421.017 7  87814670.464 7  21445224.969                    21445232.293
 118781851.086 7  92557347.408 7  22603436.578                    22603444.430
 106939340.605 8  83329353.098 8  20349837.336                    20349844.586
 113160938.794 7  88177441.95045  21533814.773                    21533822.270
 113322470.819 8  88303314.67446  21564527.859                    21564533.520
 11  8 12  2 46  0.0000000  0  8G10G25G26G12G29G05G30G02
 123111060.303 7  95930812.39144  23427236.930                    23427244.438
 113469917.203 8  88418192.668 7  21592611.906                    21592621.691
 125305136.771 7  97640440.18643  23844775.906                    23844785.855
 112756804.672 7  87862501.873 7  21456905.938                    21456913.090
 118700355.118 7  92493844.122 6  22587928.273                    22587936.180
 106960920.605 8  83346168.697 8  20353944.070                    20353950.797
 113190201.990 8  88200244.42846  21539383.406                    21539391.402
 113361353.698 8  88333613.01445  21571927.242                    21571932.902
 11  8 12  2 46 30.0000000  0  8G10G25G26G12G29G05G30G02
 123213998.200 7  96011023.73644  23446824.711                    23446832.957
 113469096.492 8  88417553.165 7  21592455.539                    21592465.230
 125209110.884 6  97565614.90843  23826503.000                    23826512.477
 112818626.002 7  87910674.329 7  21468670.000                    21468677.117
 118618936.959 7  92430401.480 7  22572434.664                    22572443.230
 106983030.328 8  83363397.076 8  20358151.039                    20358158.477
 113220021.663 7  88223480.53745  21545057.820                    21545065.676
 113400332.039 8  88363985.73846  21579344.734                    21579350.055
 11  8 12  2 47  0.0000000  0  8G10G25G26G12G29G05G30G02
 123317118.027 7  96091376.84743  23466447.773                    23466455.844
 113468855.363 8  88417365.278 7  21592409.625                    21592419.266
 125113127.382 7  97490822.69143  23808237.773                    23808246.941
 112880882.518 7  87959185.888 7  21480516.984                    21480524.258
 118537598.419 7  92367020.845 7  22556956.648                    22556964.430
 107005668.114 8  83381036.926 8  20362459.133                    20362465.934
 113250396.258 7  88247149.06245  21550837.742                    21550845.215
 113439405.515 8  88394432.59845  21586780.383                    21586785.395
 11  8 12  2 47 30.0000000  0  8G10G25G26G12G29G05G30G02
 123420417.230 7  96171869.71443  23486104.750                    23486113.246
 113469193.274 8  88417628.597 7  21592474.133                    21592483.793
 125017189.418 7  97416065.90944  23789981.453                    23789990.828
 112943572.098 7  88008034.906 7  21492446.703                    21492453.648
 118456341.226 7  92303703.613 7  22541494.180                    22541501.547
 107028832.496 8  83399087.111 8  20366867.320                    20366873.863
 113281323.721 8  88271248.38846  21556723.266                    21556730.891
 113478573.954 8  88424953.45145  21594233.625                    21594238.254
 11  8 12  2 48  0.0000000  0  8G10G25G26G12G29G05G30G02
 123523893.022 7  96252500.19243  23505795.883                    23505804.516
 113470109.988 8  88418342.916 7  21592648.586                    21592658.156
 124921300.579 7  97341347.44143  23771734.086                    23771743.129
 113006691.556 7  88057218.900 7  21504458.172                    21504464.867
 118375167.425 7  92240451.340 6  22526047.055                    22526054.828
 107052522.174 8  83417546.621 8  20371375.031                    20371382.035
 113312802.475 7  88295777.28245  21562713.352                    21562721.070
 113517837.361 8  88455548.31145  21601705.352                    21601710.266
 11  8 12  2 48 30.0000000  0  8G10G25G26G12G29G05G30G02
 123627542.603 7  96333266.09243  23525519.703                    23525527.512
 113471605.151 8  88419507.972 7  21592933.078                    21592942.625
 124825464.443 7  97266670.01544  23753497.000                    23753506.363
 113070238.925 8  88106736.317 7  21516550.344                    21516557.328
 118294078.699 7  92177265.367 6  22510616.266                    22510623.992
 107076735.705 8  83436414.334 8  20375982.750                    20375989.746
 113344830.706 8  88320734.33445  21568808.250                    21568815.934
 113557195.401 8  88486216.91546  21609195.227                    21609199.949
 11  8 12  2 49  0.0000000  0  8G10G25G26G12G29G05G30G02
 123731363.444 7  96414165.43243  23545276.250                    23545284.020
 113473678.566 8  88421123.609 7  21593327.563                    21593337.262
 124729684.413 7  97192036.29244  23735270.688                    23735279.984
 113134211.887 8  88156585.370 7  21528724.172                    21528731.465
 118213077.209 7  92114147.369 6  22495202.086                    22495209.902
 107101471.839 8  83455689.264 8  20380690.156                    20380696.871
 113377406.899 8  88346118.37546  21575007.289                    21575014.695
 113596648.174 8  88516959.33746  21616702.547                    21616707.645
 11  8 12  2 49 30.0000000  0  8G10G25G26G12G29G05G30G02
 123835352.576 7  96495195.92543  23565065.836                    23565072.719
 113476329.072 8  88423188.935 7  21593831.984                    21593841.555
 124633963.599 6  97117448.76043  23717055.219                    23717065.090
 113198607.353 8  88206763.658 7  21540978.414                    21540985.734
 118132164.375 7  92051098.451 7  22479805.148                    22479812.477
 107126728.260 8  83475369.615 8  20385496.055                    20385502.934
 113410528.475 8  88371927.40146  21581310.172                    21581317.734
 113636194.820 8  88547774.91646  21624227.930                    21624232.770
 11  8 12  2 50  0.0000000  0  8G10G25G26G12G29G05G30G02
 123939507.292 7  96576355.47743  23584884.852                    23584892.313
 113479556.508 8  88425703.813 7  21594446.281                    21594455.781
 124538305.801 6  97042910.32143  23698852.055                    23698861.563
 113263422.977 7  88257269.330 7  21553312.211                    21553319.402
 118051342.306 7  91988120.272 7  22464424.859                    22464432.746
 107152503.847 8  83495454.511 8  20390401.172                    20390407.859
 113444193.847 8  88398160.15345  21587716.414                    21587723.953
 113675835.724 8  88578663.94345  21631771.055                    21631776.805
 11  8 12  2 50 30.0000000  0  9G10G25G26G12G29G05G15G30G02
 124043824.822 7  96657641.88543  23604736.141                    23604743.520
 113483359.952 8  88428667.539 7  21595170.219                    21595179.457
 124442714.229 7  96968423.47944  23680661.883                    23680670.742
 113328655.995 8  88308100.251 7  21565725.719                    21565733.043
 117970612.559 7  91925214.032 6  22449062.859                    22449069.977
 107178796.628 8  83515942.408 8  20395404.242                    20395411.172
 129371503.94716 100809020.72116  24618587.555                    24618597.137
 113478400.702 8  88424814.83845  21594225.328                    21594232.988
 113715570.137 8  88609625.85245  21639332.438                    21639337.430
 11  8 12  2 51  0.0000000  0  9G10G25G26G12G29G05G15G30G02
 124148302.865 7  96739053.33643  23624616.883                    23624625.605
 113487739.449 8  88432080.142 7  21596003.219                    21596012.781
 124347192.604 6  96893991.14143  23662483.883                    23662493.715
 113394304.163 8  88359254.665 7  21578218.258                    21578225.082
 117889977.387 7  91862381.477 7  22433717.742                    22433725.602
 107205605.452 8  83536832.418 8  20400505.758                    20400512.563
 129277352.89817 100735637.25215  24600671.469
 113513147.728 8  88451890.42645  21600838.094                    21600845.465
 113755398.392 8  88640660.87146  21646911.461                    21646916.668
 11  8 12  2 51 30.0000000  0  9G10G25G26G12G29G05G15G30G02
 124252938.610 7  96820587.68843  23644528.586                    23644536.531
 113492694.188 8  88435940.998 7  21596946.141                    21596955.672
 124251744.409 6  96819616.05144  23644320.930                    23644330.449
 113460364.950 8  88410730.609 7  21590789.125                    21590796.191
 117809438.550 7  91799624.018 7  22418392.031                    22418399.977
 107232928.887 8  83558123.426 8  20405705.305                    20405712.121
 129183078.661 6 100662177.16816  24582730.445                    24582739.387
 113548432.870 8  88479385.33946  21607552.641                    21607559.520
 113795320.136 8  88671768.74946  21654507.891                    21654513.770
 11  8 12  2 52  0.0000000  0  9G10G25G26G12G29G05G15G30G02
 124357729.135 7  96902242.62843  23664470.289                    23664477.672
 113498223.503 8  88440249.569 7  21597998.094                    21598007.711
 124156372.985 7  96745300.75944  23626172.523                    23626181.500
 113526835.762 8  88462526.061 7  21603438.117                    21603445.520
 117728998.267 7  91736943.342 7  22403084.547                    22403092.230
 107260764.870 8  83579813.823 8  20411002.313                    20411009.254
 129088683.349 6 100588622.409 6  24564768.141                    24564777.500
 113584253.962 8  88507297.87145  21614368.961                    21614376.980
 113835335.349 8  88702949.45545  21662122.805                    21662128.359
 11  8 12  2 52 30.0000000  0  9G10G25G26G12G29G05G15G30G02
 124462671.436 7  96984015.89243  23684440.258                    23684447.852
 113504326.471 8  88445005.147 7  21599159.547                    21599169.367
 124061081.531 7  96671047.76444  23608039.367                    23608047.691
 113593713.247 7  88514638.405 7  21616163.938                    21616171.824
 117648657.881 7  91674340.500 7  22387796.680                    22387803.945
 107289111.541 8  83601902.156 8  20416396.609                    20416403.926
 128994170.192 6 100514976.046 6  24546783.109                    24546792.688
 113620608.728 8  88535626.26245  21621286.805                    21621293.969
 113875443.368 7  88734202.48846  21669755.063                    21669760.711
 11  8 12  2 53  0.0000000  0  9G10G25G26G12G29G05G15G30G02
 124567763.088 7  97065905.48343  23704438.359                    23704445.742
 113511002.694 8  88450207.399 7  21600430.188                    21600440.098
 123965873.911 7  96596860.09344  23589921.711                    23589930.621
 113660995.284 8  88567065.981 7  21628967.359                    21628974.773
 117568419.498 7  91611817.166 7  22372527.305                    22372535.207
 107317967.364 8  83624387.223 8  20421887.461                    20421894.449
 128899540.907 6 100441239.076 6  24528775.617                    24528785.094
 113657495.392 8  88564369.10346  21628306.609                    21628314.203
 113915644.280 7  88765527.88346  21677405.297                    21677410.996
 11  8 12  2 53 30.0000000  0  9G10G25G26G12G29G05G15G30G02
 124673001.507 7  97147909.45243  23724464.539                    23724472.461
 113518251.525 8  88455855.849 7  21601809.781                    21601819.348
 123870753.718 7  96522740.55744  23571820.352                    23571829.586
 113728679.614 8  88619807.021 7  21641847.508                    21641854.543
 117488285.272 7  91549374.992 7  22357278.078                    22357285.766
 107347330.950 8  83647267.956 8  20427475.172                    20427482.117
 128804798.245 6 100367413.818 6  24510745.422                    24510755.555
 113694912.037 7  88593524.92445  21635426.680                    21635434.277
 113955938.165 7  88796925.73546  21685073.016                    21685078.000
 11  8 12  2 54  0.0000000  0  9G10G25G26G12G29G05G15G30G02
 124778384.133 6  97230025.75243  23744517.656                    23744526.371
 113526072.213 8  88461949.900 7  21603298.031                    21603307.938
 123775724.524 7  96448691.91744  23553737.320                    23553746.582
 113796763.111 8  88672859.110 7  21654803.305                    21654810.668
 117408257.029 7  91487015.385 7  22342049.273                    22342057.180
 107377200.589 8  83670543.007 8  20433159.602                    20433166.230
 128709945.078 7 100293502.384 6  24492696.781                    24492705.262
 113732856.557 8  88623092.06746  21642646.883                    21642654.816
 113996324.838 7  88828395.88846  21692758.594                    21692763.352
 11  8 12  2 54 30.0000000  0  9G10G25G26G12G29G05G15G30G02
 124883908.253 7  97312252.33043  23764598.242                    23764606.500
 113534463.790 8  88468488.803 7  21604894.695                    21604904.680
 123680789.391 7  96374716.56144  23535671.594                    23535680.711
 113865243.214 8  88726220.237 7  21667835.000                    21667841.719
 117328336.399 7  91424739.665 7  22326840.688                    22326847.996
 107407574.250 8  83694210.795 8  20438939.266                    20438945.781
 128614983.708 7 100219506.550 6  24474625.547                    24474634.477
 113771326.654 8  88653068.75645  21649967.688                    21649975.352
 114036804.180 7  88859938.24845  21700461.445                    21700466.625
 11  8 12  2 55  0.0000000  0  9G10G25G26G12G29G05G15G30G02
 124989570.688 6  97394586.68243  23784705.266                    23784713.305
 113543425.348 8  88475471.863 7  21606600.172                    21606610.047
 123585951.828 7  96300817.24044  23517624.664                    23517633.957
 113934116.916 8  88779888.046 7  21680940.953                    21680947.867
 117248525.427 7  91362549.372 7  22311653.469                    22311661.203
 107438449.732 8  83718269.625 8  20444814.703                    20444821.520
 128519916.635 6 100145428.420 6  24456534.594                    24456544.480
 113810319.933 8  88683453.12345  21657387.891                    21657395.402
 114077375.485 7  88891552.27146  21708181.430                    21708186.719
 11  8 12  2 55 30.0000000  0  9G10G25G26G12G29G05G15G30G02
 125095369.168 6  97477027.05743  23804837.898                    23804845.773
 113552956.436 8  88482898.704 7  21608413.891                    21608423.309
 123491215.915 7  96226997.14044  23499597.305                    23499605.461
 114003381.992 8  88833860.839 7  21694121.555                    21694128.906
 117168826.361 7  91300446.296 7  22296486.891                    22296494.379
 107469826.057 8  83742718.715 8  20450785.336                    20450792.176
 128424746.409 6 100071269.966 6  24438424.648                    24438434.242
 113849834.762 8  88714243.89045  21664907.406                    21664914.746
 114118039.052 8  88923238.18645  21715919.461                    21715925.012
 11  8 12  2 56  0.0000000  0  9G10G25G26G12G29G05G15G30G02
 125201301.221 6  97559571.50843  23824996.250                    23825003.984
 113563056.381 8  88490768.808 7  21610335.711                    21610345.480
 123396584.922 7  96153258.79643  23481589.594                    23481598.383
 114073036.160 8  88888136.807 7  21707376.102                    21707383.457
 117089241.129 7  91238431.892 7  22281342.805                    22281349.828
 107501701.510 8  83767556.741 8  20456851.406                    20456857.863
 128329476.145 6  99997033.555 6  24420295.148                    24420304.637
 113889869.034 8  88745439.43045  21672525.977                    21672533.113
 114158795.014 8  88954996.09045  21723675.086                    21723680.516
 11  8 12  2 56 30.0000000  0  9G10G25G26G12G29G05G15G30G02
 125307364.137 6  97642217.92943  23845178.953                    23845187.152
 113573724.195 8  88499081.421 7  21612365.883                    21612374.840
 123302062.754 7  96079605.24544  23463601.813                    23463611.469
 114143076.070 8  88942713.363 7  21720704.594                    21720711.844
 117009771.647 7  91176507.725 7  22266219.523                    22266227.098
 107534074.302 8  83792782.299 8  20463011.281                    20463017.969
 128234107.990 6  99922720.729 5  24402147.117                    24402155.715
 113930420.572 8  88777038.03945  21680242.094                    21680249.824
 114199643.339 8  88986825.96245  21731448.766                    21731453.523
 11  8 12  2 57  0.0000000  0  9G10G25G26G12G29G05G15G30G02
 125413555.010 6  97724964.01743  23865386.742                    23865395.172
 113584958.752 8  88507835.628 7  21614503.633                    21614512.918
 123207652.462 7  96006038.86044  23445636.297                    23445645.383
 114213498.766 8  88997588.184 7  21734105.523                    21734112.539
 116930419.787 7  91114675.168 7  22251119.813                    22251126.648
 107566942.164 8  83818393.627 8  20469265.688                    20469272.711
 128138644.515 6  99848333.696 6  24383981.273                    24383989.836
 113971486.904 8  88809037.77945  21688057.070                    21688064.660
 114240583.514 8  89018727.40045  21739239.086                    21739243.801
 11  8 12  2 57 30.0000000  0  9G10G25G26G12G29G05G15G30G02
 125519871.610 6  97807808.13543  23885618.766                    23885626.098
 113596759.110 8  88517030.703 7  21616749.344                    21616759.207
 123113357.731 7  95932562.54444  23427693.180                    23427701.762
 114284301.888 8  89052759.440 7  21747578.617                    21747586.063
 116851187.442 7  91052935.748 7  22236042.039                    22236049.797
 107600303.235 8  83844389.262 8  20475614.383                    20475621.191
 128043088.320 6  99773874.461 6  24365797.391                    24365806.781
 114013065.708 8  88841436.84845  21695968.805                    21695976.469
 114281615.400 8  89050700.30845  21747047.305                    21747051.980
 11  8 12  2 58  0.0000000  0  9G10G25G26G12G29G05G15G30G02
 125626310.683 6  97890747.67943  23905873.305                    23905881.063
 113609124.000 8  88526665.671 7  21619102.109                    21619111.781
 123019181.662 7  95859178.70644  23409771.484                    23409780.586
 114355482.089 8  89108224.517 7  21761124.297                    21761131.160
 116772076.424 7  90991290.865 7  22220987.945                    22220995.188
 107634155.047 8  83870767.299 8  20482056.164                    20482062.926
 127947441.772 7  99699344.826 6  24347597.000                    24347606.277
 114055154.395 8  88874233.21145  21703978.211                    21703986.684
 114322738.546 8  89082744.32645  21754872.625                    21754877.707
 11  8 12  2 58 30.0000000  0  9G10G25G26G12G29G05G15G30G02
 125732870.519 6  97973781.31243  23926150.688                    23926158.086
 113622053.194 8  88536740.375 7  21621562.297                    21621572.121
 122925128.525 7  95785890.62144  23391873.922                    23391882.695
 114427037.315 7  89163981.825 7  21774740.414                    21774747.836
 116693089.254 7  90929742.467 7  22205957.031                    22205964.219
 107668497.377 8  83897527.559 8  20488591.063                    20488597.984
 127851708.161 6  99624747.260 5  24329378.758                    24329387.316
 114097751.488 8  88907425.74745  21712084.172                    21712092.039
 114363953.678 8  89114860.00645  21762715.656                    21762720.945
 11  8 12  2 59  0.0000000  0  9G10G25G26G12G29G05G15G30G02
 125839548.110 6  98056906.72043  23946451.219                    23946458.137
 113635545.603 8  88547253.938 7  21624130.148                    21624139.434
 122831201.823 7  95712701.09144  23374000.102                    23374009.344
 114498964.816 7  89220029.209 7  21788428.195                    21788435.664
 116614227.834 7  90868292.046 7  22190950.492                    22190957.484
 107703327.711 8  83924668.087 8  20495218.930                    20495226.133
 127755889.916 6  99550083.824 6  24311143.891                    24311153.414
 114140854.629 7  88941012.60345  21720286.438                    21720294.402
 114405260.456 8  89147047.11345  21770576.039                    21770580.949
 11  8 12  2 59 30.0000000  0  9G10G25G26G12G29G05G15G30G02
 125946340.777 6  98140121.82243  23966772.070                    23966779.957
 113649600.051 8  88558205.466 7  21626804.430                    21626813.566
 122737404.989 7  95639612.74944  23356151.578                    23356159.707
 114571261.560 7  89276364.316 7  21802185.359                    21802192.746
 116535494.237 7  90806941.228 7  22175967.836                    22175975.125
 107738643.975 8  83952187.259 8  20501939.680                    20501946.313
 127659989.547 7  99475356.363 6  24292895.828                    24292905.023
 114184461.219 7  88974991.76746  21728584.820                    21728592.566
 114446658.859 7  89179305.61545  21778454.117                    21778459.254
 11  8 12  3  0  0.0000000  0  9G10G25G26G12G29G05G15G30G02
 126053246.174 6  98223424.74843  23987116.672                    23987123.984
 113664215.434 8  88569594.077 7  21629585.898                    21629595.262
 122643741.531 7  95566628.31044  23338327.594                    23338336.477
 114643925.196 7  89332985.317 7  21816013.180                    21816020.125
 116456890.221 7  90745691.359 7  22161009.875                    22161017.020
 107774444.361 8  83980083.665 8  20508752.227                    20508759.070
 127564009.561 7  99400566.850 6  24274631.750                    24274639.609
 114228569.013 7  89009361.48545  21736978.086                    21736985.523
 114488148.716 7  89211635.37345  21786348.813                    21786354.195
 11  8 12  3  0 30.0000000  0  9G10G25G26G12G29G05G15G30G02
 126160261.387 6  98306813.22943  24007480.336                    24007487.969
 113679390.821 8  88581419.043 7  21632473.633                    21632483.000
 122550215.211 7  95493750.74344  23320529.602                    23320538.445
 114716952.531 7  89389889.723 7  21829909.859                    21829916.844
 116378418.020 7  90684544.199 7  22146076.922                    22146084.332
 107810726.919 8  84008355.799 8  20515656.672                    20515663.227
 127467952.896 6  99325717.564 6  24256352.375                    24256360.793
 114273175.701 8  89044119.93645  21745466.273                    21745474.113
 114529730.089 8  89244036.44345  21794261.891                    21794266.641
 11  8 12  3  1  0.0000000  0  9G10G25G26G12G29G05G15G30G02
 126267383.862 6  98390285.29543  24027865.000                    24027872.027
 113695124.900 8  88593679.348 7  21635467.313                    21635477.480
 122456829.444 7  95420982.68144  23302759.109                    23302767.699
 114790340.779 7  89447075.352 7  21843875.320                    21843882.129
 116300079.358 7  90623501.090 7  22131169.844                    22131176.711
 107847489.378 8  84037001.877 8  20522652.336                    20522659.344
 127371822.055 7  99250810.431 6  24238058.492                    24238066.715
 114318278.770 7  89079265.18945  21754049.313                    21754056.844
 114571402.650 8  89276508.56945  21802192.414                    21802196.746
 11  8 12  3  1 30.0000000  0  9G10G25G26G12G29G05G15G30G02
 126374611.208 6  98473839.07343  24048270.227                    24048277.535
 113711416.619 8  88606374.177 7  21638567.586                    21638577.199
 122363587.813 7  95348326.94444  23285015.625                    23285024.906
 114864087.035 7  89504539.969 7  21857908.453                    21857915.605
 116221876.547 7  90562563.822 7  22116288.453                    22116295.602
 107884730.011 8  84066020.558 8  20529739.063                    20529745.543
 127275619.526 7  99175847.508 6  24219752.492                    24219760.605
 114363875.859 7  89114795.40445  21762726.125                    21762733.617
 114613166.434 8  89309051.79445  21810139.164                    21810144.043
 11  8 12  3  2  0.0000000  0  9G10G25G26G12G29G05G15G30G02
 126481941.012 6  98557472.70343  24068693.773                    24068701.371
 113728265.067 8  88619502.821 7  21641773.781                    21641783.434
 122270494.306 7  95275786.63744  23267300.172                    23267309.277
 114938188.759 7  89562281.566 7  21872009.164                    21872017.090
 116143811.610 7  90501733.959 7  22101432.797                    22101440.699
 107922447.201 8  84095410.590 8  20536916.047                    20536922.391
 127179348.395 6  99100831.144 6  24201432.211                    24201441.020
 114409964.794 8  89150708.86245  21771496.797                    21771504.289
 114655021.689 7  89341666.28245  21818104.320                    21818108.949
 11  8 12  3  2 30.0000000  0  9G10G25G26G12G29G05G15G30G02
 126589370.549 6  98641184.04643  24089137.477                    24089144.578
 113745669.003 8  88633064.317 7  21645085.945                    21645095.316
 122177552.329 7  95203364.42344  23249613.688                    23249622.965
 115012642.915 7  89620297.792 7  21886177.711                    21886184.723
 116065886.750 7  90441013.234 7  22086604.266                    22086611.879
 107960638.984 8  84125170.439 8  20544183.703                    20544190.598
 127083011.432 7  99025763.476 6  24183100.445                    24183108.578
 114456543.181 8  89187003.71145  21780360.250                    21780368.195
 114696968.321 8  89374351.97245  21826086.156                    21826091.246
 11  8 12  3  3  0.0000000  0  9G10G25G26G12G29G05G15G30G02
 126696897.360 6  98724971.15243  24109598.977                    24109606.598
 113763627.293 8  88647057.783 7  21648503.188                    21648512.180
 122084765.467 7  95131063.04244  23231957.445                    23231965.695
 115087446.735 7  89678586.487 7  21900412.125                    21900419.613
 115988103.975 7  90380403.249 7  22071803.031                    22071810.301
 107999303.184 8  84155298.401 8  20551541.414                    20551548.160
 126986611.075 7  98950646.345 6  24164756.055                    24164763.680
 114503608.520 8  89223677.98745  21789316.281                    21789324.105
 114739006.055 8  89407108.65845  21834085.711                    21834091.047
 11  8 12  3  3 30.0000000  0  9G10G25G26G12G29G05G15G30G02
 126804518.687 6  98808831.92343  24130078.547                    24130085.441
 113782138.208 8  88661481.876 7  21652025.406                    21652035.289
 121992136.912 7  95058885.04044  23214330.438                    23214338.395
 115162597.105 7  89737145.222 7  21914713.320                    21914720.355
 115910465.014 7  90319905.303 7  22057028.828                    22057035.848
 108038437.108 8  84185792.378 8  20558988.023                    20558994.625
 126890149.736 7  98875481.721 6  24146399.438                    24146408.430
 114551157.864 8  89260729.42445  21798364.625                    21798372.270
 114781134.701 7  89439936.18945  21842102.555                    21842107.648
 11  8 12  3  4  0.0000000  0  9G10G25G26G12G29G05G15G30G02
 126912232.500 6  98892764.74543  24150575.891                    24150583.473
 113801201.078 8  88676336.062 7  21655652.984                    21655662.699
 121899670.873 7  94986833.64244  23196735.328                    23196743.031
 115238091.431 7  89795971.987 7  21929079.156                    21929085.934
 115832972.388 7  90259521.395 7  22042282.391                    22042289.859
 108078039.697 7  84216651.545 8  20566524.547                    20566531.402
 126793630.387 6  98800271.944 6  24128032.250                    24128041.551
 114599189.376 7  89298156.56045  21807505.102                    21807512.117
 114823354.769 7  89472834.94945  21850136.508                    21850142.086
 11  8 12  3  4 30.0000000  0  9G10G25G26G12G29G05G15G30G02
 127020035.929 6  98976767.47643  24171090.500                    24171097.730
 113820814.439 8  88691619.198 7  21659385.266                    21659394.918
 121807370.889 7  94914911.65544  23179170.531                    23179178.949
 115313926.641 7  89855064.360 7  21943509.875                    21943517.125
 115755627.970 7  90199252.999 7  22027564.273                    22027571.719
 108118108.524 8  84247874.023 8  20574149.391                    20574156.105
 126697055.986 6  98725019.211 6  24109655.453                    24109663.188
 114647700.314 8  89335957.28645  21816736.281                    21816743.773
 114865665.945 8  89505804.70345  21858188.320                    21858193.059
 11  8 12  3  5  0.0000000  0  9G10G25G26G12G29G05G15G30G02
 127127926.394 6  99060837.95543  24191621.461                    24191628.609
 113840977.010 8  88707330.300 7  21663222.180                    21663232.055
 121715240.301 7  94843121.67044  23161639.031                    23161646.918
 115390100.180 8  89914420.390 7  21958005.531                    21958012.441
 115678433.972 7  90139101.815 7  22012874.602                    22012882.078
 108158641.581 8  84279458.238 8  20581862.445                    20581868.910
 126600429.074 6  98649725.626 6  24091266.602                    24091276.176
 114696688.155 8  89374129.62445  21826058.250                    21826065.730
 114908068.329 8  89538845.53245  21866257.023                    21866262.148
 11  8 12  3  5 30.0000000  0  9G10G25G26G12G29G05G15G30G02
 127235901.846 6  99144974.68543  24212167.773                    24212175.730
 113861687.752 8  88723468.553 7  21667163.500                    21667172.945
 121623283.269 7  94771466.94544  23144139.234                    23144148.504
 115466608.975 7  89974037.666 7  21972564.313                    21972571.789
 115601392.810 7  90079069.766 7  21998214.523                    21998221.914
 108199637.460 8  84311403.091 8  20589663.734                    20589670.559
 126503752.791 6  98574393.603 6  24072870.055                    24072879.570
 114746150.791 7  89412671.94945  21835470.453                    21835477.961
 114950561.949 8  89571957.44945  21874343.195                    21874348.457
 11  8 12  3  6  0.0000000  0  9G10G25G26G12G29G05G15G30G02
 127343959.488 6  99229175.44043  24232730.867                    24232738.891
 113882944.924 8  88740032.590 7  21671208.547                    21671217.969
 121531503.083 7  94699949.97344  23126674.883                    23126683.383
 115543449.996 8  90033913.784 7  21987186.742                    21987194.145
 115524506.072 7  90019158.071 7  21983583.336                    21983590.484
 108241093.244 8  84343706.316 7  20597552.781                    20597559.484
 126407029.307 6  98499024.719 6  24054464.523                    24054473.027
 114796085.099 7  89451581.79645  21844972.508                    21844979.832
 114993146.522 7  89605140.22845  21882447.078                    21882452.348
 11  8 12  3  6 30.0000000  0  9G10G25G26G12G29G05G15G30G02
 127452096.622 6  99313438.12643  24253308.625                    24253315.820
 113904747.260 8  88757021.435 7  21675357.367                    21675366.945
 121439903.130 7  94628573.48144  23109243.398                    23109251.988
 115620620.453 8  90094046.622 7  22001871.906                    22001878.879
 115447776.323 7  89959368.735 7  21968981.625                    21968989.363
 108283006.911 8  84376366.325 8  20605528.258                    20605535.480
 126310261.504 6  98423621.289 6  24036049.969                    24036059.219
 114846488.791 7  89490857.37445  21854564.391                    21854571.809
 115035822.443 7  89638394.18545  21890567.898                    21890572.793
 11  8 12  3  7  0.0000000  0  9G10G25G26G12G29G05G15G30G02
 127560311.126 6  99397761.11243  24273901.516                    24273908.785
 113927093.453 8  88774434.052 7  21679609.773                    21679619.508
 121348487.488 7  94557340.58144  23091848.313                    23091856.125
 115698117.432 8  90154433.906 7  22016618.867                    22016626.355
 115371205.467 8  89899703.233 7  21954410.867                    21954418.164
 108325376.652 8  84409381.717 8  20613591.055                    20613597.965
 126213452.123 6  98348185.481 6  24017627.703                    24017636.063
 114897359.234 7  89530496.66845  21864244.852                    21864252.961
 115078589.808 8  89671719.38745  21898706.055                    21898711.777
 11  8 12  3  7 30.0000000  0  9G10G25G26G12G29G05G15G30G02
 127668600.372 6  99482142.38643  24294507.781                    24294515.176
 113949982.007 8  88792269.286 7  21683964.930                    21683975.344
 121257259.755 7  94486254.11144  23074487.430                    23074496.125
 115775938.182 8  90215073.449 7  22031427.797                    22031434.934
 115294795.592 8  89840163.178 7  21939870.117                    21939877.891
 108368200.240 8  84442750.757 8  20621740.258                    20621747.090
 126116604.136 7  98272719.566 6  23999198.727                    23999207.031
 114948693.843 7  89570497.65945  21874013.445                    21874021.016
 115121448.564 8  89705115.81845  21906862.156                    21906867.035
 11  8 12  3  8  0.0000000  0  9G10G25G26G12G29G05G15G30G02
 127776961.876 6  99566579.96043  24315128.281                    24315135.711
 113973411.498 8  88810526.024 7  21688423.445                    21688433.336
 121166223.319 7  94415316.72144  23057164.047                    23057172.293
 115854079.526 8  90275962.825 7  22046297.836                    22046305.168
 115218548.952 8  89780750.332 7  21925361.242                    21925368.391
 108411475.631 8  84476471.858 8  20629975.008                    20629982.070
 126019720.281 7  98197225.717 6  23980761.422                    23980770.375
 115000490.004 7  89610858.28745  21883870.047                    21883877.617
 115164398.422 7  89738583.22045  21915035.563                    21915040.688
 11  8 12  3  8 30.0000000  0  9G10G25G26G12G29G05G15G30G02
 127885393.553 6  99651072.15743  24335761.648                    24335769.633
 113997380.515 8  88829203.178 7  21692984.711                    21692994.820
 121075382.094 7  94344531.43144  23039877.297                    23039885.273
 115932538.699 8  90337099.846 7  22061228.188                    22061235.207
 115142467.523 8  89721466.205 7  21910883.359                    21910890.281
 108455200.763 8  84510543.408 7  20638295.445                    20638302.301
 125922803.281 7  98121706.039 6  23962319.375                    23962327.461
 115052745.090 7  89651576.52145  21893813.688                    21893821.660
 115207439.436 7  89772121.66345  21923225.391                    21923230.887
 11  8 12  3  9  0.0000000  0  9G10G25G26G12G29G05G15G30G02
 127993892.616 6  99735616.87943  24356409.125                    24356417.012
 114021887.723 8  88848299.700 7  21697648.445                    21697658.258
 120984739.632 7  94273901.01544  23022628.625                    23022637.008
 116011313.044 8  90398482.466 7  22076218.453                    22076224.793
 115066553.647 8  89662312.654 7  21896437.047                    21896444.141
 108499373.494 8  84544963.740 8  20646701.430                    20646708.125
 125825856.123 7  98046162.859 6  23943870.859                    23943878.730
 115105456.626 7  89692650.44245  21903844.695                    21903852.266
 115250571.948 8  89805731.39045  21931433.336                    21931438.707
 11  8 12  3  9 30.0000000  0 10G10G25G26G12G29G05G15G21G30G02
 128102456.899 6  99820212.39243  24377068.289                    24377075.992
 114046931.458 8  88867814.292 7  21702413.945                    21702423.637
 120894299.698 7  94203428.39744  23005418.828                    23005426.801
 116090398.908 8  90460107.828 7  22091267.719                    22091274.883
 114990809.230 8  89603291.145 7  21882023.367                    21882030.441
 108543991.698 8  84579731.181 8  20655191.914                    20655198.883
 125728881.498 6  97970598.284 6  23925416.867                    23925425.074
 132307382.01016 103096742.84653  25177269.664                    25177278.113
 115158621.907 7  89734077.92745  21913961.672                    21913969.219
 115293795.735 8  89839412.23145  21939658.703                    21939663.926
 11  8 12  3 10  0.0000000  0 10G10G25G26G12G29G05G15G21G30G02
 128211084.022 6  99904856.92243  24397739.047                    24397747.137
 114072510.254 8  88887745.814 7  21707281.547                    21707291.285
 120804066.036 7  94133116.52544  22988248.172                    22988256.281
 116169793.834 8  90521973.994 7  22106376.000                    22106383.074
 114915236.513 7  89544403.424 7  21867642.398                    21867649.434
 108589053.179 8  84614844.042 8  20663766.859                    20663773.766
 125631882.154 6  97895014.459 6  23906958.430                    23906966.609
 132249668.932 6 103051771.79343  25166286.883                    25166296.305
 115212238.209 7  89775856.86845  21924164.039                    21924171.906
 115337111.220 8  89873164.53745  21947901.461                    21947906.336
 11  8 12  3 10 30.0000000  0 10G10G25G26G12G29G05G15G21G30G02
 128319771.443 6  99989548.44242  24418421.172                    24418429.152
 114098622.809 8  88908093.229 7  21712250.969                    21712260.039
 120714042.367 7  94062968.28544  22971116.445                    22971125.000
 116249495.126 8  90584078.897 7  22121543.055                    22121549.516
 114839838.276 8  89485651.632 7  21853294.453                    21853301.398
 108634556.232 8  84650300.979 8  20672425.727                    20672432.586
 125534861.092 6  97819413.711 6  23888496.039                    23888503.848
 132191968.393 6 103006810.50343  25155307.055                    25155315.414
 115266303.164 7  89817985.40545  21934452.383                    21934459.934
 115380518.680 8  89906988.50045  21956161.797                    21956166.945
 11  8 12  3 11  0.0000000  0 10G10G25G26G12G29G05G15G21G30G02
 128428516.807 6 100074285.08942  24439114.094                    24439122.559
 114125267.223 8  88928855.093 7  21717320.703                    21717330.203
 120624232.215 7  93992986.41744  22954026.242                    22954034.496
 116329499.486 8  90646419.961 7  22136767.117                    22136774.293
 114764615.991 8  89427036.960 7  21838980.172                    21838987.652
 108680497.952 7  84686099.744 8  20681168.477                    20681175.016
 125437821.025 6  97743798.177 6  23870029.211                    23870038.359
 132134279.329 6 102961858.21643  25144329.375                    25144337.414
 115320813.732 7  89860461.17245  21944825.711                    21944833.270
 115424017.735 7  89940883.84545  21964439.078                    21964444.055
 11  8 12  3 11 30.0000000  0 10G10G25G26G12G29G05G15G21G30G02
 128537317.886 5 100159065.11142  24459818.609                    24459826.973
 114152442.013 8  88950030.227 7  21722492.070                    21722501.883
 120534639.094 7  93923173.63644  22936977.125                    22936985.590
 116409803.852 7  90708994.798 7  22152048.406                    22152055.445
 114689572.137 8  89368561.313 7  21824699.633                    21824706.352
 108726876.575 8  84722238.942 7  20689993.984                    20690000.707
 125340764.827 6  97668170.039 6  23851560.781                    23851568.523
 132076602.24016 102916915.41353  25133352.391                    25133361.336
 115375767.349 7  89903282.17145  21955282.688                    21955290.621
 115467608.551 8  89974850.70245  21972734.453                    21972739.512
 11  8 12  3 12  0.0000000  0 10G10G25G26G12G29G05G15G21G30G02
 128646172.166 6 100243886.67543  24480533.891                    24480540.785
 114180145.675 8  88971617.479 7  21727763.820                    21727773.590
 120445266.995 7  93853533.09044  22919970.094                    22919978.406
 116490405.412 7  90771801.208 7  22167386.648                    22167393.570
 114614708.896 7  89310226.376 7  21810453.570                    21810460.398
 108773689.862 8  84758716.848 8  20698902.117                    20698909.000
 125243695.566 6  97592531.744 6  23833089.055                    23833097.309
 132018934.964 6 102871980.02743  25122379.313                    25122387.613
 115431161.273 7  89946446.27245  21965823.758                    21965831.711
 115511291.339 8  90008889.22745  21981046.906                    21981051.926
 11  8 12  3 12 30.0000000  0 10G10G25G26G12G29G05G15G21G30G02
 128755077.284 6 100328747.83543  24501257.773                    24501265.094
 114208376.563 8  88993615.561 7  21733136.063                    21733145.809
 120356119.486 7  93784067.54744  22903005.781                    22903014.008
 116571301.144 8  90834836.863 7  22182780.461                    22182787.418
 114540028.420 8  89252033.867 7  21796242.477                    21796249.176
 108820935.731 8  84795531.831 8  20707892.688                    20707899.391
 125146615.892 6  97516885.328 6  23814614.922                    23814623.555
 131961277.770 6 102827052.51643  25111407.109                    25111415.672
 115486992.819 7  89989951.36245  21976448.156                    21976455.988
 115555066.123 8  90042999.44845  21989377.320                    21989381.828
 11  8 12  3 13  0.0000000  0 10G10G25G26G12G29G05G15G21G30G02
 128864030.892 6 100413646.76543  24521990.852                    24521998.348
 114237132.772 8  89016022.992 7  21738608.266                    21738617.199
 120267200.069 7  93714779.74044  22886085.023                    22886093.063
 116652487.862 8  90898099.243 7  22198229.633                    22198236.734
 114465532.741 7  89193985.319 7  21782065.953                    21782073.648
 108868611.494 8  84832681.791 7  20716965.172                    20716971.984
 125049528.340 6  97441232.764 6  23796140.125                    23796148.047
 131903630.124 6 102782132.46143  25100437.625                    25100445.500
 115543259.047 7  90033795.18645  21987155.281                    21987162.996
 115598932.663 7  90077181.17145  21997724.484                    21997729.148
 11  8 12  3 13 30.0000000  0 10G10G25G26G12G29G05G15G21G30G02
 128973030.796 6 100498581.73643  24542732.313                    24542740.590
 114266412.771 8  89038838.561 7  21744179.797                    21744189.754
 120178512.753 7  93645672.78444  22869208.336                    22869216.633
 116733963.060 8  90961586.406 7  22213734.117                    22213741.348
 114391224.161 8  89136082.571 7  21767925.805                    21767933.277
 108916715.366 8  84870165.343 7  20726118.961                    20726125.332
 124952436.175 6  97365576.617 6  23777663.492                    23777671.770
 131845991.210 6 102737219.09143  25089468.711                    25089477.203
 115599957.286 7  90077975.64145  21997944.258                    21997952.531
 115642891.705 8  90111434.97045  22006089.391                    22006094.516
 11  8 12  3 14  0.0000000  0 10G10G25G26G12G29G05G15G21G30G02
 129082074.586 6 100583550.88643  24563482.008                    24563490.777
 114296214.862 8  89062060.965 7  21749850.852                    21749860.926
 120090061.015 7  93576749.40744  22852376.234                    22852384.957
 116815723.352 7  91025295.748 7  22229292.289                    22229299.152
 114317104.856 7  89078327.296 7  21753821.219                    21753828.730
 108965245.016 8  84907980.668 7  20735353.703                    20735360.445
 124855342.186 7  97289919.065 6  23759186.852                    23759195.656
 131788360.697 6 102692312.33143  25078502.398                    25078510.531
 115657084.804 7  90122490.59045  22008815.617                    22008823.430
 115686943.129 7  90145760.77245  22014472.109                    22014477.105
